[[{"header":{"parameterUnit":"m.s-1","parameterCategory":1,"la1":30.6,"la2":29.2853,"lo1":-89.7004,"lo2":-87.6739,"dy":0.0162,"dx":0.0183,"nx":112,"ny":82,"refTime":"2023-10-14T00:00:00:Z","depth":0,"parameterNumber":2,"parameterNumberName":"U-component_of_WINDS"},"data":[0.0,0.0,0.0,0.0,0.0,0.0,0.0,0.0,0.0,0.0,0.0,0.0,0.0,0.0,0.0,0.0,0.0,0.0,0.0,0.0,0.0,0.0,0.0,0.0,0.0,0.0,0.0,0.0,0.0,0.0,0.0,0.0,0.0,0.0,0.0,0.0,0.0,0.0,0.0,0.0,0.0,0.0,0.0,0.0,0.0,0.0,0.0,0.0,0.0,0.0,0.0,0.0,0.0,0.0,0.0,0.0,0.0,0.0,0.0,0.0,0.0,0.0,0.0,0.0,0.0,0.0,0.0,0.0,0.0,0.0,0.0,0.0,0.0,0.0,0.0,0.0,0.0,0.0,0.0,0.0,0.0,0.0,0.0,0.0,0.0,0.0,0.0,0.0,0.0,0.0,0.0,0.8791,0.8791,0.8791,0.8791,0.8791,0.8791,0.8791,0.0,0.0,0.0,0.0,0.0,0.0,0.0,0.0,0.0,0.0,0.0,0.0,0.0,0.0,0.0,0.0,0.0,0.0,0.0,0.0,0.0,0.0,0.0,0.0,0.0,0.0,0.0,0.0,0.0,0.0,0.0,0.0,0.0,0.0,0.0,0.0,0.0,0.0,0.0,0.0,0.0,0.0,0.0,0.0,0.0,0.0,0.0,0.0,0.0,0.0,0.0,0.0,0.0,0.0,0.0,0.0,0.0,0.0,0.0,0.0,0.0,0.0,0.0,0.0,0.0,0.0,0.0,0.0,0.0,0.0,0.0,0.0,0.0,0.0,0.0,0.0,0.0,0.0,0.0,0.0,0.0,0.0,0.0,0.0,0.0,0.0,0.0,0.0,0.0,0.0,0.0,0.0,0.0,0.0,0.0,0.0,0.0,0.0,0.0,0.0,0.0,0.0,0.0,0.0,0.8791,0.8791,0.8791,0.8791,0.8791,0.8791,0.8791,0.8791,0.0,0.0,0.0,0.0,0.0,0.0,0.0,0.0,0.0,0.0,0.0,0.0,0.0,0.0,0.0,0.0,0.0,0.0,0.0,0.0,0.0,0.0,0.0,0.0,0.0,0.0,0.0,0.0,0.0,0.0,0.0,0.0,0.0,0.0,0.0,0.0,0.0,0.0,0.0,0.0,0.0,0.0,0.0,0.0,0.0,0.0,0.0,0.0,0.0,0.0,0.0,0.0,0.0,0.0,0.0,0.0,0.0,0.0,0.0,0.0,0.0,0.0,0.0,0.0,0.0,0.0,0.0,0.0,0.0,0.0,0.0,0.0,0.0,0.0,0.0,0.0,0.0,0.0,0.0,0.0,0.0,0.0,0.0,0.0,0.0,0.0,0.0,0.0,0.0,0.0,0.0,0.0,0.0,0.0,0.0,0.0,0.0,0.0,0.0,0.0,0.0,0.0,0.0,0.9285,0.9285,0.9285,0.9285,0.9285,0.9285,0.9285,0.9285,0.9285,0.9118,0.0,0.0,0.0,0.0,0.0,0.0,0.0,0.0,0.0,0.0,0.0,0.0,0.0,0.0,0.0,0.0,0.0,0.0,0.0,0.0,0.0,0.0,0.0,0.0,0.0,0.0,0.0,0.0,0.0,0.0,0.0,0.0,0.0,0.0,0.0,0.0,0.0,0.0,0.0,0.0,0.0,0.0,0.0,0.0,0.0,0.0,0.0,0.0,0.0,0.0,0.0,0.0,0.0,0.0,0.0,0.0,0.0,0.0,0.0,0.0,0.0,0.0,0.0,0.0,0.0,0.0,0.0,0.0,0.0,0.0,0.0,0.0,0.0,0.0,0.0,0.0,0.0,0.0,0.0,0.0,0.0,0.0,0.0,0.0,0.0,0.0,0.0,0.0,0.0,0.0,0.0,0.0,0.0,0.0,0.0,0.0,0.0,0.0,0.0,0.0,0.0,0.0,0.9701,0.9701,0.9701,0.9701,0.9701,0.9701,0.9701,0.9701,0.9701,0.9458,0.0,0.0,0.0,0.0,0.0,0.0,0.0,0.0,0.0,0.0,0.0,0.0,0.0,0.0,0.0,0.0,0.0,0.0,0.0,0.0,0.0,0.0,0.0,0.0,0.0,0.0,0.0,0.0,0.0,0.0,0.0,0.0,0.0,0.0,0.0,0.0,0.0,0.0,0.0,0.0,0.0,0.0,0.0,0.0,0.0,0.0,0.0,0.0,0.0,0.0,0.0,0.0,0.0,0.0,0.0,0.0,0.0,0.0,0.0,0.0,0.0,0.0,0.0,0.0,0.0,0.0,0.0,0.0,0.0,0.0,0.0,0.0,0.0,0.0,0.0,0.0,0.0,0.0,0.0,0.0,0.0,0.0,0.0,0.0,0.0,0.0,0.0,0.0,0.0,0.0,0.0,0.0,0.0,0.0,0.0,0.0,0.0,0.0,0.0,0.0,0.0,0.0,0.9701,0.9701,0.9701,0.9701,0.9701,0.9701,0.9701,0.9701,0.9701,0.9681,0.0,0.0,0.0,0.0,0.0,0.0,0.0,0.0,0.0,0.0,0.0,0.0,0.0,0.0,0.0,0.0,0.0,0.0,0.0,0.0,0.0,0.0,0.0,0.0,0.0,0.0,0.0,0.0,0.0,0.0,0.0,0.0,0.0,0.0,0.0,0.0,0.0,0.0,0.0,0.0,0.0,0.0,0.0,0.0,0.0,0.0,0.0,0.0,0.0,0.0,0.0,0.0,0.0,0.0,0.0,0.0,0.0,0.0,0.0,0.0,0.0,0.0,0.0,0.0,0.0,0.0,0.0,0.0,0.0,0.0,0.0,0.0,0.0,0.0,0.0,0.0,0.0,0.0,0.0,0.0,0.0,0.0,0.0,0.0,0.0,0.0,0.0,0.0,0.0,0.0,0.0,0.0,0.0,0.0,0.0,0.0,0.0,0.0,0.0,0.0,0.0,0.0,1.0265,1.0265,0.0,1.0265,1.0265,1.0265,1.0265,1.0265,1.0265,0.0,0.0,0.0,0.0,0.0,0.0,0.0,0.0,0.0,0.0,0.0,0.0,0.0,0.0,0.0,0.0,0.0,0.0,0.0,0.0,0.0,0.0,0.0,0.0,0.0,0.0,0.0,0.0,0.0,0.0,0.0,0.0,0.0,0.0,0.0,0.0,0.0,0.0,0.0,0.0,0.0,0.0,0.0,0.0,0.0,0.0,0.0,0.0,0.0,0.0,0.0,0.0,0.0,0.0,0.0,0.0,0.0,0.0,0.0,0.0,0.0,0.0,0.0,0.0,0.0,0.0,0.0,0.0,0.0,0.0,0.0,0.0,0.0,0.0,0.0,0.0,0.0,0.0,0.0,0.0,0.0,0.0,0.0,0.0,0.0,0.0,0.0,0.0,0.0,0.0,0.0,0.0,0.0,0.0,0.0,0.0,0.0,0.0,0.0,0.0,0.0,0.0,1.0566,1.0609,1.0609,0.0,1.0609,1.0609,1.0609,1.0609,1.0609,1.0609,0.0,0.0,0.0,0.0,0.0,0.0,0.0,0.0,0.0,0.0,0.0,0.0,0.0,0.0,0.0,0.0,0.0,0.0,0.0,0.0,0.0,0.0,0.0,0.0,0.0,0.0,0.0,0.0,0.0,0.0,0.0,0.0,0.0,0.0,0.0,0.0,0.0,0.0,0.0,0.0,0.0,0.0,0.0,0.0,0.0,0.0,0.0,0.0,0.0,0.0,0.0,0.0,0.0,0.0,0.0,0.0,0.0,0.0,0.0,0.0,0.0,0.0,0.0,0.0,0.0,0.0,0.0,0.0,0.0,0.0,0.0,0.0,0.0,0.0,0.0,0.0,0.0,0.0,0.0,0.0,0.0,0.0,0.0,0.0,0.0,0.0,0.0,0.0,0.0,0.0,0.0,0.0,0.0,0.0,0.0,0.0,0.0,0.0,0.0,0.0,0.0,0.0,1.0609,1.0609,1.0609,1.0609,1.0609,1.0609,1.0609,1.0609,1.0609,0.0,0.0,0.0,0.0,0.0,0.0,0.0,0.0,0.0,0.0,0.0,0.0,0.0,0.0,0.0,0.0,0.0,0.0,0.0,0.0,0.0,0.0,0.0,0.0,0.0,0.0,0.0,0.0,0.0,0.0,0.0,0.0,0.0,0.0,0.0,0.0,0.0,0.0,0.0,0.0,0.0,0.0,0.0,0.0,0.0,0.0,0.0,0.0,0.0,0.0,0.0,0.0,0.0,0.0,0.0,0.0,0.0,0.0,0.0,0.0,0.0,0.0,0.0,0.0,0.0,0.0,0.0,0.0,0.0,0.0,0.0,0.0,0.0,0.0,0.0,0.0,0.0,0.0,0.0,0.0,0.0,0.0,0.0,0.0,0.0,0.0,0.0,0.0,0.0,0.0,0.0,0.0,0.0,0.0,0.0,0.0,0.0,0.0,0.0,0.0,0.0,0.0,0.0,1.0609,1.0609,1.0609,1.0609,1.0609,1.0609,1.0609,1.0609,1.0609,1.0609,0.0,0.0,0.0,0.0,0.0,0.0,0.0,0.0,0.0,0.0,0.0,0.0,0.0,0.0,0.0,0.0,0.0,0.0,0.0,0.0,0.0,0.0,0.0,0.0,0.0,0.0,0.0,0.0,0.0,0.0,0.0,0.0,0.0,0.0,0.0,0.0,0.0,0.0,0.0,0.0,0.0,0.0,0.0,0.0,0.0,0.0,0.0,0.0,0.0,0.0,0.0,0.0,0.0,0.0,0.0,0.0,0.0,0.0,0.0,0.0,0.0,0.0,0.0,0.0,0.0,0.0,0.0,0.0,0.0,0.0,0.0,0.0,0.0,0.0,0.0,0.0,0.0,0.0,0.0,0.0,0.0,0.0,0.0,0.0,0.0,0.0,0.0,0.0,0.0,0.0,0.0,0.0,0.0,0.0,0.0,0.0,0.0,0.0,0.0,0.0,0.0,0.0,1.0609,1.0609,1.0609,1.0609,1.0609,1.0609,1.0609,1.0609,1.0609,1.0609,0.0,0.0,0.0,0.0,0.0,0.0,0.0,0.0,0.0,0.0,0.0,0.0,0.0,0.0,0.0,0.0,0.0,0.0,0.0,0.0,0.0,0.0,0.0,0.0,0.0,0.0,0.0,0.0,0.0,0.0,0.0,0.0,0.0,0.0,0.0,0.0,0.0,0.0,0.0,0.0,0.0,0.0,0.0,0.0,0.0,0.0,0.0,0.0,0.0,0.0,0.0,0.0,0.0,0.0,0.0,0.0,0.0,0.0,0.0,0.0,0.0,0.0,0.0,0.0,0.0,0.0,0.0,0.0,0.0,0.0,0.0,0.0,0.0,0.0,0.0,0.0,0.0,0.0,0.0,0.0,0.0,0.0,0.0,0.0,0.0,0.0,0.0,0.0,0.0,0.0,0.0,0.0,0.0,0.0,0.0,0.0,0.0,0.0,0.0,0.0,0.0,0.0,1.0667,1.0673,1.0673,1.0673,1.0673,1.066,1.0633,1.0633,1.0635,1.0609,0.0,0.0,0.0,0.0,0.0,0.0,0.0,0.0,0.0,0.0,0.0,0.0,0.0,0.0,0.0,0.0,0.0,0.0,0.0,0.0,0.0,0.0,0.0,0.0,0.0,0.0,0.0,0.0,0.0,0.0,0.0,0.0,0.0,0.0,0.0,0.0,0.0,0.0,0.0,0.0,0.0,0.0,0.0,0.0,0.0,0.0,0.0,0.0,0.0,0.0,0.0,0.0,0.0,0.0,0.0,0.0,0.0,0.0,0.0,0.0,0.9238,0.0,0.0,0.0,0.0,0.0,0.0,0.0,0.0,0.0,0.0,0.0,0.0,0.0,0.0,0.0,0.0,0.0,0.0,0.0,0.0,0.0,0.0,0.0,0.0,0.0,0.0,0.0,0.0,0.0,0.0,0.0,0.0,0.0,0.0,0.0,0.0,0.0,0.0,0.0,0.0,0.0,1.1192,1.1226,1.1226,1.1226,1.1226,1.1149,1.0938,1.0918,1.0818,1.0606,0.0,0.0,0.0,0.0,0.0,0.0,0.0,0.0,0.0,0.0,0.0,0.0,0.0,0.0,0.0,0.0,0.0,0.0,0.0,0.0,0.0,0.0,0.0,0.0,0.0,0.0,0.0,0.0,0.0,0.0,0.0,0.0,0.0,0.0,0.0,0.0,0.0,0.0,0.0,0.0,0.0,0.0,0.0,0.0,0.0,0.0,0.0,0.0,0.0,0.0,0.0,0.0,0.0,0.0,0.0,0.0,0.0,0.0,0.0,0.0,0.0,0.9438,0.0,0.0,0.0,0.0,0.0,0.0,0.0,0.0,0.0,0.0,0.0,0.0,0.0,0.0,0.0,0.0,0.0,0.0,0.0,0.0,0.0,0.0,0.0,0.0,0.0,0.0,0.0,0.0,0.0,0.0,0.0,0.0,0.0,0.0,0.0,0.0,0.0,0.0,0.0,0.0,1.1375,1.1406,1.1406,1.1406,1.1406,1.1346,1.1192,1.1186,1.1136,1.0982,1.0975,0.0,0.0,0.0,0.0,0.0,0.0,0.0,0.0,0.0,0.0,0.0,0.0,0.0,0.0,0.0,0.0,0.0,0.0,0.0,0.0,0.0,0.0,0.0,0.0,0.0,0.0,0.0,0.0,0.0,0.0,0.0,0.0,0.0,0.0,0.0,0.0,0.0,0.0,0.0,0.0,0.0,0.0,0.0,0.0,0.0,0.0,0.0,0.0,0.0,0.0,0.0,0.0,0.0,0.0,0.0,0.9928,0.9982,1.0002,1.0002,1.0002,0.9915,0.9781,0.0,0.0,0.0,0.0,0.0,0.0,0.0,0.0,0.0,0.0,0.0,0.0,0.0,0.0,0.0,0.0,0.0,0.0,0.0,0.0,0.0,0.0,0.0,0.0,0.0,1.1406,1.1359,0.0,0.0,0.0,0.0,0.0,0.0,0.0,0.0,0.0,0.0,0.0,0.0,1.157,1.1559,1.1559,1.1559,1.1559,1.1539,1.1493,1.1486,1.1466,1.1395,1.1406,1.1299,0.0,0.0,0.0,0.0,0.0,0.0,0.0,0.0,0.0,0.0,0.0,0.0,0.0,0.0,0.0,0.0,0.0,0.0,0.0,0.0,0.0,0.0,0.0,0.0,0.0,0.0,0.0,0.0,0.0,0.0,0.0,0.0,0.7074,0.6516,0.0,0.0,0.0,0.0,0.0,0.0,0.0,0.0,0.0,0.0,0.0,0.0,0.0,0.0,0.964,0.9681,0.9813,1.0045,1.0336,1.059,1.0845,1.1066,1.1179,1.1179,1.1179,0.0,1.0065,1.0356,0.0,0.0,0.0,0.0,0.0,0.0,0.0,0.0,0.0,0.0,0.0,0.0,0.0,0.0,0.0,0.0,0.0,0.0,0.0,0.0,0.0,0.0,1.1406,1.1406,1.1406,1.1466,0.0,1.155,1.1359,1.1382,0.0,0.0,0.0,0.0,0.0,0.0,0.0,0.0,1.226,1.2184,1.2184,1.2184,1.2184,1.2084,1.1848,1.1828,1.1714,1.1426,1.1406,1.1375,1.1352,1.1352,0.0,0.0,0.0,0.0,0.0,0.0,0.0,0.0,0.0,0.0,0.0,0.0,0.0,0.0,0.0,0.0,0.0,0.0,0.0,0.0,0.0,0.0,0.0,0.0,0.0,0.0,0.0,0.0,0.0,0.6974,0.7576,0.7262,0.787,0.8182,0.0,0.0,0.0,0.0,0.0,0.0,0.0,0.0,0.0,0.992,1.0102,1.0285,1.0437,1.0581,1.0705,1.0839,1.0982,1.1109,1.1226,1.1352,1.1406,1.1406,1.1406,1.1176,1.0846,1.0989,1.1049,1.1049,0.0,0.0,0.0,0.0,0.0,0.0,1.1049,0.0,0.0,0.0,0.0,0.0,0.0,0.0,0.0,0.0,0.0,0.0,0.0,0.0,0.0,1.2392,1.2406,1.2446,1.2592,1.2518,1.2313,0.0,1.2338,1.2685,1.2685,0.0,0.0,0.0,0.0,0.0,1.4549,1.4076,1.3641,1.3506,1.3417,1.303,1.221,1.2611,1.262,1.1942,1.1917,1.1844,1.1701,1.167,1.1597,0.0,0.0,0.0,0.0,0.0,0.0,0.0,0.0,0.0,0.0,0.0,0.0,0.0,0.0,0.0,0.0,0.0,0.0,0.0,0.0,0.0,0.0,0.0,0.0,0.0,0.0,0.0,0.0,0.7398,0.821,0.821,0.8699,0.9031,0.0,0.0,0.0,0.0,0.0,0.0,0.993,0.9995,1.0169,1.0425,1.0668,1.0938,1.1233,1.143,1.1617,1.1764,1.2038,1.2062,1.1877,1.2424,1.253,1.2272,1.2272,1.2424,1.2607,1.175,1.1406,1.1406,1.1406,1.1406,0.0,1.1493,1.1526,1.1533,1.1606,1.1633,1.1633,1.1633,0.0,1.1646,1.1726,0.0,0.0,0.0,0.0,1.2276,1.2478,0.0,1.2945,1.316,1.3193,1.3193,1.3193,1.3384,1.3359,0.0,1.3086,1.3656,1.3937,0.0,0.0,0.0,0.0,1.5219,1.6262,1.5695,1.5138,1.492,1.4822,1.4336,1.3289,1.3609,1.3525,1.2703,1.2427,1.2204,1.2009,1.2002,1.1895,1.1639,0.0,0.0,0.0,0.0,0.0,0.0,0.0,0.0,0.0,0.0,0.0,0.0,0.0,0.0,0.0,0.0,0.0,0.0,0.0,0.0,0.0,0.0,0.0,0.0,0.0,0.0,0.0,0.0,0.0,0.9596,0.9625,0.0,0.0,0.0,0.0,0.9674,0.9927,1.0214,1.0533,1.0791,1.1062,1.1332,1.1359,1.1523,1.1859,1.1873,1.2167,1.2736,1.376,1.3851,1.3179,1.5218,1.5591,1.4639,1.4639,1.5218,1.5893,1.2713,1.1406,1.1406,1.1406,1.1406,1.1439,1.1761,1.1862,1.1902,1.2164,1.2258,1.2258,1.2258,1.2258,1.2311,1.263,1.2736,0.0,0.0,1.3113,1.3146,1.316,1.3173,1.3173,1.3206,1.3193,1.3193,1.3193,1.3888,1.4258,0.0,1.3186,1.354,1.4575,0.0,0.0,1.6176,1.6214,1.6184,1.6371,1.6352,1.6306,1.6308,1.6289,1.6103,1.5655,1.4853,1.4148,1.3651,1.2787,1.2291,1.2278,1.2278,1.2271,1.2258,1.2002,0.0,0.0,0.0,0.0,0.0,0.0,0.0,0.0,0.0,0.0,0.0,0.0,0.0,0.0,0.0,0.0,0.0,0.0,0.0,0.0,0.0,0.0,0.0,0.0,0.0,0.0,0.0,0.0,0.9701,0.9701,0.0,0.0,1.0149,1.0358,1.0514,1.0795,1.0986,1.1109,1.1413,1.1708,1.1959,1.2196,1.2764,1.377,1.308,1.319,1.4072,1.3765,1.3491,1.3253,1.4705,1.5154,1.4833,1.553,1.6057,1.6311,1.5115,1.4209,1.3529,1.2828,1.2553,1.2566,1.2692,1.2732,1.2746,1.2852,1.2886,1.2886,1.2886,1.2886,1.2906,1.3013,1.3066,1.3086,1.318,1.3193,1.33,1.3681,1.3774,1.3874,1.427,1.4364,1.4364,1.4364,1.4629,1.475,1.4421,1.422,1.4025,1.3817,1.3738,1.4396,1.6425,1.6096,1.6204,1.7857,1.683,1.5875,1.5717,1.6233,1.6195,1.5247,1.6073,1.6184,1.5126,1.4163,1.3527,1.3208,1.2629,1.2305,1.2305,1.2204,1.2163,0.0,0.0,0.0,0.0,0.0,0.0,0.0,0.0,0.0,0.0,0.0,0.0,0.0,0.0,0.0,0.0,0.0,0.0,0.0,0.0,0.0,0.0,0.0,0.0,0.0,0.0,1.0142,1.0142,1.0229,1.0347,1.0525,1.0735,1.0992,1.1286,1.1557,1.1746,1.1864,1.2176,1.243,1.2605,1.2818,1.341,1.4385,1.4209,1.4501,1.531,1.5471,1.5369,1.5079,1.6529,1.6999,1.6672,1.737,1.7889,1.82,1.7457,1.6943,1.6465,1.4896,1.4284,1.4255,1.4108,1.4051,1.4019,1.3851,1.3801,1.3801,1.3801,1.3801,1.3801,1.3801,1.3801,1.3801,1.3801,1.3801,1.3895,1.4303,1.4404,1.4504,1.4892,1.5008,1.5008,1.5008,1.5008,1.5008,1.5008,1.485,1.4651,1.4399,1.4042,1.4743,1.7527,1.7021,1.7229,1.9659,1.8316,1.7247,1.7509,1.7588,1.7234,1.6289,1.7372,1.7326,1.5506,1.5069,1.4431,1.3446,1.3313,1.3127,1.2787,1.2769,1.2629,1.2305,0.0,0.0,0.0,0.0,0.0,0.0,0.0,0.0,0.0,0.0,0.0,0.0,0.0,0.0,0.0,0.0,0.0,0.0,0.0,0.0,0.0,0.0,0.0,1.0606,1.0831,1.0995,1.1002,1.1246,1.1426,1.1432,1.1446,1.1573,1.1926,1.2171,1.2477,1.2803,1.3079,1.3227,1.324,1.3247,1.3407,1.3756,1.5152,1.605,1.6445,1.8926,1.9561,1.8673,2.0859,2.1244,2.0205,2.0247,2.0882,2.173,1.9579,1.9315,2.0009,1.7466,1.6446,1.6357,1.5894,1.5705,1.5622,1.5147,1.5008,1.5008,1.5008,1.5008,1.5008,1.5008,1.5008,1.5008,1.5008,1.5008,1.4992,1.5022,1.4999,1.4999,1.5013,1.5013,1.5013,1.5013,1.5013,1.5013,1.5013,1.5013,1.5351,1.6382,1.5695,1.6109,1.9413,1.9008,0.0,2.1492,2.0715,2.0424,2.1668,2.0372,1.9317,1.9051,1.874,1.7499,1.4929,1.5437,1.4948,1.2988,1.4371,1.4732,1.3742,1.3716,1.3244,1.2305,0.0,0.0,0.0,0.0,0.0,0.0,0.0,0.0,0.0,0.0,0.0,0.0,0.0,0.0,0.0,0.0,0.0,0.0,0.0,0.0,0.0,0.0,1.0891,1.0891,1.0942,1.1069,1.1266,1.157,1.1848,1.2037,1.2276,1.2531,1.2819,1.2919,1.2999,1.3099,1.334,1.36,1.3841,1.4027,1.5085,1.7061,1.5872,1.6545,1.9121,1.8177,1.8032,1.8652,2.0045,2.0487,2.0247,2.1059,2.1617,2.1843,2.1233,2.1161,2.1197,1.8898,1.745,1.6674,1.6554,1.5944,1.517,1.5037,1.5008,1.5008,1.5008,1.5008,1.5008,1.5008,1.5008,1.5008,1.5008,1.5008,1.5033,1.5247,1.53,1.5331,1.5538,1.5591,1.5591,1.5591,1.5591,1.5591,1.5591,1.5591,1.5544,1.5473,1.5203,1.5591,1.728,0.0,0.0,1.9174,1.9144,1.9123,1.9473,1.979,1.9816,1.9469,2.0073,1.9884,0.0,1.7284,1.6198,1.5301,1.5036,1.4694,1.4215,1.3865,1.3244,0.0,0.0,0.0,0.0,0.0,0.0,0.0,0.0,0.0,0.0,0.0,0.0,0.0,0.0,0.0,0.0,0.0,0.0,0.0,0.0,0.0,0.0,1.1096,1.1263,1.1503,1.1543,1.1603,1.1753,1.2171,1.2517,1.2665,1.2858,1.3086,1.3347,1.3507,1.3627,1.3734,1.4497,1.4809,1.4492,1.5612,1.6452,1.6975,1.681,1.7726,1.9721,1.902,1.9315,2.0517,2.113,2.1409,0.0,2.2117,2.2412,2.2412,2.2412,2.2412,0.0,0.0,0.0,0.0,0.0,1.7465,1.6141,1.6141,1.5776,1.5354,1.5354,1.5354,1.5354,1.5354,1.5354,1.5354,1.5354,1.5354,1.5364,1.5531,1.5578,1.5618,1.5768,1.5808,1.5808,1.5808,1.5808,1.5808,1.5808,0.0,0.0,1.5384,1.5354,1.5723,1.6883,1.7124,1.7588,0.0,1.8493,1.8413,1.8927,1.9384,1.9591,1.9415,2.0681,0.0,0.0,0.0,1.7969,1.6867,1.5893,0.0,0.0,0.0,1.3839,0.0,0.0,0.0,0.0,1.2605,1.2685,0.0,0.0,0.0,0.0,0.0,0.0,0.0,0.0,0.0,0.0,0.0,0.0,0.0,0.0,0.0,0.0,1.1356,1.1713,1.2318,1.2432,1.2438,1.2405,1.2906,1.324,1.324,1.33,1.3447,1.368,1.4021,1.436,1.4745,0.0,0.0,0.0,0.0,1.7439,1.5327,1.787,1.9218,1.9359,2.0678,2.1933,2.3091,2.3091,2.3091,2.3091,2.3091,2.3091,2.3091,2.3091,2.3091,2.3023,2.2167,2.1741,2.1528,2.0683,1.9134,0.0,0.0,0.0,0.0,1.5808,1.5808,1.5808,1.5808,1.5808,1.5808,1.5808,1.5808,1.5808,1.5808,1.5808,1.5808,1.5808,1.5808,1.5808,1.5808,1.5808,1.5808,1.5808,1.5808,1.5808,1.5808,1.5808,1.618,1.7318,1.7622,0.0,1.9154,1.848,1.8319,1.9382,0.0,0.0,1.9049,2.0726,2.0757,1.8389,1.9648,1.9696,1.7928,1.6813,1.6267,1.6286,1.5169,1.4608,1.4627,1.3701,1.3253,1.3307,1.322,1.3227,0.0,0.0,0.0,0.0,0.0,0.0,0.0,0.0,0.0,0.0,0.0,0.0,0.0,0.0,0.0,1.1971,1.2091,1.2345,1.2946,1.322,1.3273,1.304,1.3327,1.352,1.352,1.3967,1.4267,1.4321,1.4651,1.5268,1.6301,1.5704,0.0,1.6749,1.7221,1.7387,1.7174,1.8682,1.9901,2.0887,0.0,0.0,2.3091,2.3091,2.3091,2.3091,2.3091,2.3091,2.3091,2.3091,2.3091,2.2984,2.1864,2.0811,1.9838,1.8698,1.7369,1.618,1.618,1.6015,1.5808,1.5808,1.5808,1.5808,1.5808,1.5808,0.0,1.5808,1.5808,1.5808,1.5808,1.5808,1.5808,1.5808,1.5808,1.5808,1.5808,1.5808,1.5808,1.5808,1.5808,1.5808,1.5808,1.5808,1.5872,1.6133,1.7037,1.7777,1.8025,1.868,1.9245,1.9474,1.943,1.9251,1.8888,2.0144,2.0543,1.9672,1.9725,1.948,1.8769,1.736,1.6646,1.6763,1.5331,1.4233,1.3516,1.3521,1.366,1.3901,1.3434,1.332,0.0,0.0,0.0,0.0,0.0,0.0,0.0,0.0,0.0,0.0,0.0,1.1192,0.0,0.0,1.1957,1.2251,1.2559,1.2893,1.3347,1.366,1.3734,1.3447,1.433,1.4706,1.4103,1.5024,1.5398,1.4809,1.5595,1.6093,1.6093,1.6823,1.7031,1.6524,1.7705,1.7835,1.6756,1.8588,1.9807,2.0418,2.1025,2.1933,2.3091,2.3091,2.3091,2.3091,2.3091,2.3091,2.3091,2.3091,2.3091,2.2982,2.1778,2.0935,2.0328,1.9716,1.8334,1.6763,1.6763,1.6339,1.5808,1.5808,1.5808,1.5808,1.5808,1.5808,1.5808,1.5808,1.5808,1.5808,1.5808,1.5808,1.5808,1.5808,1.5808,1.5808,1.5808,1.5808,1.5808,1.5808,1.5808,1.5808,1.5808,1.5808,1.5808,1.5808,1.6339,1.6763,1.6763,1.728,1.7638,1.7638,1.8218,1.8494,1.8276,1.917,1.9922,2.032,2.0006,1.9742,1.9614,1.8287,1.7577,1.7651,1.5772,1.4838,1.4894,1.4499,1.4382,1.4538,1.425,1.4168,0.0,0.0,0.0,0.0,0.0,0.0,0.0,0.0,1.1162,1.1432,1.1539,1.1593,1.1653,1.2118,1.2498,1.2533,1.2953,1.3393,1.3726,1.4021,1.4102,1.39,1.5156,1.567,1.469,1.5986,1.647,1.5502,1.6816,1.7213,1.6243,1.8072,1.8326,1.656,1.8241,1.8195,1.618,1.8372,1.9497,1.9511,2.0486,2.1712,2.3091,2.2862,2.2884,2.3091,2.3091,2.3091,2.3091,2.3091,2.296,2.2655,2.168,2.1025,2.0598,2.0598,1.9214,1.7318,1.7318,1.6669,1.5808,1.5808,1.5808,1.5808,1.5808,1.5808,1.5808,1.5808,1.5808,1.5808,1.5808,1.5808,1.5808,1.5808,1.5808,1.5808,1.5808,1.5808,1.5808,1.5808,1.5808,1.5808,1.5808,1.5808,1.5808,1.5808,1.5808,1.5808,1.5808,1.5808,1.5808,1.5808,1.6709,1.7435,1.7692,1.8245,1.9093,2.028,2.0216,2.0053,1.9825,1.8901,1.8286,1.8048,1.605,1.5442,1.6294,1.5413,1.5035,1.5073,1.5073,1.5039,0.5395,0.6597,0.8138,0.9351,1.0244,1.09,0.0,0.0,1.1446,1.1775,1.2024,1.2285,1.2589,1.2898,1.3173,1.3413,1.3507,1.3746,1.4321,1.4427,1.4556,1.4812,1.5026,1.5089,1.4961,1.6288,1.7101,1.6951,1.8388,1.918,1.9043,1.8326,1.8272,1.9054,1.8319,1.7777,1.7482,1.8841,1.9497,1.9497,1.9648,2.0877,2.3047,2.1987,2.2098,2.3091,2.3091,2.3091,2.3091,2.3091,2.247,2.148,2.1337,1.9988,1.8095,1.8095,1.7217,1.6015,1.6015,1.592,1.5808,1.5808,1.5808,1.5808,1.5808,1.5808,1.5808,1.5808,1.5808,1.5808,1.5808,1.5808,1.5808,1.5808,1.5808,1.5808,1.5808,1.5808,1.5808,1.5808,1.5808,1.5808,1.5808,1.5808,1.5808,1.5808,1.5808,1.5808,1.5808,1.5808,1.5808,1.5808,1.592,1.648,1.7598,1.7794,1.8186,1.9051,2.0062,1.9964,1.8467,1.8415,1.7897,1.6829,1.5613,1.5053,1.5181,1.5053,1.512,1.5351,1.5351,1.5233,0.6827,0.8054,0.9263,0.0,1.1114,1.1594,1.187,1.2071,1.2296,1.2604,1.2746,1.2872,1.3012,1.324,1.346,0.0,1.3886,1.4214,1.4467,1.4794,1.5077,1.5227,1.5364,1.569,1.6233,1.7644,1.8533,1.8533,1.9133,1.92,1.848,1.7979,1.7591,1.7343,1.6866,1.6598,1.6598,1.7839,1.8457,1.8457,1.9154,2.0404,2.2031,2.1525,2.1965,2.3091,2.3091,2.3091,2.3091,2.3091,2.2381,2.1226,2.0531,1.92,1.7692,1.7692,1.6897,1.5808,1.5808,1.5808,1.5808,1.5808,1.5808,1.5808,1.5808,1.5808,1.5808,1.5808,1.5808,1.5808,1.5808,1.5808,1.5808,1.5808,1.5808,1.5808,1.5808,1.5808,1.5808,1.5808,1.5808,1.5808,1.5808,1.5808,1.5808,1.5808,1.5808,1.5808,1.5808,1.5808,1.5808,1.5808,1.5808,1.6015,1.6551,1.6598,1.7043,1.8117,1.8671,1.896,1.8962,1.8343,1.7764,1.7243,1.6074,1.5471,1.5471,1.5471,1.5531,1.5628,1.5628,1.5561,0.801,0.0,0.0,1.1344,1.183,1.2102,1.2465,1.2738,1.2979,1.3267,1.3307,1.3333,1.3434,1.3607,1.3767,1.3833,1.4221,1.4554,1.4714,1.513,1.5424,1.5504,1.5681,1.6202,1.7234,1.8659,1.9497,1.9497,1.9807,1.9474,1.8257,1.787,1.7271,1.6339,1.5991,1.5967,1.6315,1.6897,1.7342,1.7715,1.8226,1.9306,2.0823,2.1159,2.1965,2.3069,2.2753,2.2611,2.2589,2.2249,2.14,2.0215,1.9337,1.8249,1.7178,1.7178,1.6598,1.5808,1.5808,1.5808,1.5808,1.5808,1.5808,1.5808,1.5808,1.5808,1.5808,1.5808,1.5808,1.5808,1.5808,1.5808,1.5808,1.5808,1.5808,1.5808,1.5808,1.5808,1.5808,1.5808,1.5808,1.5808,1.5808,1.5808,1.5808,1.5808,1.5808,1.5808,1.5808,1.5808,1.5808,1.5808,1.5808,1.5808,1.5808,1.5808,1.6197,1.7108,1.7505,1.7932,1.8465,1.7979,1.7528,1.7178,1.6268,1.5808,1.5808,1.5808,1.5808,1.5808,1.5808,1.5808,0.0,0.0,1.0441,1.1913,1.2285,1.2445,1.3046,1.3186,1.326,1.3533,1.3586,1.37,1.4008,1.4089,1.4168,1.4427,1.4487,1.4694,1.5291,1.5384,1.5504,1.5761,1.5801,1.6292,0.0,1.8787,1.9497,1.9497,2.0576,2.0733,1.9519,1.8342,1.7692,1.7638,1.6433,1.6386,1.7622,1.6457,1.648,1.7692,1.648,1.7179,1.9579,2.0778,2.1965,2.3025,2.1867,2.1337,2.127,2.0079,1.891,1.78,1.7761,1.699,1.5855,1.5855,1.5832,1.5808,1.5808,1.5808,1.5808,1.5808,1.5808,1.5808,1.5808,1.5808,1.5808,1.5808,1.5808,1.5808,1.5808,1.5808,1.5808,1.5808,1.5808,1.5808,1.5808,1.5808,1.5808,1.5808,1.5808,1.5808,1.5808,1.5808,1.5808,1.5808,1.5808,1.5808,1.5808,1.5808,1.5808,1.5808,1.5808,1.5808,1.5808,1.5808,1.5825,1.5855,1.7014,1.7154,1.5967,1.7061,1.7131,1.5879,1.5825,1.5808,1.5808,1.5808,1.5808,1.5808,1.5808,1.5808,0.9747,0.0,1.1734,1.2461,1.2899,1.3227,1.3413,1.3634,1.3821,1.3915,1.3941,1.3968,1.4089,1.4249,1.4381,1.4481,1.485,1.517,1.5364,1.5541,1.5695,1.5795,1.5808,0.0,0.0,0.0,0.0,1.9451,1.9131,1.8726,1.8326,1.7124,1.6433,1.6433,1.6015,1.6015,1.6433,1.6015,1.6015,1.6433,1.685,1.7498,1.8349,1.9557,2.0328,2.0697,2.0282,2.0102,2.0079,1.9679,1.8795,1.7692,1.7692,1.692,1.5808,1.5808,1.5808,1.5808,1.5808,1.5808,1.5808,1.5808,1.5808,1.5808,1.5808,1.5808,1.5808,1.5808,1.5808,1.5808,1.5808,1.5808,1.5808,1.5808,1.5808,1.5808,1.5808,1.5808,1.5808,1.5808,1.5985,1.6126,1.6126,1.6126,1.6059,1.5835,1.5808,1.5808,1.5808,1.5808,1.5808,1.5808,1.5808,1.5808,1.5808,1.5808,1.5808,1.5808,1.6197,1.6244,1.5825,1.6204,1.6251,1.5808,1.5808,1.5808,1.5808,1.5808,1.5808,1.5808,1.5808,1.5808,1.0256,1.1316,1.2577,1.2985,1.3353,1.3633,1.3754,1.3948,1.4109,1.4109,1.4109,1.4109,1.4109,1.4242,1.4436,1.4643,1.4997,1.5311,1.5524,1.5688,1.5808,1.5808,1.5808,0.0,0.0,0.0,0.0,1.8749,1.8141,1.7692,1.7692,1.648,1.5808,1.5808,1.5808,1.5808,1.5808,1.5808,1.5808,1.5808,1.6622,1.7248,1.7738,1.8503,1.9085,1.9474,1.9039,1.8864,1.8818,1.838,1.7716,1.7014,1.7014,1.6527,1.5808,1.5808,1.5808,1.5808,1.5808,1.5808,1.5808,1.5808,1.5808,1.5808,1.5808,1.5808,1.5808,1.5808,1.5808,1.5808,1.5808,1.5808,1.5808,1.5808,1.5888,1.5985,1.5985,1.6041,1.6122,1.6122,1.6299,1.6451,1.6451,1.6451,1.6359,1.6148,1.6122,1.6041,1.5828,1.5808,1.5808,1.5808,1.5808,1.5808,1.5808,1.5808,1.5808,1.5808,1.5808,1.5808,1.5808,1.5808,1.5808,1.5808,1.5808,1.5808,1.5808,1.5808,1.5808,1.5808,1.5808,1.5808,1.0071,1.1221,1.2965,1.348,1.3613,1.372,1.4021,1.4109,1.4109,1.4109,1.4109,1.4109,0.0,0.0,1.4317,1.4892,1.5022,1.5207,1.5728,1.5808,1.5808,0.0,0.0,0.0,0.0,0.0,0.0,1.7505,0.0,1.7598,1.7598,1.6457,1.5808,1.5808,1.5808,1.5808,1.5808,1.5808,1.5808,1.5808,1.5808,1.6433,1.7598,1.7598,1.8226,1.9245,1.8095,1.7598,1.7505,1.6292,1.5808,1.5808,1.5808,1.5808,1.5808,1.5808,1.5808,1.5808,1.5808,1.5808,1.5808,1.5808,1.5808,1.5808,1.5808,1.5808,1.5808,1.5808,1.5808,1.5808,1.5808,1.5815,1.5828,1.5828,1.6079,1.6293,1.6219,1.6464,1.6682,1.6607,1.667,1.6727,1.6727,1.6727,1.6727,1.6707,1.6707,1.6482,1.5921,1.5835,1.5828,1.5828,1.5815,1.5808,1.5808,1.5808,1.5808,1.5808,1.5808,1.5808,1.5808,1.5808,1.5808,1.5808,1.5808,1.5808,1.5808,1.5808,1.5808,1.5808,1.5808,1.5808,1.1803,1.2655,1.3433,1.3567,1.3787,1.3995,1.4089,1.4109,1.4109,1.4109,1.4109,1.4109,0.0,0.0,0.0,1.4926,1.5166,0.0,1.5755,1.5808,0.0,1.5808,0.0,1.5808,1.5808,1.5808,0.0,0.0,1.6268,1.6268,1.6268,1.5967,1.5808,1.5808,1.5808,1.5808,1.5808,1.5808,1.5808,1.5808,1.5808,1.5967,1.6268,1.6268,1.645,1.6725,1.6433,1.6268,1.6251,1.592,1.5808,1.5808,1.5808,1.5808,1.5808,1.5808,1.5808,1.5808,1.5808,1.5808,1.5808,1.5808,1.5808,1.5808,1.5808,1.5808,1.5808,1.5808,1.5808,1.5808,1.5808,1.5992,1.6159,1.6159,1.6386,1.6288,1.5188,1.5883,1.64,1.5349,1.6183,1.706,1.706,1.706,1.6986,1.674,1.6707,1.6653,1.65,1.6293,1.6159,1.6159,1.5941,1.5808,1.5808,1.5808,1.5808,1.5808,1.5808,1.5808,1.5808,1.5808,1.5808,1.5808,1.5808,1.5808,1.5808,1.5808,1.5808,1.5808,1.5808,1.5808,1.2073,1.2961,1.3633,1.3787,1.3968,1.4109,1.4109,1.4109,1.4109,1.4109,1.4109,0.0,0.0,0.0,0.0,0.0,0.0,0.0,1.5598,1.5728,1.5808,0.0,1.5808,0.0,1.5808,1.5808,1.5808,0.0,1.5808,1.5808,1.5808,1.5808,1.5808,1.5808,1.5808,1.5808,1.5808,1.5808,1.5808,1.5808,1.5808,1.5808,1.5808,1.5808,1.5808,1.5808,0.0,1.5808,1.5808,1.5808,1.5808,1.5808,1.5808,1.5808,1.5808,1.5808,1.5462,1.4973,1.4973,1.4585,1.4202,1.4782,1.4973,1.4854,1.4274,1.4082,1.4106,1.4189,1.4219,1.4224,1.4288,1.4454,1.4592,1.4592,1.4788,1.4767,1.3938,1.4519,1.4962,1.4177,1.5321,1.6404,1.6404,1.6964,1.7307,1.7114,1.7088,1.7088,1.7088,1.672,1.6491,1.6491,1.6313,1.6188,1.6188,1.6099,1.6025,1.6025,1.5881,1.5808,1.5808,1.5808,1.5808,1.5808,1.5808,1.5808,1.5808,1.5808,1.5808,1.5808,1.5808,1.5808,1.1784,1.2793,1.3747,1.4021,1.4109,1.4109,1.4109,1.4109,1.4109,1.4109,0.0,1.4109,1.4109,1.4109,1.4182,1.4454,0.0,1.5086,1.5357,1.5621,1.5808,1.5808,1.5808,1.5808,1.5808,1.5808,1.5808,1.5808,1.5808,1.5808,1.5808,1.5808,1.5808,1.5808,1.5808,1.5808,1.5808,1.5808,1.5808,1.5808,1.5808,1.5808,1.5808,1.5808,1.5808,1.5808,0.0,0.0,1.5808,1.5808,1.5706,1.5564,1.5564,1.5439,1.5272,1.5272,1.4585,1.3632,1.3632,1.2861,1.2091,1.3247,1.3632,1.3416,1.2261,1.1917,1.1977,1.2138,1.2214,1.2259,1.2373,1.2422,1.2442,1.2442,1.2658,1.2818,1.2606,1.2807,1.3075,1.3264,1.4288,1.5123,1.5123,1.634,1.7312,1.7312,1.747,1.7608,1.7608,1.7101,1.6767,1.6767,1.6727,1.6707,1.6707,1.6498,1.6337,1.6304,1.6032,1.5848,1.5808,1.5808,1.5808,1.5808,1.5808,1.5808,1.5808,1.5808,1.5808,1.5808,1.5808,1.5808,1.2738,1.3636,1.4021,1.4096,1.4109,1.4109,1.4109,1.4109,0.0,0.0,1.4109,1.4109,1.4109,1.4109,1.4182,1.4454,0.0,0.0,0.0,0.0,1.5808,0.0,0.0,0.0,0.0,0.0,0.0,0.0,0.0,0.0,1.5808,1.5808,1.5808,1.5808,1.5808,1.5808,1.5808,1.5808,1.5808,1.5808,1.5808,1.5808,1.5808,1.5808,1.5808,1.5808,0.0,0.0,1.5808,1.5808,1.517,1.4238,1.4238,1.3542,1.2576,1.2576,1.2431,1.2261,1.2261,1.2091,1.1945,1.2164,1.2261,1.2188,1.1969,1.2022,1.2168,1.2184,1.2279,1.2378,1.2392,1.2557,1.2718,1.2718,1.2967,1.2886,1.1652,1.1434,1.1837,1.3048,1.3507,1.3669,1.3669,1.485,1.5769,1.5769,1.6823,1.7608,1.7608,1.7314,1.71,1.71,1.6879,1.6707,1.6707,1.666,1.6526,1.631,1.625,1.6086,1.5815,1.5808,1.5808,1.5808,1.5808,1.5808,1.5808,1.5808,1.5808,1.5808,1.5808,1.5808,1.2166,1.3342,1.4109,1.4109,1.4109,1.4109,1.4109,0.0,0.0,0.0,1.4109,1.3906,1.3273,0.0,0.0,0.0,0.0,0.0,0.0,0.0,0.0,0.0,0.0,0.0,0.0,0.0,0.0,0.0,0.0,0.0,1.5808,1.5808,1.5808,1.5808,1.5808,1.5808,1.5808,1.5808,1.5808,1.5808,1.5808,1.5808,1.5808,1.5808,1.5808,1.5808,0.0,0.0,1.48,1.48,1.4052,1.2861,1.2861,1.2479,1.1896,1.1896,1.1482,1.0901,1.0901,1.046,0.9875,0.9875,1.0337,1.0797,1.0216,1.0083,1.0188,1.035,1.0414,1.0483,1.0551,1.0669,1.0758,1.0758,1.0879,1.0809,1.0104,0.9943,1.0159,1.0863,1.1619,1.2159,1.2159,1.3345,1.4556,1.5284,1.6015,1.6744,1.7503,1.7488,1.7401,1.7401,1.7274,1.7161,1.7161,1.7053,1.6906,1.679,1.6464,1.6237,1.6066,1.5888,1.5808,1.5808,1.5808,1.5808,1.5808,1.5808,1.5808,1.5778,1.5123,1.517,1.1427,1.2669,1.3658,1.3912,1.3941,1.3901,1.3901,1.3749,0.0,0.0,1.3554,1.3052,1.2345,0.0,1.1896,0.0,0.0,0.0,0.0,0.0,0.0,0.0,0.0,0.0,0.0,0.0,0.0,0.0,0.0,0.0,0.0,1.5808,1.5683,1.5408,1.5391,1.5272,1.498,1.4956,1.4956,1.4956,1.4956,1.4956,1.4956,1.4956,1.4956,1.4956,0.0,0.0,0.0,1.3464,1.2692,1.1487,1.1487,1.1312,1.1068,1.1068,1.0435,0.9583,0.9583,0.8874,0.7988,0.7988,0.8752,0.9473,0.8559,0.8342,0.844,0.8645,0.8733,0.876,0.8879,0.8912,0.8912,0.8912,0.8912,0.8912,0.8912,0.8912,0.8912,0.8912,0.9833,1.0621,1.0621,1.186,1.321,1.4309,1.4743,1.547,1.6929,1.712,1.7259,1.7582,1.7608,1.7608,1.7608,1.7401,1.7266,1.7206,1.6764,1.6458,1.6391,1.6139,1.5988,1.5988,1.5988,1.5988,1.5988,1.5988,1.5844,1.5525,1.483,1.4709,1.1385,1.1997,1.2202,1.3369,1.3467,1.3273,1.3273,0.0,0.0,1.3087,1.1834,1.0837,1.1775,1.1186,0.0,0.0,0.0,1.292,0.0,0.0,0.0,0.0,0.0,0.0,0.0,0.0,0.0,0.0,0.0,0.0,0.0,1.5808,1.5266,1.4118,1.407,1.3494,1.2261,1.2261,1.2261,1.2261,1.2261,1.2261,1.2261,1.2261,1.2261,1.2261,0.0,0.0,0.0,1.2091,1.1336,1.017,1.017,0.9435,0.8357,0.8357,0.8283,0.8187,0.8187,0.8113,0.7988,0.7988,0.8208,0.843,0.8342,0.8459,0.8676,0.8703,0.8784,0.8892,0.8906,0.8912,0.8912,0.8912,0.8912,0.8912,0.8912,0.8912,0.8912,0.8912,0.902,0.9099,0.9099,1.0323,1.1351,1.1487,1.2647,1.3992,1.5417,1.5604,1.6115,1.745,1.7608,1.7608,1.7608,1.7582,1.7454,1.7219,1.7152,1.6973,1.668,1.664,1.6627,1.6627,1.6627,1.6627,1.6627,1.6627,1.5964,1.474,1.5908,1.5093,0.9481,1.0708,1.1832,1.2323,1.2374,1.2293,1.2293,0.0,1.0913,1.1315,1.0767,1.0147,0.9991,0.9653,0.9427,0.0,0.0,0.0,0.0,0.0,0.0,0.0,0.0,0.0,0.0,0.0,0.0,0.0,0.0,0.0,0.0,1.3451,1.3229,1.2721,1.2692,1.2431,1.1901,1.1896,1.1896,1.1896,1.1896,1.1896,1.1896,1.1896,1.1896,1.1896,0.0,0.0,0.0,1.0754,0.9973,0.88,0.88,0.8482,0.7988,0.7988,0.7988,0.7988,0.7988,0.7988,0.7988,0.7988,0.8201,0.8423,0.8423,0.8543,0.873,0.8794,0.8865,0.8912,0.8912,0.8912,0.8912,0.8912,0.8912,0.8912,0.8912,0.8912,0.8912,0.8912,0.8912,0.8912,0.8912,0.9399,1.008,1.0973,1.1592,1.2512,1.3938,1.4153,1.4368,1.4963,1.6552,1.7608,1.7608,1.7608,1.7555,1.7441,1.73,1.7146,1.7006,1.68,1.6707,1.6707,1.5834,1.5393,1.5424,1.4546,1.3835,1.3273,1.3007,1.3186,0.81,0.9355,1.0714,1.1387,1.1273,1.1072,0.0,0.0,0.9567,0.9861,0.9468,0.8929,0.8569,0.828,0.8146,0.0,0.0,0.9327,1.0599,0.0,0.0,0.0,0.0,0.0,0.0,0.0,0.0,0.0,0.0,0.0,0.0,0.0,1.0925,1.1336,1.1341,1.1146,1.075,1.0754,1.0754,1.0754,1.0754,1.0754,1.0754,1.0754,1.0754,0.0,0.0,0.0,0.0,0.941,0.885,0.7988,0.7988,0.7988,0.7988,0.7988,0.7988,0.7988,0.7988,0.7988,0.7988,0.7988,0.8211,0.8454,0.8495,0.8621,0.8774,0.8882,0.8912,0.8912,0.8912,0.8912,0.8912,0.8912,0.8912,0.8912,0.8912,0.8912,0.8912,0.8912,0.8912,0.8912,0.8912,0.8912,0.9265,1.0296,1.0457,1.0973,1.2457,1.2647,1.2805,1.3237,1.5123,1.6333,1.6333,1.6333,1.6333,1.6333,1.6533,1.6665,1.6665,1.6446,1.6311,1.6311,1.4902,1.418,1.4206,1.3164,1.2434,1.1995,1.1497,1.2299,0.7853,0.8019,0.8387,1.0647,1.0256,0.9585,0.0,0.0,0.8112,0.9098,0.7733,0.6675,0.7802,0.7302,0.6773,0.6905,0.0,0.0,0.0,0.0,0.0,0.0,0.0,0.0,0.0,0.0,0.0,0.0,0.0,0.0,0.0,0.0,0.8651,0.9973,1.0022,0.9386,0.8063,0.8038,0.8038,0.8038,0.8038,0.8038,0.8038,0.8038,0.0,0.0,0.0,0.0,0.0,0.8013,0.8013,0.7988,0.7988,0.7988,0.7988,0.7988,0.7988,0.7988,0.7988,0.7988,0.7988,0.7988,0.8147,0.8325,0.8464,0.8696,0.8909,0.8912,0.8912,0.8912,0.8912,0.8912,0.8912,0.8912,0.8912,0.8912,0.8912,0.8912,0.8912,0.8912,0.8912,0.8912,0.8912,0.8912,0.8912,0.8909,0.8909,0.9454,1.0918,1.1133,1.1674,1.3129,1.3318,1.3345,1.3345,1.3345,1.3345,1.3345,1.4663,1.5411,1.5411,1.5411,1.5411,1.5411,1.4035,1.3313,1.3313,1.3313,1.2529,1.1156,1.2611,1.3286,0.6799,0.7351,0.7968,0.8698,0.8569,0.8351,0.8685,0.0,0.6872,0.7192,0.6737,0.6438,0.6898,0.6817,0.6753,0.6884,0.7327,0.0,0.0,0.0,0.0,0.0,0.0,0.0,0.0,0.0,0.0,0.0,0.0,0.0,0.0,0.0,0.8187,0.863,0.8627,0.8432,0.8013,0.7988,0.7988,0.7988,0.7988,0.7988,0.7988,0.7988,0.0,0.0,0.0,0.0,0.0,0.7008,0.6631,0.6531,0.5622,0.527,0.527,0.527,0.527,0.527,0.527,0.527,0.527,0.527,0.5362,0.5501,0.5559,0.7069,0.8777,0.8882,0.8912,0.8912,0.8912,0.8912,0.8912,0.8912,0.8912,0.8912,0.8912,0.8912,0.8912,0.8912,0.8912,0.8912,0.8912,0.8912,0.8912,0.8912,0.8912,0.9075,0.9537,0.9588,0.9781,1.0241,1.0296,1.1105,1.3134,1.3291,1.3291,1.3291,1.3723,1.3965,1.3965,1.3965,1.3965,1.3965,1.2539,1.181,1.1783,1.0781,1.0053,0.9644,1.1105,1.1269,0.0,0.6756,0.7326,0.7706,0.7518,0.0,0.0,0.7022,0.63,0.63,0.63,0.6344,0.6464,0.6617,0.6753,0.6884,0.7073,0.0,0.0,0.0,0.0,0.0,0.0,0.0,0.0,0.0,0.0,0.0,0.0,0.0,0.0,0.0,0.7008,0.6501,0.7484,0.7988,0.7988,0.7988,0.7739,0.7235,0.7235,0.698,0.6501,0.0,0.0,0.0,0.0,0.0,0.0,0.5597,0.5247,0.5172,0.4316,0.3991,0.3991,0.3991,0.3991,0.3991,0.3991,0.3991,0.3991,0.3991,0.4092,0.4212,0.419,0.5958,0.7976,0.806,0.8463,0.8912,0.8912,0.8912,0.8912,0.8912,0.8912,0.8912,0.8912,0.8912,0.8912,0.8912,0.8912,0.8912,0.8912,0.8912,0.8912,0.8912,0.8912,0.8912,0.8912,0.8912,0.8912,0.8912,0.8912,0.9644,1.1487,1.1647,1.1647,1.1647,1.2159,1.2457,1.2457,1.2457,1.2457,1.2457,1.1023,1.0268,1.0268,0.9348,0.8912,0.8909,0.9833,0.9781,0.0,0.63,0.0,0.0,0.0,0.0,0.0,0.0,0.0,0.63,0.63,0.6344,0.6464,0.6617,0.6753,0.6884,0.0,0.0,0.0,0.0,0.0,0.0,0.0,0.0,0.0,0.0,0.0,0.0,0.0,0.0,0.0,0.0,0.0,0.4041,0.6426,0.7711,0.7711,0.7711,0.7083,0.5854,0.5854,0.5197,0.3991,0.0,0.0,0.0,0.0,0.0,0.0,0.389,0.3865,0.384,0.3765,0.3715,0.3715,0.3715,0.3715,0.3715,0.3715,0.3715,0.3715,0.3715,0.3812,0.3904,0.3896,0.5149,0.6554,0.6669,0.7679,0.8771,0.8881,0.8912,0.8912,0.8912,0.8912,0.8912,0.8912,0.8912,0.8912,0.8912,0.8912,0.8912,0.8912,0.8912,0.8912,0.8912,0.8912,0.8912,0.8912,0.8912,0.8912,0.8912,0.8912,0.8912,0.8912,0.8912,0.8912,0.8912,1.0186,1.0945,1.0945,1.0945,1.0945,1.0945,0.9588,0.8912,0.8912,0.8912,0.8912,0.8912,0.8912,0.8912,0.63,0.0,0.6358,0.6586,0.647,0.6358,0.0,0.0,0.0,0.0,0.0,0.6344,0.6464,0.6617,0.6753,0.6884,0.0,0.0,0.0,0.0,0.0,0.0,0.0,0.0,0.0,0.0,0.0,0.0,0.0,0.0,0.0,0.0,0.0,0.4016,0.4616,0.4943,0.4943,0.4943,0.4793,0.4468,0.4468,0.4316,0.3991,0.0,0.0,0.0,0.0,0.0,0.0,0.2889,0.2464,0.2363,0.1335,0.0932,0.0932,0.0932,0.0932,0.0932,0.0932,0.0932,0.0932,0.0932,0.0961,0.0993,0.0986,0.2873,0.5247,0.639,0.6952,0.7485,0.8602,0.8912,0.8912,0.8912,0.8912,0.8912,0.8912,0.8912,0.8912,0.8912,0.8912,0.8912,0.8912,0.8912,0.8912,0.8912,0.8912,0.8912,0.8912,0.8912,0.8912,0.8912,0.8912,0.8912,0.8912,0.8912,0.8912,0.8912,0.9237,0.9427,0.9427,0.9427,0.9427,0.9427,0.9075,0.8912,0.8912,0.8912,0.8912,0.8912,0.8912,0.8912,0.63,0.63,0.63,0.63,0.63,0.63,0.63,0.0,0.0,0.0,0.0,0.6364,0.6556,0.6644,0.0,0.0,0.0,0.0,0.0,0.0,0.0,0.0,0.0,0.0,0.0,0.0,0.0,0.0,0.0,0.0,0.0,0.0,0.0,0.0,0.2163,0.2764,0.3991,0.3991,0.369,0.309,0.309,0.2764,0.2163,0.0,0.0,0.0,0.0,0.0,0.2113,0.1385,0.1084,0.1008,0.0278,0.0,0.0,0.0,0.0,0.0,0.0,0.0,0.0,0.0,0.0,0.0,0.0,0.1129,0.273,0.4224,0.5137,0.6031,0.7512,0.7903,0.8069,0.8743,0.8912,0.8912,0.8912,0.8912,0.8912,0.8912,0.8912,0.8912,0.8912,0.8912,0.8912,0.8912,0.8912,0.8912,0.8912,0.8912,0.8912,0.8912,0.8912,0.8912,0.8912,0.8912,0.8912,0.8912,0.8912,0.8912,0.8912,0.8912,0.8912,0.8912,0.8912,0.8912,0.8912,0.8912,0.8912,0.8912,0.8912,0.8912,0.63,0.63,0.63,0.63,0.63,0.63,0.63,0.0,0.0,0.0,0.0,0.0,0.0,0.6594,0.0,0.0,0.0,0.0,0.0,0.0,0.0,0.0,0.0,0.0,0.0,0.0,0.0,0.0,0.0,0.0,0.0,0.0,0.0,0.0,0.0,0.1084,0.3364,0.3391,0.2815,0.1686,0.1686,0.1109,0.0,0.0,0.0,0.0,0.0,0.0,0.0,0.0,0.0,0.0,0.0,0.0,0.0,0.0,0.0,0.0,0.0,0.0,0.0,0.0,0.0,0.0,0.0,0.0,0.0261,0.1505,0.2964,0.4484,0.5973,0.6533,0.7008,0.8266,0.8743,0.8912,0.8912,0.8912,0.8912,0.8912,0.8912,0.8912,0.8912,0.8912,0.8912,0.8912,0.8912,0.8912,0.8912,0.8912,0.8912,0.8912,0.8912,0.8912,0.8912,0.8912,0.8912,0.8912,0.8912,0.8912,0.8912,0.8912,0.8912,0.8912,0.8912,0.8912,0.8912,0.8912,0.8912,0.8912,0.8912,0.8912,0.63,0.63,0.63,0.63,0.63,0.63,0.63,0.0,0.0,0.0,0.0,0.0,0.0,0.0,0.0,0.0,0.0,0.0,0.0,0.0,0.0,0.0,0.0,0.0,0.0,0.0,0.0,0.0,0.0,0.0,0.0,0.0,0.0,0.0,0.0,0.0202,0.0605,0.0605,0.0504,0.0303,0.0303,0.0202,0.0,0.0,0.0,0.0,0.0,0.0,0.0,0.0,0.0,0.0,0.0,0.0,0.0,0.0,0.0,0.0,0.0,0.0,0.0,0.0,0.0,0.0,0.0,0.0,0.0052,0.0261,0.1417,0.2912,0.4425,0.5753,0.6755,0.698,0.7986,0.8912,0.8912,0.8912,0.8912,0.8912,0.8912,0.8912,0.8912,0.8912,0.8912,0.8912,0.8912,0.8912,0.8912,0.8912,0.8912,0.8912,0.8912,0.8912,0.8912,0.8912,0.8912,0.8912,0.8912,0.8912,0.8912,0.8912,0.8912,0.8912,0.8912,0.8912,0.8912,0.8912,0.8912,0.8912,0.8912,0.8912,0.5589,0.5867,0.6025,0.4863,0.5451,0.63,0.0,0.0,0.0,0.0,0.0,0.0,0.0,0.0,0.0,0.0,0.0,0.0,0.0,0.0,0.0,0.0,0.0,0.0,0.0,0.0,0.0,0.0,0.0,0.0,0.0,0.0,0.0,0.0,0.0,0.0,0.0,0.0,0.0,0.0,0.0,0.0,0.0,0.0,0.0,0.0,0.0,0.0,0.0,0.0,0.0,0.0,0.0,0.0,0.0,0.0,0.0,0.0,0.0,0.0,0.0,0.0,0.0,0.0,0.0,0.0,0.0,0.0,0.0476,0.1352,0.2857,0.375,0.4669,0.6324,0.7232,0.7931,0.8716,0.8912,0.8912,0.8912,0.8912,0.8912,0.8912,0.8912,0.8912,0.8912,0.8912,0.8912,0.8912,0.8912,0.8912,0.8912,0.8912,0.8912,0.8912,0.8912,0.8912,0.8912,0.8912,0.8912,0.8912,0.8912,0.8912,0.8912,0.8912,0.8912,0.8912,0.8912,0.8912,0.8912,0.8912,0.8912,0.4608,0.4924,0.5157,0.3513,0.4708,0.0,0.0,0.0,0.0,0.0,0.0,0.0,0.0,0.0,0.0,0.0,0.0,0.0,0.0,0.0,0.0,0.0,0.0,0.0,0.0,0.0,0.0,0.0,0.0,0.0,0.0,0.0,0.0,0.0,0.0,0.0,0.0,0.0,0.0,0.0,0.0,0.0,0.0,0.0,0.0,0.0,0.0,0.0,0.0,0.0,0.0,0.0,0.0,0.0,0.0,0.0,0.0,0.0,0.0,0.0,0.0,0.0,0.0,0.0,0.0,0.0,0.0,0.0,0.0,0.0265,0.1404,0.1932,0.2791,0.5094,0.6181,0.7008,0.8156,0.8657,0.8912,0.8912,0.8912,0.8912,0.8912,0.8912,0.8912,0.8912,0.8912,0.8912,0.8912,0.8912,0.8912,0.8912,0.8912,0.8912,0.8912,0.8912,0.8912,0.8912,0.8912,0.8912,0.8912,0.8912,0.8912,0.8912,0.8912,0.8912,0.8912,0.8912,0.8912,0.8912,0.8912,0.8912,0.3513,0.3279,0.3299,0.3143,0.4708,0.0,0.3787,0.41,0.0,0.3542,0.0,0.0,0.0,0.0,0.0,0.0,0.0,0.0,0.0,0.0,0.0,0.0,0.0,0.0,0.0,0.0,0.0,0.0,0.0,0.0,0.0,0.0,0.0,0.0,0.0,0.0,0.0,0.0,0.0,0.0,0.0,0.0,0.0,0.0,0.0,0.0,0.0,0.0,0.0,0.0,0.0,0.0,0.0,0.0,0.0,0.0,0.0,0.0,0.0,0.0,0.0,0.0,0.0,0.0,0.0,0.0,0.0,0.0,0.0,0.0026,0.0132,0.1161,0.2265,0.2459,0.4667,0.673,0.6841,0.7931,0.8912,0.8912,0.8912,0.8912,0.8912,0.8912,0.8912,0.8912,0.8912,0.8912,0.8912,0.8912,0.8912,0.8912,0.8912,0.8912,0.8912,0.8912,0.8912,0.8912,0.8912,0.8912,0.8912,0.8912,0.8912,0.8912,0.8912,0.8912,0.8912,0.8912,0.8912,0.8912,0.8912,0.8912,0.262,0.2618,0.2792,0.1488,0.2747,0.0,0.0,0.3412,0.3611,0.3289,0.27,0.0,0.0,0.0,0.0,0.0,0.0,0.0,0.0,0.0,0.0,0.0,0.0,0.0,0.0,0.0,0.0,0.0,0.0,0.0,0.0,0.0,0.0,0.0,0.0,0.0,0.0,0.0,0.0,0.0,0.0,0.0,0.0,0.0,0.0,0.0,0.0,0.0,0.0,0.0,0.0,0.0,0.0,0.0,0.0,0.0,0.0,0.0,0.0,0.0,0.0,0.0,0.0,0.0,0.0,0.0,0.0,0.0,0.0,0.0,0.0,0.0421,0.1064,0.1982,0.3806,0.5596,0.649,0.7845,0.8912,0.8912,0.8912,0.8912,0.8912,0.8912,0.8912,0.8912,0.8912,0.8912,0.8912,0.8912,0.8912,0.8912,0.8912,0.8912,0.8912,0.8912,0.8912,0.8912,0.8912,0.8912,0.8912,0.8912,0.8912,0.8912,0.8912,0.8912,0.8912,0.8912,0.8912,0.8912,0.8912,0.8912,0.1567,0.1605,0.178,0.0353,0.0,0.0,0.2126,0.2373,0.2565,0.2301,0.0,0.0,0.0,0.0,0.0,0.0,0.0,0.0,0.0,0.0,0.0,0.0,0.0,0.0,0.0,0.0,0.0,0.0,0.0,0.0,0.0,0.0,0.0,0.0,0.0,0.0,0.0,0.0,0.0,0.0,0.0,0.0,0.0,0.0,0.0,0.0,0.0,0.0,0.0,0.0,0.0,0.0,0.0,0.0,0.0,0.0,0.0,0.0,0.0,0.0,0.0,0.0,0.0,0.0,0.0,0.0,0.0,0.0,0.0,0.0,0.0,0.0,0.0261,0.1256,0.2678,0.4181,0.5691,0.7177,0.8349,0.8799,0.8912,0.8912,0.8912,0.8912,0.8912,0.8912,0.8912,0.8912,0.8912,0.8912,0.8912,0.8912,0.8912,0.8912,0.8912,0.8912,0.8912,0.8912,0.8912,0.8912,0.8912,0.8912,0.8912,0.8912,0.8912,0.8912,0.8912,0.8912,0.8912,0.8912,0.8912,0.8912,0.0294,0.0,0.0,0.0,0.0,0.0,0.0,0.0819,0.1288,0.0217,0.0,0.0,0.0,0.0,0.0,0.0,0.0,0.0,0.0,0.0,0.0,0.0,0.0,0.0,0.0,0.0,0.0,0.0,0.0,0.0,0.0,0.0,0.0,0.0,0.0,0.0,0.0,0.0,0.0,-0.0025,-0.0025,0.0,0.0,0.0,0.0,0.0,0.0,0.0,0.0,0.0,0.0,0.0,0.0,0.0,0.0,0.0,0.0,0.0,0.0,0.0,0.0,0.0,0.0,0.0,0.0,0.0,0.0,0.0,0.0,0.0,0.0,0.0,0.0,0.0,0.1118,0.2617,0.414,0.5655,0.7118,0.8602,0.8881,0.8912,0.8912,0.8912,0.8912,0.8912,0.8912,0.8912,0.8912,0.8912,0.8912,0.8912,0.8912,0.8912,0.8912,0.8912,0.8912,0.8912,0.8912,0.8912,0.8912,0.8912,0.8912,0.8912,0.8912,0.8912,0.8912,0.8912,0.8912,0.8912,0.8912,0.8912,0.0294,0.0,0.0,0.0,0.0,0.0,0.0,0.0237,0.0,0.0,0.0,0.0,0.0,0.0,0.0,0.0,0.0,0.0,0.0,0.0,0.0,0.0,0.0,0.0,0.0,0.0,0.0,0.0,0.0,0.0,0.0,0.0,0.0,0.0,0.0,0.0,0.0,0.0,-0.0479,-0.141,-0.141,-0.0907,0.0,0.0,0.0,0.0,0.0,0.0,0.0,0.0,0.0,0.0,0.0,0.0,0.0,0.0,0.0,0.0,0.0,0.0,0.0,0.0,0.0,0.0,0.0,0.0,0.0,0.0,0.0,0.0,0.0,0.0,0.0,0.0,0.1124,0.233,0.2794,0.4893,0.6827,0.7271,0.8183,0.8912,0.8912,0.8912,0.8912,0.8912,0.8912,0.8912,0.8912,0.8912,0.8912,0.8912,0.8912,0.8912,0.8912,0.8912,0.8912,0.8912,0.8912,0.8912,0.8912,0.8912,0.8912,0.8912,0.8912,0.8912,0.8912,0.8912,0.8912,0.8912,0.8912,0.8912,0.0177,0.0,0.0,0.0,0.0,0.0,0.0,0.0,0.0,0.0,0.0,0.0,0.0,0.0,0.0,0.0,0.0,0.0,0.0,0.0,0.0,0.0,0.0,0.0,0.0,0.0,0.0,0.0,0.0,0.0,0.0,0.0,0.0,0.0,0.0,0.0,0.0,0.0,0.0,-0.2013,-0.2539,-0.2363,-0.1561,-0.1033,-0.0807,-0.0756,-0.0227,0.0,0.0,0.0,0.0,0.0,0.0,0.0,0.0,0.0,0.0,0.0,0.0,0.0,0.0,0.0,0.0,0.0,0.0,0.0,0.0,0.0,0.0,0.0,0.0,0.0,0.0,0.0,0.0671,0.1485,0.2075,0.3622,0.5254,0.6476,0.7408,0.82,0.8788,0.8912,0.8912,0.8912,0.8912,0.8912,0.8912,0.8912,0.8912,0.8912,0.8912,0.8912,0.8912,0.8912,0.8912,0.8912,0.8912,0.8912,0.8912,0.8912,0.8912,0.8912,0.8912,0.8912,0.8912,0.8912,0.8912,0.8912,0.8912,0.8912,0.0,0.0,0.0,0.0,0.0,0.0,0.0,0.0,0.0,0.0,0.0,0.0,0.0,0.0,0.0,0.0,0.0,0.0,0.0,0.0,0.0,0.0,0.0,0.0,0.0,0.0,0.0,0.0,0.0,0.0,0.0,0.0,0.0,0.0,0.0,0.0,0.0,0.0,0.0,0.0,-0.3541,-0.4241,-0.4316,-0.284,-0.2188,-0.2113,-0.0631,-0.0076,-0.0177,-0.005,0.0,0.0,0.0,0.0,0.0,0.0,0.0,0.0,0.0,0.0,0.0,0.0,0.0,0.0,0.0,0.0,0.0,0.0,0.0,0.0,0.0,0.0,0.0,0.0,0.0,0.0363,0.1708,0.2097,0.301,0.5764,0.6489,0.71,0.8473,0.8806,0.8896,0.8909,0.8912,0.8912,0.8912,0.8912,0.8912,0.8912,0.8912,0.8912,0.8912,0.8912,0.8912,0.8912,0.8912,0.8912,0.8912,0.8912,0.8912,0.8912,0.8912,0.8912,0.8912,0.8912,0.8912,0.8912,0.8912,0.8912,0.0,0.0,0.0,0.0,0.0,0.0,0.0,0.0,0.0,0.0,0.0,0.0,0.0,0.0,0.0,0.0,0.0,0.0,0.0,0.0,0.0,0.0,0.0,0.0,0.0,0.0,0.0,0.0,0.0,0.0,0.0,0.0,0.0,0.0,0.0,0.0,0.0,-0.1335,-0.2539,0.0,-0.4922,-0.6126,-0.7055,-0.4668,-0.3565,-0.3441,-0.1033,-0.0605,-0.1486,-0.0429,0.0,0.0,0.0,0.0,0.0,0.0,0.0,0.0,0.0,0.0,0.0,0.0,0.0,0.0,0.0,0.0,0.0,0.0,0.0,0.0,0.0,0.0,0.0,0.0,0.0,0.0077,0.0414,0.1377,0.2381,0.3034,0.4987,0.6674,0.7094,0.8046,0.8774,0.8892,0.8912,0.8912,0.8912,0.8912,0.8912,0.8912,0.8912,0.8912,0.8912,0.8912,0.8912,0.8912,0.8912,0.8912,0.8912,0.8912,0.8912,0.8912,0.8912,0.8912,0.8912,0.8912,0.8912,0.8912,0.8912,0.8912,0.0,0.0,0.0,0.0,0.0,0.0,0.0,0.0,0.0,0.0,0.0,0.0,0.0,0.0,0.0,0.0,0.0,0.0,0.0,0.0,0.0,0.0,0.0,0.0,0.0,0.0,0.0,0.0,0.0,0.0,0.0,0.0,0.0,0.0,0.0,0.0,-0.0958,-0.2289,-0.3642,-0.497,-0.6329,-0.7335,-0.7939,-0.5899,-0.4268,-0.299,-0.2238,-0.1586,-0.1033,-0.0983,-0.058,0.0,0.0,0.0,0.0,0.0,0.0,0.0,0.0,0.0,0.0,0.0,0.0,0.0,0.0,0.0,0.0,0.0,0.0,0.0,0.0,0.0,0.0,0.0,0.0,0.0,0.0,0.0614,0.1362,0.2066,0.3407,0.4898,0.635,0.7767,0.8737,0.8791,0.8865,0.8912,0.8912,0.8912,0.8912,0.8912,0.8912,0.8912,0.8912,0.8912,0.8912,0.8912,0.8912,0.8912,0.8912,0.8211,0.7848,0.7848,0.7848,0.7512,0.6785,0.6785,0.6785,0.6785,0.6785,0.6785,0.0,0.0,0.0,0.0,0.0,0.0,0.0,0.0,0.0,0.0,0.0,0.0,0.0,0.0,0.0,0.0,0.0,0.0,0.0,0.0,0.0,0.0,0.0,0.0,0.0,0.0,0.0,0.0,0.0,0.0,0.0,0.0,0.0,0.0,0.0,-0.0656,-0.1988,-0.3341,-0.467,-0.6004,-0.736,-0.7988,-0.7963,-0.6855,-0.5125,-0.3066,-0.3715,-0.2865,-0.1084,-0.1737,-0.1335,-0.0328,-0.0101,0.0,0.0,0.0,0.0,0.0,0.0,0.0,0.0,0.0,0.0,0.0,0.0,0.0,0.0,0.0,0.0,0.0,0.0,0.0,0.0,0.0,0.0,0.0,0.0,0.0,0.0355,0.1593,0.2014,0.3116,0.5974,0.7496,0.8407,0.8652,0.8791,0.8882,0.8906,0.8912,0.8912,0.8912,0.8889,0.8872,0.8872,0.8848,0.8831,0.8831,0.8831,0.8845,0.8872,0.7699,0.682,0.6339,0.6311,0.5725,0.4498,0.4498,0.4498,0.4498,0.4498,0.4498,0.0,0.0,0.0,0.0,0.0,0.0,0.0,0.0,0.0,0.0,0.0,0.0,0.0,0.0,0.0,0.0,0.0,0.0,0.0,0.0,0.0,0.0,0.0,0.0,0.0,0.0,0.0,0.0,0.0,0.0,0.0,0.0,0.0,0.0,0.0,0.0,-0.1988,-0.3341,-0.467,-0.6004,-0.736,-0.7988,-0.7988,-0.7814,-0.7534,-0.7083,-0.4943,-0.4445,-0.5024,-0.2892,-0.1887,-0.1611,-0.0454,0.0,0.0,0.0,0.0,0.0,0.0,0.0,0.0,0.0,0.0,0.0,0.0,0.0,0.0,0.0,0.0,0.0,0.0,0.0,0.0,0.0,0.0,0.0,0.0,0.0,0.0051,0.0253,0.1332,0.3077,0.5847,0.6597,0.7219,0.8498,0.8726,0.8764,0.8892,0.8912,0.8912,0.8912,0.8791,0.874,0.874,0.8618,0.8543,0.8543,0.8543,0.8604,0.8733,0.8547,0.7286,0.483,0.4804,0.4693,0.4498,0.4498,0.4498,0.4498,0.4498,0.4498,0.0,0.0,0.0,0.0,0.0,0.0,0.0,0.0,0.0,0.0,0.0,0.0,0.0,0.0,0.0,0.0,0.0,0.0,0.0,0.0,0.0,0.0,0.0,0.0,0.0,0.0,0.0,0.0,0.0,0.0,0.0,0.0,0.0,0.0,0.0,0.0,-0.309,-0.3715,-0.5045,-0.7135,-0.7711,-0.7988,-0.7988,-0.7988,-0.7587,-0.6858,-0.6426,-0.5722,-0.4795,-0.3616,-0.269,-0.1938,-0.136,-0.1109,-0.1109,-0.1109,-0.1109,-0.1008,-0.0252,0.0,0.0,0.0,0.0,0.0,0.0,0.0,0.0,0.0,0.0,0.0,0.0,0.0,0.0,0.0,0.0,0.0,0.0,0.0,0.0,0.0,0.1142,0.2469,0.3686,0.5287,0.6644,0.7355,0.817,0.8737,0.8892,0.8912,0.8879,0.8791,0.8723,0.8676,0.8587,0.8546,0.8509,0.8509,0.8509,0.855,0.8703,0.7918,0.6528,0.4526,0.4498,0.3661,0.1986,0.1986,0.1986,0.1986,0.1986,0.1986,0.0,0.0,0.0,0.0,0.0,0.0,0.0,0.0,0.0,0.0,0.0,0.0,0.0,0.0,0.0,0.0,0.0,0.0,0.0,0.0,0.0,0.0,0.0,0.0,0.0,0.0,0.0,0.0,0.0,0.0,0.0,0.0,0.0,0.0,0.0,-0.1285,-0.3966,-0.4668,-0.6024,-0.7988,-0.7988,-0.7988,-0.7988,-0.7988,-0.7459,-0.6556,-0.7562,-0.6855,-0.4993,-0.4643,-0.3917,-0.2992,-0.2639,-0.2289,-0.1988,-0.1988,-0.1787,-0.136,-0.0353,0.0,0.0,0.0,0.0,0.0,0.0,0.0,0.0,0.0,0.0,0.0,0.0,0.0,0.0,0.0,0.0,0.0,0.0,0.0,0.0,0.0,0.0807,0.1611,0.1938,0.3785,0.5499,0.6366,0.7425,0.8312,0.883,0.8912,0.8852,0.8726,0.8676,0.8591,0.8468,0.8391,0.8367,0.8367,0.8367,0.8455,0.8645,0.7594,0.6226,0.4526,0.4498,0.3019,0.0,0.0,0.0,0.0,0.0,0.0,0.0,0.0,0.0,0.0,0.0,0.0,0.0,0.0,0.0,0.0,0.0,0.0,0.0,0.0,0.0,0.0,0.0,0.0,0.0,0.0,0.0,0.0,0.0,0.0,0.0,0.0,0.0,0.0,0.0,0.0,0.0,0.0,0.0,0.0,0.0,-0.1285,-0.3966,-0.6526,-0.7864,-0.7988,-0.7988,-0.7988,-0.7988,-0.7988,-0.7963,-0.7889,-0.7963,-0.7914,-0.7686,-0.6429,-0.5854,-0.5677,-0.4393,-0.3115,-0.1988,-0.1988,-0.1184,-0.0101,-0.0025,0.0,0.0,0.0,0.0,0.0,0.0,0.0,0.0,0.0,0.0,0.0,0.0,0.0,0.0,0.0,0.0,0.0,0.0,0.0,0.0,0.0,0.005,0.0504,0.1787,0.2115,0.3185,0.6063,0.6577,0.7173,0.8707,0.8912,0.8852,0.8726,0.8581,0.8461,0.8318,0.8147,0.8037,0.8037,0.8037,0.8165,0.8509,0.844,0.7175,0.4552,0.4498,0.3019,0.0,0.0,0.0,0.0,0.0,0.0,0.0,0.0,0.0,0.0,0.0,0.0,0.0,0.0,0.0,0.0,0.0,0.0,0.0,0.0,0.0,0.0,0.0,0.0,0.0,0.0,0.0,0.0,0.0,0.0,0.0,0.0,0.0,0.0,0.0,0.0,0.0,0.0,0.0,0.0,0.0,-0.1285,-0.3966,-0.6653,-0.7988,-0.7988,-0.7988,-0.7988,-0.7988,-0.7988,-0.7988,-0.7988,-0.7988,-0.7988,-0.7889,-0.6556,-0.6004,-0.5954,-0.5475,-0.4997,-0.4472,-0.3591,-0.299,-0.2314,-0.0605,0.0,0.0,0.0,0.0,0.0,0.0,0.0,0.0,0.0,0.0,0.0,0.0,0.0,0.0,0.0,0.0,0.0,0.0,0.0,0.0,0.0,0.0,0.0151,0.0631,0.1436,0.2725,0.4879,0.5939,0.7088,0.8703,0.8912,0.8814,0.8591,0.8543,0.8384,0.8143,0.8047,0.7988,0.7988,0.7988,0.8148,0.8495,0.8509,0.725,0.4552,0.4498,0.3019,0.0,0.0,0.0,0.0,0.0,0.0,0.0,0.0,0.0,0.0,0.0,0.0,0.0,0.0,0.0,0.0,0.0,0.0,0.0,0.0,0.0,0.0,0.0,0.0,0.0,0.0,0.0,0.0,0.0,0.0,0.0,0.0,0.0,0.0,0.0,0.0,0.0,0.0,0.0,0.0,-0.0882,-0.2188,-0.3991,-0.6653,-0.7988,-0.7988,-0.7988,-0.7988,-0.7988,-0.7988,-0.7988,-0.7988,-0.7988,-0.7988,-0.7939,-0.7033,-0.6681,-0.6681,-0.6681,-0.6406,-0.5827,-0.4493,-0.3991,-0.369,-0.1436,-0.0681,-0.0681,-0.0681,-0.0379,0.0,0.0,0.0,0.0,0.0,0.0,0.0,0.0,0.0,0.0,0.0,0.0,0.0,0.0,0.0,0.0,0.0,0.0,0.0,0.0,0.0731,0.2039,0.4169,0.525,0.6578,0.8648,0.8912,0.8794,0.8543,0.8509,0.836,0.804,0.7988,0.7988,0.7988,0.7988,0.8148,0.8495,0.8509,0.7464,0.5276,0.4751,0.3271,0.0728,0.0252,0.0,0.0,0.0,0.0,0.0,0.0,0.0,0.0,0.0,0.0,0.0,0.0,0.0,0.0,0.0,0.0,0.0,0.0,0.0,0.0,0.0,0.0,0.0,0.0,0.0,0.0,0.0,0.0,0.0,0.0,0.0,0.0,0.0,0.0,0.0,0.0,0.0,0.0,-0.2614,-0.3991,-0.3991,-0.6653,-0.7988,-0.7988,-0.7988,-0.7988,-0.7988,-0.7988,-0.7988,-0.7988,-0.7988,-0.7988,-0.7988,-0.7988,-0.7988,-0.7988,-0.7988,-0.721,-0.5902,-0.4518,-0.4016,-0.3865,-0.2489,-0.2038,-0.2063,-0.2013,-0.1109,-0.005,0.0,0.0,0.0,0.0,0.0,0.0,0.0,0.0,0.0,0.0,0.0,0.0,0.0,0.0,0.0,0.0,0.0,0.0,0.0,0.0025,0.1073,0.4065,0.4538,0.5616,0.8538,0.8912,0.8794,0.8546,0.8512,0.8364,0.8047,0.7992,0.7988,0.7988,0.7988,0.8148,0.8495,0.8456,0.7867,0.6669,0.5196,0.366,0.2124,0.07,0.0,0.0,0.0,0.0,0.0,0.0,0.0,0.0,0.0,0.0,0.0,0.0,0.0,0.0,0.0,0.0,0.0,0.0,0.0,0.0,0.0,0.0,0.0,0.0,0.0,0.0,0.0,0.0,0.0,0.0,0.0,0.0,0.0,0.0,0.0,0.0,0.0,0.0,-0.2614,-0.3991,-0.3991,-0.6653,-0.7988,-0.7988,-0.7988,-0.7988,-0.7988,-0.7988,-0.7988,-0.7988,-0.7988,-0.7988,-0.7988,-0.7988,-0.7988,-0.7988,-0.7988,-0.7761,-0.7157,-0.4843,-0.4618,-0.5122,-0.2791,-0.2639,-0.3291,-0.2314,-0.1737,-0.126,-0.0303,0.0,0.0,0.0,0.0,0.0,0.0,0.0,0.0,0.0,0.0,0.0,0.0,0.0,0.0,0.0,0.0,0.0,0.0,0.0893,0.2252,0.4204,0.5414,0.6783,0.8661,0.8912,0.8835,0.8669,0.855,0.8434,0.8221,0.8077,0.7988,0.7988,0.7988,0.8148,0.8495,0.7472,0.6331,0.5137,0.3603,0.2097,0.0616,0.0196,0.0,0.0,0.0,0.0,0.0,0.0,0.0,0.0,0.0,0.0,0.0,0.0,0.0,0.0,0.0,0.0,0.0,0.0,0.0,0.0,0.0,0.0,0.0,0.0,0.0,0.0,0.0,0.0,0.0,0.0,0.0,0.0,0.0,0.0,0.0,0.0,0.0,0.0,-0.2614,-0.3991,-0.3991,-0.6653,-0.7988,-0.7988,-0.7988,-0.7988,-0.7988,-0.7988,-0.7988,-0.7988,-0.7988,-0.7988,-0.7988,-0.7988,-0.7988,-0.7988,-0.7988,-0.7988,-0.7736,-0.5622,-0.5675,-0.6531,-0.4395,-0.3817,-0.3865,-0.309,-0.2088,-0.1008,-0.0227,0.0,0.0,0.0,0.0,0.0,0.0,0.0,0.0,0.0,0.0,0.0,0.0,0.0,0.0,0.0,0.0,0.0,0.0,0.1235,0.2713,0.4276,0.5759,0.7231,0.8696,0.8912,0.8852,0.8726,0.8632,0.8492,0.8315,0.8187,0.8084,0.7992,0.7988,0.8148,0.8495,0.7685,0.6655,0.5443,0.3939,0.2125,0.0,0.0,0.0,0.0,0.0,0.0,0.0,0.0,0.0,0.0,0.0,0.0,0.0,0.0,0.0,0.0,0.0,0.0,0.0,0.0,0.0,0.0,0.0,0.0,0.0,0.0,0.0,0.0,0.0,0.0,0.0,0.0,0.0,0.0,0.0,0.0,0.0,0.0,0.0,0.0,-0.2614,-0.3991,-0.3991,-0.6653,-0.7988,-0.7988,-0.7988,-0.7988,-0.7988,-0.7988,-0.7988,-0.7988,-0.7988,-0.7988,-0.7988,-0.7988,-0.7988,-0.7988,-0.7988,-0.7988,-0.7839,-0.6506,-0.6858,-0.7814,-0.6456,-0.5322,-0.4391,-0.4091,-0.2388,-0.0379,-0.0101,0.0,0.0,0.0,0.0,0.0,0.0,0.0,0.0,0.0,0.0,0.0,0.0,0.0,0.0051,0.0202,0.0101,0.0,0.0,0.1377,0.2919,0.4283,0.5891,0.7411,0.8727,0.8912,0.8858,0.8723,0.872,0.8604,0.8366,0.8328,0.8228,0.805,0.804,0.8165,0.8495,0.8348,0.768,0.6475,0.4832,0.2684,0.0,0.0,0.0,0.0,0.0,0.0,0.0,0.0,0.0,0.0,0.0,0.0,0.0,0.0,0.0,0.0,0.0,0.0,0.0,0.0,0.0,0.0,0.0,0.0,0.0,0.0,0.0,0.0,0.0,0.0,0.0,0.0,0.0,0.0,0.0,0.0,0.0,0.0,0.0,0.0,-0.2614,-0.3991,-0.3991,-0.6653,-0.7988,-0.7988,-0.7988,-0.7988,-0.7988,-0.7988,-0.7988,-0.7988,-0.7988,-0.7988,-0.7988,-0.7988,-0.7988,-0.7988,-0.7988,-0.7988,-0.7839,-0.6506,-0.6858,-0.7814,-0.6456,-0.6531,-0.6855,-0.4693,-0.3642,-0.2815,-0.0656,0.0,0.0,0.0,0.0,0.0,0.0,0.0,0.0,0.0,0.0,0.0,0.0,0.0,0.0355,0.1541,0.0799,0.0,0.0,0.2253,0.4162,0.4461,0.6775,0.8572,0.885,0.8912,0.8899,0.8869,0.8757,0.8686,0.8628,0.8513,0.8406,0.826,0.825,0.8328,0.8502,0.7363,0.617,0.4942,0.2266,0.0588,0.0,0.0,0.0,0.0,0.0,0.0,0.0,0.0,0.0,0.0,0.0,0.0,0.0,0.0,0.0,0.0,0.0,0.0,0.0,0.0,0.0,0.0,0.0,0.0,0.0,0.0,0.0,0.0,0.0,0.0,0.0,0.0,0.0,0.0,0.0,0.0,0.0,0.0,0.0,0.0,-0.2614,-0.3991,-0.3991,-0.6653,-0.7988,-0.7988,-0.7988,-0.7988,-0.7988,-0.7988,-0.7988,-0.7988,-0.7988,-0.7988,-0.7988,-0.7988,-0.7988,-0.7988,-0.7988,-0.7988,-0.7914,-0.7235,-0.7409,-0.7914,-0.7235,-0.7008,-0.6781,-0.5422,-0.4092,-0.2764,-0.141,-0.053,0.0,0.0,0.0,0.0,0.0,0.0,0.0,0.0,0.0,0.0,0.0,0.0,0.0431,0.1909,0.1591,0.1343,0.2123,0.4119,0.5596,0.5589,0.7469,0.8912,0.8912,0.8912,0.8912,0.8912,0.8841,0.8767,0.8716,0.8638,0.8533,0.841,0.8335,0.8396,0.8587,0.7827,0.6492,0.4552,0.2265,0.1091,0.1091,0.0364,0.0,0.0,0.0,0.0,0.0,0.0,0.0,0.0,0.0,0.0,0.0,0.0,0.0,0.0,0.0,0.0,0.0,0.0,0.0,0.0,0.0,0.0,0.0,0.0,0.0,0.0,0.0,0.0,0.0,0.0,0.0,0.0,0.0,0.0,0.0,0.0,0.0,0.0,-0.2614,-0.3991,-0.3991,-0.6653,-0.7988,-0.7988,-0.7988,-0.7988,-0.7988,-0.7988,-0.7988,-0.7988,-0.7988,-0.7988,-0.7988,-0.7988,-0.7988,-0.7988,-0.7988,-0.7988,-0.7988,-0.7988,-0.7988,-0.7988,-0.7988,-0.7285,-0.6331,-0.6079,-0.4372,-0.2289,-0.1762,-0.1033,-0.0328,-0.0076,0.0,0.0,0.0,0.0,0.0,0.0,0.0,0.0,0.0,0.0228,0.0867,0.2358,0.2874,0.3377,0.4348,0.5732,0.6704,0.6687,0.7959,0.8912,0.8912,0.8912,0.8912,0.8912,0.8912,0.8862,0.8737,0.8727,0.8689,0.8537,0.8444,0.8462,0.8699,0.8078,0.6702,0.4552,0.2989,0.2208,0.2208,0.1008,0.042,0.042,0.014,0.0,0.0,0.0,0.0,0.0,0.0,0.0,0.0,0.0,0.0,0.0,0.0,0.0,0.0,0.0,0.0,0.0,0.0,0.0,0.0,0.0,0.0,0.0,0.0,0.0,0.0,0.0,0.0,0.0,0.0,0.0,0.0,0.0,0.0,0.0,-0.2614,-0.3991,-0.3991,-0.6653,-0.7988,-0.7988,-0.7988,-0.7988,-0.7988,-0.7988,-0.7988,-0.7988,-0.7988,-0.7988,-0.7988,-0.7988,-0.7988,-0.7988,-0.7988,-0.7988,-0.7988,-0.7988,-0.7988,-0.7988,-0.7988,-0.7889,-0.7587,-0.6381,-0.4997,-0.3341,-0.0958,-0.0958,-0.1536,-0.0328,0.0,0.0,0.0,0.0,0.0,0.0,0.0,0.0,0.0,0.1021,0.2411,0.3929,0.5282,0.5838,0.4684,0.5735,0.6687,0.67,0.7959,0.8912,0.8912,0.8912,0.8912,0.8912,0.8912,0.8902,0.8885,0.8885,0.8821,0.8696,0.8669,0.8676,0.871,0.6284,0.4814,0.4498,0.2989,0.2208,0.2208,0.2041,0.1956,0.1929,0.0616,0.0,0.0,0.0,0.0,0.0,0.0,0.0,0.0,0.0,0.0,0.0,0.0,0.0,0.0,0.0,0.0,0.0,0.0,0.0,0.0,0.0,0.0,0.0,0.0,0.0,0.0,0.0,0.0,0.0,0.0,0.0,0.0,0.0,0.0,0.0,-0.1837,-0.3215,-0.3991,-0.5899,-0.7235,-0.7988,-0.7988,-0.7988,-0.7988,-0.7988,-0.7988,-0.7988,-0.7988,-0.7988,-0.7988,-0.7988,-0.7988,-0.7988,-0.7988,-0.7988,-0.7988,-0.7988,-0.7988,-0.7988,-0.7988,-0.7988,-0.7786,-0.6431,-0.5627,-0.467,-0.1963,-0.1561,-0.1711,-0.0379,0.0,0.0,0.0,0.0,0.0,0.0,0.0,0.0,0.0,0.049,0.1645,0.4047,0.5011,0.5762,0.6867,0.7561,0.7986,0.7986,0.8491,0.8912,0.8912,0.8912,0.8912,0.8912,0.8912,0.8912,0.8912,0.8912,0.8882,0.8821,0.8814,0.8777,0.8713,0.7636,0.6644,0.578,0.5137,0.4383,0.3521,0.2626,0.2208,0.2152,0.07,0.0,0.0,0.0,0.0,0.0,0.0,0.0,0.0,0.0,0.0,0.0,0.0,0.0,0.0,0.0,0.0,0.0,0.0,0.0,0.0,0.0,0.0,0.0,0.0,0.0,0.0,0.0,0.0,0.0,0.0,0.0,0.0,0.0,0.0,0.0,-0.131,-0.2639,-0.3991,-0.5322,-0.6681,-0.7988,-0.7988,-0.7988,-0.7988,-0.7988,-0.7988,-0.7988,-0.7988,-0.7988,-0.7988,-0.7988,-0.7988,-0.7988,-0.7988,-0.7988,-0.7988,-0.7988,-0.7988,-0.7988,-0.7988,-0.7988,-0.7786,-0.6431,-0.6257,-0.6052,-0.3366,-0.2815,-0.2741,-0.1033,-0.0555,-0.0454,-0.0101,0.0,0.0,0.0,0.0,0.0,0.0,0.0313,0.137,0.3981,0.4838,0.5918,0.8472,0.8912,0.8912,0.8912,0.8912,0.8912,0.8912,0.8912,0.8912,0.8912,0.8912,0.8912,0.8912,0.8912,0.8912,0.8912,0.8912,0.8862,0.875,0.8464,0.7789,0.673,0.6702,0.5977,0.4498,0.3381,0.2626,0.2152,0.07,0.0,0.0,0.0,0.0,0.0,0.0,0.0,0.0,0.0,0.0,0.0,0.0,0.0,0.0,0.0,0.0,0.0,0.0,0.0,0.0,0.0,0.0,0.0,0.0,0.0,0.0,0.0,0.0,0.0,0.0,0.0,0.0,0.0,0.0,0.0,-0.131,-0.2639,-0.3991,-0.5322,-0.6681,-0.7988,-0.7988,-0.7988,-0.7988,-0.7988,-0.7988,-0.7988,-0.7988,-0.7988,-0.7988,-0.7988,-0.7988,-0.7988,-0.7988,-0.7988,-0.7988,-0.7988,-0.7988,-0.7988,-0.7988,-0.7988,-0.7786,-0.6431,-0.6883,-0.7434,-0.4743,-0.4845,-0.5325,-0.2691,-0.1938,-0.1637,-0.0328,0.0,0.0,0.0,0.0,0.0,0.0,0.1129,0.2589,0.418,0.5657,0.7116,0.8629,0.8912,0.8912,0.8912,0.8912,0.8912,0.8912,0.8912,0.8912,0.8912,0.8912,0.8912,0.8912,0.8912,0.8912,0.8912,0.8912,0.8909,0.8902,0.7537,0.6758,0.6702,0.6702,0.5977,0.4498,0.4442,0.366,0.2152,0.07,0.0,0.0,0.0,0.0,0.0,0.0,0.0,0.0,0.0,0.0,0.0,0.0,0.0,0.0,0.0,0.0,0.0,0.0,0.0,0.0,0.0,0.0,0.0,0.0,0.0,0.0,0.0,0.0,0.0,0.0,0.0,0.0,0.0,-0.0398,-0.1284,-0.1762,-0.3066,-0.53,-0.5777,-0.6681,-0.7988,-0.7988,-0.7988,-0.7988,-0.7988,-0.7988,-0.7988,-0.7988,-0.7988,-0.7988,-0.7988,-0.7988,-0.7988,-0.7988,-0.7988,-0.7988,-0.7988,-0.7988,-0.7988,-0.7988,-0.7988,-0.7914,-0.7459,-0.7637,-0.7662,-0.5877,-0.5652,-0.545,-0.2765,-0.1988,-0.1686,-0.0353,0.0,0.0,0.0,0.0,0.0,0.0,0.0398,0.1181,0.27,0.3393,0.4521,0.7008,0.7454,0.7762,0.8743,0.8912,0.8912,0.8912,0.8912,0.8912,0.8912,0.8912,0.8912,0.8912,0.8912,0.8912,0.8912,0.8912,0.8912,0.8912,0.8432,0.8112,0.8019,0.8106,0.6885,0.4313,0.4446,0.3215,0.0728,0.0224,0.0,0.0,0.0,0.0,0.0,0.0,0.0,0.0,0.0,0.0,0.0,0.0,0.0,0.0,0.0,0.0,0.0,0.0,0.0,0.0,0.0,0.0,0.0,0.0,0.0,0.0,0.0,0.0,0.0,0.0,0.0,0.0,0.0,-0.0395,-0.1271,-0.1756,-0.3066,-0.5272,-0.5752,-0.6681,-0.7988,-0.7988,-0.7988,-0.7988,-0.7988,-0.7988,-0.7988,-0.7988,-0.7988,-0.7988,-0.7988,-0.7988,-0.7988,-0.7988,-0.7988,-0.7988,-0.7988,-0.7988,-0.7988,-0.7988,-0.7988,-0.7988,-0.7988,-0.7988,-0.7839,-0.6983,-0.6706,-0.6254,-0.4044,-0.3091,-0.2413,-0.1058,-0.0353,0.0,0.0,0.0,0.0,0.0,0.0,0.0434,0.1919,0.2208,0.2988,0.55,0.5919,0.6589,0.8602,0.8912,0.8912,0.8912,0.8912,0.8912,0.8912,0.8912,0.8912,0.8912,0.8912,0.8912,0.8912,0.8912,0.8912,0.8912,0.8912,0.8865,0.8767,0.8808,0.7342,0.4315,0.4364,0.289,0.0,0.0,0.0]},{"header":{"parameterUnit":"m.s-1","parameterCategory":1,"la1":30.6,"la2":29.2853,"lo1":-89.7004,"lo2":-87.6739,"dy":0.0162,"dx":0.0183,"nx":112,"ny":82,"refTime":"2023-10-14T00:00:00:Z","depth":0,"parameterNumber":3,"parameterNumberName":"V-component_of_WINDS"},"data":[0.0,0.0,0.0,0.0,0.0,0.0,0.0,0.0,0.0,0.0,0.0,0.0,0.0,0.0,0.0,0.0,0.0,0.0,0.0,0.0,0.0,0.0,0.0,0.0,0.0,0.0,0.0,0.0,0.0,0.0,0.0,0.0,0.0,0.0,0.0,0.0,0.0,0.0,0.0,0.0,0.0,0.0,0.0,0.0,0.0,0.0,0.0,0.0,0.0,0.0,0.0,0.0,0.0,0.0,0.0,0.0,0.0,0.0,0.0,0.0,0.0,0.0,0.0,0.0,0.0,0.0,0.0,0.0,0.0,0.0,0.0,0.0,0.0,0.0,0.0,0.0,0.0,0.0,0.0,0.0,0.0,0.0,0.0,0.0,0.0,0.0,0.0,0.0,0.0,0.0,0.0,2.4194,2.4194,2.4194,2.4194,2.4194,2.4194,2.4194,0.0,0.0,0.0,0.0,0.0,0.0,0.0,0.0,0.0,0.0,0.0,0.0,0.0,0.0,0.0,0.0,0.0,0.0,0.0,0.0,0.0,0.0,0.0,0.0,0.0,0.0,0.0,0.0,0.0,0.0,0.0,0.0,0.0,0.0,0.0,0.0,0.0,0.0,0.0,0.0,0.0,0.0,0.0,0.0,0.0,0.0,0.0,0.0,0.0,0.0,0.0,0.0,0.0,0.0,0.0,0.0,0.0,0.0,0.0,0.0,0.0,0.0,0.0,0.0,0.0,0.0,0.0,0.0,0.0,0.0,0.0,0.0,0.0,0.0,0.0,0.0,0.0,0.0,0.0,0.0,0.0,0.0,0.0,0.0,0.0,0.0,0.0,0.0,0.0,0.0,0.0,0.0,0.0,0.0,0.0,0.0,0.0,0.0,0.0,0.0,0.0,0.0,0.0,0.0,2.4194,2.4194,2.4194,2.4194,2.4194,2.4194,2.4194,2.4194,0.0,0.0,0.0,0.0,0.0,0.0,0.0,0.0,0.0,0.0,0.0,0.0,0.0,0.0,0.0,0.0,0.0,0.0,0.0,0.0,0.0,0.0,0.0,0.0,0.0,0.0,0.0,0.0,0.0,0.0,0.0,0.0,0.0,0.0,0.0,0.0,0.0,0.0,0.0,0.0,0.0,0.0,0.0,0.0,0.0,0.0,0.0,0.0,0.0,0.0,0.0,0.0,0.0,0.0,0.0,0.0,0.0,0.0,0.0,0.0,0.0,0.0,0.0,0.0,0.0,0.0,0.0,0.0,0.0,0.0,0.0,0.0,0.0,0.0,0.0,0.0,0.0,0.0,0.0,0.0,0.0,0.0,0.0,0.0,0.0,0.0,0.0,0.0,0.0,0.0,0.0,0.0,0.0,0.0,0.0,0.0,0.0,0.0,0.0,0.0,0.0,0.0,0.0,2.5511,2.5511,2.5511,2.5511,2.5511,2.5511,2.5511,2.5511,2.5511,2.5094,0.0,0.0,0.0,0.0,0.0,0.0,0.0,0.0,0.0,0.0,0.0,0.0,0.0,0.0,0.0,0.0,0.0,0.0,0.0,0.0,0.0,0.0,0.0,0.0,0.0,0.0,0.0,0.0,0.0,0.0,0.0,0.0,0.0,0.0,0.0,0.0,0.0,0.0,0.0,0.0,0.0,0.0,0.0,0.0,0.0,0.0,0.0,0.0,0.0,0.0,0.0,0.0,0.0,0.0,0.0,0.0,0.0,0.0,0.0,0.0,0.0,0.0,0.0,0.0,0.0,0.0,0.0,0.0,0.0,0.0,0.0,0.0,0.0,0.0,0.0,0.0,0.0,0.0,0.0,0.0,0.0,0.0,0.0,0.0,0.0,0.0,0.0,0.0,0.0,0.0,0.0,0.0,0.0,0.0,0.0,0.0,0.0,0.0,0.0,0.0,0.0,0.0,2.6607,2.6607,2.6607,2.6607,2.6607,2.6607,2.6607,2.6607,2.6607,2.603,0.0,0.0,0.0,0.0,0.0,0.0,0.0,0.0,0.0,0.0,0.0,0.0,0.0,0.0,0.0,0.0,0.0,0.0,0.0,0.0,0.0,0.0,0.0,0.0,0.0,0.0,0.0,0.0,0.0,0.0,0.0,0.0,0.0,0.0,0.0,0.0,0.0,0.0,0.0,0.0,0.0,0.0,0.0,0.0,0.0,0.0,0.0,0.0,0.0,0.0,0.0,0.0,0.0,0.0,0.0,0.0,0.0,0.0,0.0,0.0,0.0,0.0,0.0,0.0,0.0,0.0,0.0,0.0,0.0,0.0,0.0,0.0,0.0,0.0,0.0,0.0,0.0,0.0,0.0,0.0,0.0,0.0,0.0,0.0,0.0,0.0,0.0,0.0,0.0,0.0,0.0,0.0,0.0,0.0,0.0,0.0,0.0,0.0,0.0,0.0,0.0,0.0,2.6607,2.6607,2.6607,2.6607,2.6607,2.6607,2.6607,2.6607,2.6607,2.6552,0.0,0.0,0.0,0.0,0.0,0.0,0.0,0.0,0.0,0.0,0.0,0.0,0.0,0.0,0.0,0.0,0.0,0.0,0.0,0.0,0.0,0.0,0.0,0.0,0.0,0.0,0.0,0.0,0.0,0.0,0.0,0.0,0.0,0.0,0.0,0.0,0.0,0.0,0.0,0.0,0.0,0.0,0.0,0.0,0.0,0.0,0.0,0.0,0.0,0.0,0.0,0.0,0.0,0.0,0.0,0.0,0.0,0.0,0.0,0.0,0.0,0.0,0.0,0.0,0.0,0.0,0.0,0.0,0.0,0.0,0.0,0.0,0.0,0.0,0.0,0.0,0.0,0.0,0.0,0.0,0.0,0.0,0.0,0.0,0.0,0.0,0.0,0.0,0.0,0.0,0.0,0.0,0.0,0.0,0.0,0.0,0.0,0.0,0.0,0.0,0.0,0.0,2.8106,2.8106,0.0,2.8106,2.8106,2.8106,2.8106,2.8106,2.8106,0.0,0.0,0.0,0.0,0.0,0.0,0.0,0.0,0.0,0.0,0.0,0.0,0.0,0.0,0.0,0.0,0.0,0.0,0.0,0.0,0.0,0.0,0.0,0.0,0.0,0.0,0.0,0.0,0.0,0.0,0.0,0.0,0.0,0.0,0.0,0.0,0.0,0.0,0.0,0.0,0.0,0.0,0.0,0.0,0.0,0.0,0.0,0.0,0.0,0.0,0.0,0.0,0.0,0.0,0.0,0.0,0.0,0.0,0.0,0.0,0.0,0.0,0.0,0.0,0.0,0.0,0.0,0.0,0.0,0.0,0.0,0.0,0.0,0.0,0.0,0.0,0.0,0.0,0.0,0.0,0.0,0.0,0.0,0.0,0.0,0.0,0.0,0.0,0.0,0.0,0.0,0.0,0.0,0.0,0.0,0.0,0.0,0.0,0.0,0.0,0.0,0.0,2.8932,2.8999,2.8999,0.0,2.8999,2.8999,2.8999,2.8999,2.8999,2.8999,0.0,0.0,0.0,0.0,0.0,0.0,0.0,0.0,0.0,0.0,0.0,0.0,0.0,0.0,0.0,0.0,0.0,0.0,0.0,0.0,0.0,0.0,0.0,0.0,0.0,0.0,0.0,0.0,0.0,0.0,0.0,0.0,0.0,0.0,0.0,0.0,0.0,0.0,0.0,0.0,0.0,0.0,0.0,0.0,0.0,0.0,0.0,0.0,0.0,0.0,0.0,0.0,0.0,0.0,0.0,0.0,0.0,0.0,0.0,0.0,0.0,0.0,0.0,0.0,0.0,0.0,0.0,0.0,0.0,0.0,0.0,0.0,0.0,0.0,0.0,0.0,0.0,0.0,0.0,0.0,0.0,0.0,0.0,0.0,0.0,0.0,0.0,0.0,0.0,0.0,0.0,0.0,0.0,0.0,0.0,0.0,0.0,0.0,0.0,0.0,0.0,0.0,2.8999,2.8999,2.8999,2.8999,2.8999,2.8999,2.8999,2.8999,2.8999,0.0,0.0,0.0,0.0,0.0,0.0,0.0,0.0,0.0,0.0,0.0,0.0,0.0,0.0,0.0,0.0,0.0,0.0,0.0,0.0,0.0,0.0,0.0,0.0,0.0,0.0,0.0,0.0,0.0,0.0,0.0,0.0,0.0,0.0,0.0,0.0,0.0,0.0,0.0,0.0,0.0,0.0,0.0,0.0,0.0,0.0,0.0,0.0,0.0,0.0,0.0,0.0,0.0,0.0,0.0,0.0,0.0,0.0,0.0,0.0,0.0,0.0,0.0,0.0,0.0,0.0,0.0,0.0,0.0,0.0,0.0,0.0,0.0,0.0,0.0,0.0,0.0,0.0,0.0,0.0,0.0,0.0,0.0,0.0,0.0,0.0,0.0,0.0,0.0,0.0,0.0,0.0,0.0,0.0,0.0,0.0,0.0,0.0,0.0,0.0,0.0,0.0,0.0,2.8999,2.8999,2.8999,2.8999,2.8999,2.8999,2.8999,2.8999,2.8999,2.8999,0.0,0.0,0.0,0.0,0.0,0.0,0.0,0.0,0.0,0.0,0.0,0.0,0.0,0.0,0.0,0.0,0.0,0.0,0.0,0.0,0.0,0.0,0.0,0.0,0.0,0.0,0.0,0.0,0.0,0.0,0.0,0.0,0.0,0.0,0.0,0.0,0.0,0.0,0.0,0.0,0.0,0.0,0.0,0.0,0.0,0.0,0.0,0.0,0.0,0.0,0.0,0.0,0.0,0.0,0.0,0.0,0.0,0.0,0.0,0.0,0.0,0.0,0.0,0.0,0.0,0.0,0.0,0.0,0.0,0.0,0.0,0.0,0.0,0.0,0.0,0.0,0.0,0.0,0.0,0.0,0.0,0.0,0.0,0.0,0.0,0.0,0.0,0.0,0.0,0.0,0.0,0.0,0.0,0.0,0.0,0.0,0.0,0.0,0.0,0.0,0.0,0.0,2.8999,2.8999,2.8999,2.8999,2.8999,2.8999,2.8999,2.8999,2.8999,2.8999,0.0,0.0,0.0,0.0,0.0,0.0,0.0,0.0,0.0,0.0,0.0,0.0,0.0,0.0,0.0,0.0,0.0,0.0,0.0,0.0,0.0,0.0,0.0,0.0,0.0,0.0,0.0,0.0,0.0,0.0,0.0,0.0,0.0,0.0,0.0,0.0,0.0,0.0,0.0,0.0,0.0,0.0,0.0,0.0,0.0,0.0,0.0,0.0,0.0,0.0,0.0,0.0,0.0,0.0,0.0,0.0,0.0,0.0,0.0,0.0,0.0,0.0,0.0,0.0,0.0,0.0,0.0,0.0,0.0,0.0,0.0,0.0,0.0,0.0,0.0,0.0,0.0,0.0,0.0,0.0,0.0,0.0,0.0,0.0,0.0,0.0,0.0,0.0,0.0,0.0,0.0,0.0,0.0,0.0,0.0,0.0,0.0,0.0,0.0,0.0,0.0,0.0,2.9207,2.9225,2.9225,2.9225,2.9225,2.9189,2.9115,2.9115,2.9073,2.8999,0.0,0.0,0.0,0.0,0.0,0.0,0.0,0.0,0.0,0.0,0.0,0.0,0.0,0.0,0.0,0.0,0.0,0.0,0.0,0.0,0.0,0.0,0.0,0.0,0.0,0.0,0.0,0.0,0.0,0.0,0.0,0.0,0.0,0.0,0.0,0.0,0.0,0.0,0.0,0.0,0.0,0.0,0.0,0.0,0.0,0.0,0.0,0.0,0.0,0.0,0.0,0.0,0.0,0.0,0.0,0.0,0.0,0.0,0.0,0.0,2.5424,0.0,0.0,0.0,0.0,0.0,0.0,0.0,0.0,0.0,0.0,0.0,0.0,0.0,0.0,0.0,0.0,0.0,0.0,0.0,0.0,0.0,0.0,0.0,0.0,0.0,0.0,0.0,0.0,0.0,0.0,0.0,0.0,0.0,0.0,0.0,0.0,0.0,0.0,0.0,0.0,0.0,3.0803,3.0895,3.0895,3.0895,3.0895,3.0632,3.0002,2.9947,2.9671,2.9042,0.0,0.0,0.0,0.0,0.0,0.0,0.0,0.0,0.0,0.0,0.0,0.0,0.0,0.0,0.0,0.0,0.0,0.0,0.0,0.0,0.0,0.0,0.0,0.0,0.0,0.0,0.0,0.0,0.0,0.0,0.0,0.0,0.0,0.0,0.0,0.0,0.0,0.0,0.0,0.0,0.0,0.0,0.0,0.0,0.0,0.0,0.0,0.0,0.0,0.0,0.0,0.0,0.0,0.0,0.0,0.0,0.0,0.0,0.0,0.0,0.0,2.5975,0.0,0.0,0.0,0.0,0.0,0.0,0.0,0.0,0.0,0.0,0.0,0.0,0.0,0.0,0.0,0.0,0.0,0.0,0.0,0.0,0.0,0.0,0.0,0.0,0.0,0.0,0.0,0.0,0.0,0.0,0.0,0.0,0.0,0.0,0.0,0.0,0.0,0.0,0.0,0.0,3.136,3.139,3.139,3.139,3.139,3.1225,3.0803,3.0785,3.0595,3.0173,3.0155,0.0,0.0,0.0,0.0,0.0,0.0,0.0,0.0,0.0,0.0,0.0,0.0,0.0,0.0,0.0,0.0,0.0,0.0,0.0,0.0,0.0,0.0,0.0,0.0,0.0,0.0,0.0,0.0,0.0,0.0,0.0,0.0,0.0,0.0,0.0,0.0,0.0,0.0,0.0,0.0,0.0,0.0,0.0,0.0,0.0,0.0,0.0,0.0,0.0,0.0,0.0,0.0,0.0,0.0,0.0,2.7231,2.7378,2.7433,2.7433,2.7433,2.7194,2.6827,0.0,0.0,0.0,0.0,0.0,0.0,0.0,0.0,0.0,0.0,0.0,0.0,0.0,0.0,0.0,0.0,0.0,0.0,0.0,0.0,0.0,0.0,0.0,0.0,0.0,3.139,3.1262,0.0,0.0,0.0,0.0,0.0,0.0,0.0,0.0,0.0,0.0,0.0,0.0,3.1788,3.1813,3.1813,3.1813,3.1813,3.1758,3.1629,3.1611,3.1556,3.1415,3.139,3.1097,0.0,0.0,0.0,0.0,0.0,0.0,0.0,0.0,0.0,0.0,0.0,0.0,0.0,0.0,0.0,0.0,0.0,0.0,0.0,0.0,0.0,0.0,0.0,0.0,0.0,0.0,0.0,0.0,0.0,0.0,0.0,0.0,2.467,2.4803,0.0,0.0,0.0,0.0,0.0,0.0,0.0,0.0,0.0,0.0,0.0,0.0,0.0,0.0,2.6442,2.6552,2.6961,2.7646,2.835,2.9048,2.9745,3.0454,3.0766,3.0766,3.0766,0.0,2.7701,2.8405,0.0,0.0,0.0,0.0,0.0,0.0,0.0,0.0,0.0,0.0,0.0,0.0,0.0,0.0,0.0,0.0,0.0,0.0,0.0,0.0,0.0,0.0,3.139,3.139,3.139,3.1556,0.0,3.1733,3.1262,3.1378,0.0,0.0,0.0,0.0,0.0,0.0,0.0,0.0,3.3345,3.3476,3.3476,3.3476,3.3476,3.3201,3.2497,3.2442,3.213,3.1445,3.139,3.136,3.1244,3.1244,0.0,0.0,0.0,0.0,0.0,0.0,0.0,0.0,0.0,0.0,0.0,0.0,0.0,0.0,0.0,0.0,0.0,0.0,0.0,0.0,0.0,0.0,0.0,0.0,0.0,0.0,0.0,0.0,0.0,2.4678,2.4541,2.4615,2.4448,2.4366,0.0,0.0,0.0,0.0,0.0,0.0,0.0,0.0,0.0,2.7255,2.7708,2.8161,2.8626,2.9072,2.9463,2.983,3.0173,3.0522,3.0895,3.1244,3.139,3.139,3.139,3.0809,2.9848,3.0191,3.0356,3.0356,0.0,0.0,0.0,0.0,0.0,0.0,3.0356,0.0,0.0,0.0,0.0,0.0,0.0,0.0,0.0,0.0,0.0,0.0,0.0,0.0,0.0,3.4045,3.4144,3.4254,3.4596,3.4394,3.3887,0.0,3.2565,3.2411,3.2411,0.0,0.0,0.0,0.0,0.0,3.4223,3.4568,3.4574,3.4123,3.4116,3.389,3.3321,3.3068,3.2876,3.2754,3.2742,3.254,3.2094,3.2063,3.1861,0.0,0.0,0.0,0.0,0.0,0.0,0.0,0.0,0.0,0.0,0.0,0.0,0.0,0.0,0.0,0.0,0.0,0.0,0.0,0.0,0.0,0.0,0.0,0.0,0.0,0.0,0.0,0.0,2.5227,2.5036,2.5036,2.4911,2.4814,0.0,0.0,0.0,0.0,0.0,0.0,2.7189,2.7414,2.7892,2.8692,2.931,3.0002,3.0809,3.1403,3.1916,3.232,3.2198,3.2314,3.2632,3.2365,3.2324,3.2444,3.2444,3.2365,3.2211,3.1638,3.139,3.139,3.139,3.139,0.0,3.1629,3.1721,3.1739,3.1941,3.2015,3.2015,3.2015,0.0,3.2051,3.2272,0.0,0.0,0.0,0.0,3.3672,3.4284,0.0,3.5507,3.6156,3.631,3.631,3.631,3.6219,3.5791,0.0,3.4203,3.3959,3.3802,0.0,0.0,0.0,0.0,3.4486,3.4677,3.5044,3.5076,3.4468,3.4447,3.4292,3.3789,3.3577,3.3527,3.3638,3.3741,3.3532,3.2938,3.2919,3.2626,3.2033,0.0,0.0,0.0,0.0,0.0,0.0,0.0,0.0,0.0,0.0,0.0,0.0,0.0,0.0,0.0,0.0,0.0,0.0,0.0,0.0,0.0,0.0,0.0,0.0,0.0,0.0,0.0,0.0,0.0,2.65,2.6489,0.0,0.0,0.0,0.0,2.6534,2.7273,2.8062,2.884,2.9598,3.0393,3.1188,3.1262,3.1659,3.2472,3.2509,3.3316,3.4814,3.438,3.4827,3.6024,3.4999,3.4813,3.5287,3.5287,3.4999,3.4375,3.2274,3.139,3.139,3.139,3.139,3.1482,3.2259,3.2534,3.2644,3.3421,3.3678,3.3678,3.3678,3.3678,3.3825,3.4582,3.4814,0.0,0.0,3.609,3.6119,3.6156,3.6193,3.6255,3.6285,3.631,3.631,3.631,3.5945,3.5737,0.0,3.6167,3.5974,3.5461,0.0,0.0,3.4739,3.4721,3.4756,3.4712,3.4721,3.4721,3.4677,3.4686,3.4385,3.3667,3.4007,3.3947,3.3265,3.3585,3.377,3.3733,3.3733,3.3715,3.3678,3.2919,0.0,0.0,0.0,0.0,0.0,0.0,0.0,0.0,0.0,0.0,0.0,0.0,0.0,0.0,0.0,0.0,0.0,0.0,0.0,0.0,0.0,0.0,0.0,0.0,0.0,0.0,0.0,0.0,2.6607,2.6607,0.0,0.0,2.7836,2.8363,2.8888,2.9659,3.0234,3.0522,3.1305,3.2112,3.2914,3.3451,3.397,3.446,3.4811,3.5104,3.5328,3.5511,3.5846,3.6288,3.5556,3.5324,3.5481,3.5139,3.488,3.4632,3.3849,3.3731,3.4072,3.4426,3.4548,3.4585,3.4871,3.4981,3.5018,3.5312,3.5404,3.5404,3.5404,3.5404,3.5459,3.5752,3.5837,3.5892,3.6211,3.631,3.6541,3.7588,3.7845,3.812,3.914,3.9397,3.9397,3.9397,3.9257,3.9191,3.9355,3.7471,3.5892,3.5994,3.6024,3.5913,3.5527,3.5785,3.5972,3.5815,3.6351,3.6566,3.6038,3.5723,3.5332,3.4858,3.442,3.3979,3.348,3.3877,3.3905,3.3422,3.3666,3.3807,3.3807,3.3532,3.336,0.0,0.0,0.0,0.0,0.0,0.0,0.0,0.0,0.0,0.0,0.0,0.0,0.0,0.0,0.0,0.0,0.0,0.0,0.0,0.0,0.0,0.0,0.0,0.0,0.0,0.0,2.7818,2.7818,2.8057,2.8429,2.8967,2.9494,3.0149,3.0956,3.1751,3.2327,3.2596,3.3396,3.4094,3.4633,3.5158,3.5689,3.617,3.6596,3.6754,3.6679,3.695,3.7162,3.7323,3.6639,3.6402,3.6531,3.6162,3.5929,3.5817,3.6141,3.6385,3.6497,3.5963,3.5748,3.5844,3.6573,3.6845,3.6941,3.7671,3.7918,3.7918,3.7918,3.7918,3.7918,3.7918,3.7918,3.7918,3.7918,3.7918,3.8175,3.9232,3.9507,3.9782,4.0846,4.1095,4.1095,4.1095,4.1095,4.1095,4.1095,3.9132,3.7493,3.7632,3.7809,3.7667,3.6953,3.7295,3.748,3.6973,3.7657,3.7901,3.7177,3.6772,3.6335,3.5847,3.4987,3.442,3.4273,3.4147,3.3997,3.3811,3.3528,3.3433,3.3585,3.3592,3.3666,3.3807,0.0,0.0,0.0,0.0,0.0,0.0,0.0,0.0,0.0,0.0,0.0,0.0,0.0,0.0,0.0,0.0,0.0,0.0,0.0,0.0,0.0,0.0,0.0,2.9042,2.9708,3.021,3.0228,3.095,3.1445,3.1464,3.1501,3.1849,3.2656,3.344,3.4222,3.4997,3.5874,3.634,3.6376,3.6395,3.6773,3.7539,3.7799,3.8275,3.8978,3.875,3.8915,3.937,3.8368,3.8179,3.8607,3.8585,3.8311,3.7972,3.895,3.9059,3.8334,3.5811,3.4871,3.5128,3.7217,3.7974,3.8304,4.0377,4.1095,4.1095,4.1095,4.1095,4.1095,4.1095,4.1095,4.1095,4.1095,4.1095,4.1122,4.1132,4.114,4.114,4.1177,4.1177,4.1177,4.1177,4.1177,4.1177,4.1177,4.1177,4.0989,4.042,4.0754,4.0571,3.8989,3.9188,0.0,3.8084,3.8402,3.8513,3.8007,3.7766,3.7307,3.6499,3.5714,3.5338,3.5547,3.4368,3.4072,3.4971,3.345,3.28,3.3227,3.3217,3.3408,3.3807,0.0,0.0,0.0,0.0,0.0,0.0,0.0,0.0,0.0,0.0,0.0,0.0,0.0,0.0,0.0,0.0,0.0,0.0,0.0,0.0,0.0,0.0,2.9873,2.9873,3.0063,3.0411,3.1005,3.1788,3.2497,3.3073,3.3672,3.4369,3.522,3.5495,3.5716,3.5929,3.6714,3.743,3.8028,3.8605,3.8917,3.8946,3.9783,3.9698,3.872,3.943,3.9625,3.938,3.8712,3.848,3.8585,3.8237,3.8014,3.7929,3.8207,3.8225,3.8093,3.8111,3.8345,3.8752,3.9356,3.9838,4.0306,4.0897,4.1095,4.1095,4.1095,4.1095,4.1095,4.1095,4.1095,4.1095,4.1095,4.1095,4.1232,4.1819,4.1966,4.2121,4.269,4.2837,4.2837,4.2837,4.2837,4.2837,4.2837,4.2837,4.2417,4.111,4.1003,4.0815,3.998,0.0,0.0,3.915,3.9143,3.9154,3.9003,3.858,3.8016,3.725,3.6683,3.5918,0.0,3.5096,3.5137,3.4877,3.4737,3.4459,3.4004,3.3473,3.3408,0.0,0.0,0.0,0.0,0.0,0.0,0.0,0.0,0.0,0.0,0.0,0.0,0.0,0.0,0.0,0.0,0.0,0.0,0.0,0.0,0.0,0.0,3.0485,3.0944,3.1604,3.1715,3.188,3.2345,3.344,3.4332,3.4798,3.5268,3.5892,3.6732,3.711,3.7441,3.7797,3.8326,3.896,3.9682,3.9697,3.9842,4.0174,4.0645,4.0404,3.9446,4.0157,4.0211,3.9677,3.9376,3.9225,0.0,3.8943,3.8819,3.8819,3.8819,3.8819,0.0,0.0,0.0,0.0,0.0,4.0772,4.1775,4.1775,4.1915,4.2113,4.2113,4.2113,4.2113,4.2113,4.2113,4.2113,4.2113,4.2113,4.2213,4.2671,4.28,4.291,4.3396,4.3506,4.3506,4.3506,4.3506,4.3506,4.3506,0.0,0.0,4.2268,4.2113,4.1913,4.1397,4.1276,4.106,0.0,4.0638,4.0696,4.0417,3.9852,3.9293,3.8835,3.7843,0.0,0.0,0.0,3.5409,3.4582,3.4976,0.0,0.0,0.0,3.4306,0.0,0.0,0.0,0.0,3.4633,3.4853,0.0,0.0,0.0,0.0,0.0,0.0,0.0,0.0,0.0,0.0,0.0,0.0,0.0,0.0,0.0,0.0,3.1201,3.2235,3.3844,3.4156,3.4174,3.4082,3.5459,3.6439,3.6439,3.6604,3.7008,3.7713,3.8524,3.9253,3.9902,0.0,0.0,0.0,0.0,4.0167,4.1269,4.0916,4.069,4.0644,4.0802,4.0607,4.0096,4.0096,4.0096,4.0096,4.0096,4.0096,4.0096,4.0096,4.0096,3.9977,3.8735,3.828,3.849,3.9679,4.1268,0.0,0.0,0.0,0.0,4.3506,4.3506,4.3506,4.3506,4.3506,4.3506,4.3506,4.3506,4.3506,4.3506,4.3506,4.3506,4.3506,4.3506,4.3506,4.3506,4.3506,4.3506,4.3506,4.3506,4.3506,4.3506,4.3506,4.3348,4.2864,4.274,0.0,4.1969,4.2312,4.2382,4.1863,0.0,0.0,4.0618,3.9083,3.8179,3.8337,3.6758,3.5397,3.4485,3.4761,3.4934,3.4925,3.536,3.5596,3.5588,3.6163,3.6475,3.656,3.6384,3.634,0.0,0.0,0.0,0.0,0.0,0.0,0.0,0.0,0.0,0.0,0.0,0.0,0.0,0.0,0.0,3.2889,3.322,3.3917,3.5569,3.6384,3.653,3.5888,3.6677,3.7272,3.7272,3.8439,3.9266,3.9412,4.0186,4.0499,4.0157,4.0646,0.0,4.1325,4.113,4.1463,4.2375,4.1838,4.1316,4.0827,0.0,0.0,4.0096,4.0096,4.0096,4.0096,4.0096,4.0096,4.0096,4.0096,4.0096,4.0112,4.0268,4.0624,4.1129,4.1874,4.2654,4.3348,4.3348,4.341,4.3506,4.3506,4.3506,4.3506,4.3506,4.3506,0.0,4.3506,4.3506,4.3506,4.3506,4.3506,4.3506,4.3506,4.3506,4.3506,4.3506,4.3506,4.3506,4.3506,4.3506,4.3506,4.3506,4.3506,4.3462,4.3366,4.2976,4.2655,4.2529,4.2203,4.1927,4.1821,4.1669,4.1343,4.0737,3.9911,3.9201,3.8662,3.769,3.6781,3.6007,3.5841,3.5748,3.5693,3.5631,3.5789,3.615,3.6897,3.7595,3.8193,3.6909,3.6659,0.0,0.0,0.0,0.0,0.0,0.0,0.0,0.0,0.0,0.0,0.0,3.0803,0.0,0.0,3.2852,3.366,3.4504,3.5484,3.6732,3.7595,3.7797,3.7008,3.77,3.8372,3.8681,3.9526,4.0178,4.0482,4.096,4.1249,4.1249,4.1379,4.1758,4.2423,4.1901,4.208,4.3087,4.2244,4.1643,4.1347,4.1041,4.0607,4.0096,4.0096,4.0096,4.0096,4.0096,4.0096,4.0096,4.0096,4.0096,4.0159,4.0691,4.1087,4.1391,4.1686,4.2354,4.3105,4.3105,4.3268,4.3506,4.3506,4.3506,4.3506,4.3506,4.3506,4.3506,4.3506,4.3506,4.3506,4.3506,4.3506,4.3506,4.3506,4.3506,4.3506,4.3506,4.3506,4.3506,4.3506,4.3506,4.3506,4.3506,4.3506,4.3506,4.3506,4.3268,4.3105,4.3105,4.2837,4.2649,4.2649,4.2404,4.2093,4.1719,4.082,3.9957,3.9295,3.8534,3.7923,3.7527,3.7649,3.7749,3.7693,3.8137,3.8342,3.83,3.8972,3.9515,3.9874,3.9085,3.8927,0.0,0.0,0.0,0.0,0.0,0.0,0.0,0.0,3.0668,3.1464,3.1758,3.1904,3.207,3.3293,3.4339,3.4493,3.5649,3.6861,3.7841,3.8524,3.8744,3.8256,3.891,3.959,4.0088,4.0326,4.0637,4.112,4.1361,4.1684,4.2176,4.2063,4.2337,4.3142,4.2394,4.2414,4.3348,4.2316,4.181,4.1782,4.1313,4.0726,4.0096,4.0204,4.0192,4.0096,4.0096,4.0096,4.0096,4.0096,4.0171,4.0299,4.0721,4.1041,4.1257,4.1257,4.1919,4.2864,4.2864,4.3142,4.3506,4.3506,4.3506,4.3506,4.3506,4.3506,4.3506,4.3506,4.3506,4.3506,4.3506,4.3506,4.3506,4.3506,4.3506,4.3506,4.3506,4.3506,4.3506,4.3506,4.3506,4.3506,4.3506,4.3506,4.3506,4.3506,4.3506,4.3506,4.3506,4.3506,4.3506,4.3506,4.3105,4.2817,4.2711,4.1712,4.077,4.0018,3.9305,3.8883,3.8803,3.924,3.9552,3.9661,4.0616,4.0892,4.0455,4.0883,4.1168,4.1342,4.1342,4.125,3.0404,3.0066,2.9848,3.035,3.0287,3.0306,0.0,0.0,3.1501,3.2295,3.3036,3.3752,3.4472,3.5378,3.6255,3.6978,3.7235,3.7896,3.9412,3.9706,3.9992,4.0626,4.0797,4.0899,4.0967,4.1152,4.1286,4.1369,4.1606,4.1785,4.1847,4.2337,4.2402,4.1992,4.2382,4.2655,4.2798,4.2131,4.181,4.181,4.1718,4.1139,4.0121,4.0601,4.054,4.0096,4.0096,4.0096,4.0096,4.0096,4.038,4.0827,4.088,4.1556,4.25,4.25,4.2884,4.341,4.341,4.3444,4.3506,4.3506,4.3506,4.3506,4.3506,4.3506,4.3506,4.3506,4.3506,4.3506,4.3506,4.3506,4.3506,4.3506,4.3506,4.3506,4.3506,4.3506,4.3506,4.3506,4.3506,4.3506,4.3506,4.3506,4.3506,4.3506,4.3506,4.3506,4.3506,4.3506,4.3506,4.3506,4.3444,4.3214,4.275,4.2563,4.195,4.0682,4.0019,3.9608,3.9489,3.9492,3.9729,4.0193,4.0806,4.1079,4.1011,4.1079,4.147,4.2176,4.2176,4.1782,3.0635,3.0457,3.0356,0.0,3.1329,3.18,3.2614,3.3164,3.3727,3.4571,3.5018,3.5367,3.569,3.6439,3.7107,0.0,3.8282,3.9119,3.9816,4.0716,4.1423,4.1764,4.2213,4.2176,4.1341,4.1503,4.1627,4.1627,4.1742,4.1948,4.2312,4.2549,4.2732,4.2791,4.3023,4.3169,4.3169,4.2607,4.2322,4.2322,4.1969,4.1375,4.0577,4.0803,4.0613,4.0096,4.0096,4.0096,4.0096,4.0096,4.0429,4.0938,4.1291,4.1948,4.2711,4.2711,4.3032,4.3506,4.3506,4.3506,4.3506,4.3506,4.3506,4.3506,4.3506,4.3506,4.3506,4.3506,4.3506,4.3506,4.3506,4.3506,4.3506,4.3506,4.3506,4.3506,4.3506,4.3506,4.3506,4.3506,4.3506,4.3506,4.3506,4.3506,4.3506,4.3506,4.3506,4.3506,4.3506,4.3506,4.3506,4.3506,4.3506,4.341,4.3187,4.3169,4.2785,4.1916,4.163,4.1305,4.0896,4.1199,4.1473,4.1692,4.2219,4.2506,4.2506,4.2506,4.2671,4.301,4.301,4.2827,3.0832,0.0,0.0,3.1869,3.2504,3.3195,3.4247,3.4938,3.5598,3.645,3.6622,3.6696,3.6909,3.7448,3.7889,3.8135,3.9137,4.0055,4.0495,4.157,4.2378,4.2598,4.3157,4.3048,4.1865,4.1785,4.181,4.181,4.1643,4.1821,4.243,4.2616,4.2883,4.3268,4.3418,4.3427,4.3277,4.3032,4.2855,4.2702,4.2422,4.1877,4.1144,4.0972,4.0613,4.0108,4.0266,4.0323,4.0336,4.0502,4.0891,4.1446,4.1885,4.2412,4.292,4.292,4.3169,4.3506,4.3506,4.3506,4.3506,4.3506,4.3506,4.3506,4.3506,4.3506,4.3506,4.3506,4.3506,4.3506,4.3506,4.3506,4.3506,4.3506,4.3506,4.3506,4.3506,4.3506,4.3506,4.3506,4.3506,4.3506,4.3506,4.3506,4.3506,4.3506,4.3506,4.3506,4.3506,4.3506,4.3506,4.3506,4.3506,4.3506,4.3506,4.3506,4.3321,4.2949,4.2788,4.2568,4.2276,4.2549,4.2779,4.292,4.3294,4.3506,4.3506,4.3506,4.3506,4.3506,4.3506,4.3506,0.0,0.0,3.2074,3.3408,3.3752,3.4192,3.5844,3.6229,3.6494,3.7309,3.7456,3.7705,3.8487,3.8644,3.8927,3.9706,3.9871,4.044,4.2011,4.2268,4.2598,4.3378,4.3488,4.3286,0.0,4.2134,4.181,4.181,4.1268,4.1189,4.18,4.2372,4.2711,4.2713,4.3232,4.325,4.274,4.3223,4.3214,4.2711,4.3214,4.2857,4.175,4.1167,4.0613,4.0133,4.0643,4.088,4.0914,4.1512,4.2101,4.2645,4.2682,4.2995,4.3489,4.3489,4.3497,4.3506,4.3506,4.3506,4.3506,4.3506,4.3506,4.3506,4.3506,4.3506,4.3506,4.3506,4.3506,4.3506,4.3506,4.3506,4.3506,4.3506,4.3506,4.3506,4.3506,4.3506,4.3506,4.3506,4.3506,4.3506,4.3506,4.3506,4.3506,4.3506,4.3506,4.3506,4.3506,4.3506,4.3506,4.3506,4.3506,4.3506,4.3506,4.3506,4.3479,4.3489,4.2986,4.293,4.3427,4.2967,4.2939,4.348,4.3479,4.3506,4.3506,4.3506,4.3506,4.3506,4.3506,4.3506,3.2006,0.0,3.3368,3.4353,3.544,3.6402,3.6978,3.7522,3.7973,3.823,3.8303,3.8377,3.8644,3.9148,3.9578,3.9853,4.0799,4.168,4.2213,4.2772,4.3194,4.3469,4.3506,0.0,0.0,0.0,0.0,4.1832,4.1979,4.2183,4.24,4.2921,4.3232,4.3232,4.341,4.341,4.3232,4.341,4.341,4.3232,4.305,4.277,4.239,4.1761,4.1391,4.1229,4.1413,4.1501,4.1512,4.1725,4.2152,4.2711,4.2711,4.3023,4.3506,4.3506,4.3506,4.3506,4.3506,4.3506,4.3506,4.3506,4.3506,4.3506,4.3506,4.3506,4.3506,4.3506,4.3506,4.3506,4.3506,4.3506,4.3506,4.3506,4.3506,4.3506,4.3506,4.3506,4.3506,4.3506,4.392,4.4305,4.4305,4.4305,4.4121,4.3579,4.3506,4.3506,4.3506,4.3506,4.3506,4.3506,4.3506,4.3506,4.3506,4.3506,4.3506,4.3506,4.3321,4.3303,4.3479,4.3339,4.3322,4.3506,4.3506,4.3506,4.3506,4.3506,4.3506,4.3506,4.3506,4.3506,3.3157,3.3883,3.4497,3.5617,3.6688,3.7584,3.7852,3.8322,3.8699,3.8699,3.8699,3.8699,3.8699,3.9129,3.9662,4.023,4.1203,4.2066,4.2653,4.3176,4.3506,4.3506,4.3506,0.0,0.0,0.0,0.0,4.2172,4.248,4.2711,4.2711,4.3214,4.3506,4.3506,4.3506,4.3506,4.3506,4.3506,4.3506,4.3506,4.316,4.2892,4.2692,4.2302,4.2,4.1821,4.2021,4.2121,4.2142,4.2334,4.2638,4.2986,4.2986,4.3196,4.3506,4.3506,4.3506,4.3506,4.3506,4.3506,4.3506,4.3506,4.3506,4.3506,4.3506,4.3506,4.3506,4.3506,4.3506,4.3506,4.3506,4.3506,4.3506,4.3506,4.3726,4.392,4.392,4.4149,4.4369,4.4369,4.4782,4.5122,4.5122,4.5122,4.4947,4.4442,4.4369,4.4149,4.3561,4.3506,4.3506,4.3506,4.3506,4.3506,4.3506,4.3506,4.3506,4.3506,4.3506,4.3506,4.3506,4.3506,4.3506,4.3506,4.3506,4.3506,4.3506,4.3506,4.3506,4.3506,4.3506,4.3506,3.4274,3.4859,3.55,3.7099,3.7529,3.776,3.8524,3.8699,3.8699,3.8699,3.8699,3.8699,0.0,0.0,3.9268,4.0846,4.1132,4.1709,4.3286,4.3506,4.3506,0.0,0.0,0.0,0.0,0.0,0.0,4.2788,0.0,4.275,4.275,4.3223,4.3506,4.3506,4.3506,4.3506,4.3506,4.3506,4.3506,4.3506,4.3506,4.3232,4.275,4.275,4.2422,4.1927,4.25,4.275,4.2788,4.3286,4.3506,4.3506,4.3506,4.3506,4.3506,4.3506,4.3506,4.3506,4.3506,4.3506,4.3506,4.3506,4.3506,4.3506,4.3506,4.3506,4.3506,4.3506,4.3506,4.3506,4.3506,4.3524,4.3561,4.3561,4.4176,4.4764,4.479,4.5387,4.5911,4.5938,4.5957,4.5957,4.5957,4.5957,4.5957,4.5902,4.5902,4.536,4.3818,4.3579,4.3561,4.3561,4.3524,4.3506,4.3506,4.3506,4.3506,4.3506,4.3506,4.3506,4.3506,4.3506,4.3506,4.3506,4.3506,4.3506,4.3506,4.3506,4.3506,4.3506,4.3506,4.3506,3.4708,3.586,3.6971,3.7401,3.7944,3.845,3.8644,3.8699,3.8699,3.8699,3.8699,3.8699,0.0,0.0,0.0,4.0938,4.1599,0.0,4.3359,4.3506,0.0,4.3506,0.0,4.3506,4.3506,4.3506,0.0,0.0,4.3294,4.3294,4.3294,4.3427,4.3506,4.3506,4.3506,4.3506,4.3506,4.3506,4.3506,4.3506,4.3506,4.3427,4.3294,4.3294,4.3205,4.3078,4.3232,4.3294,4.3322,4.3444,4.3506,4.3506,4.3506,4.3506,4.3506,4.3506,4.3506,4.3506,4.3506,4.3506,4.3506,4.3506,4.3506,4.3506,4.3506,4.3506,4.3506,4.3506,4.3506,4.3506,4.3506,4.3938,4.4397,4.4397,4.5021,4.5679,4.5974,4.5966,4.5992,4.6291,4.6586,4.6792,4.6792,4.6792,4.659,4.5993,4.5902,4.5755,4.5333,4.4764,4.4397,4.4397,4.3873,4.3506,4.3506,4.3506,4.3506,4.3506,4.3506,4.3506,4.3506,4.3506,4.3506,4.3506,4.3506,4.3506,4.3506,4.3506,4.3506,4.3506,4.3506,4.3506,3.5565,3.6601,3.7584,3.7944,3.8377,3.8699,3.8699,3.8699,3.8699,3.8699,3.8699,0.0,0.0,0.0,0.0,0.0,0.0,0.0,4.2855,4.3286,4.3506,0.0,4.3506,0.0,4.3506,4.3506,4.3506,0.0,4.3506,4.3506,4.3506,4.3506,4.3506,4.3506,4.3506,4.3506,4.3506,4.3506,4.3506,4.3506,4.3506,4.3506,4.3506,4.3506,4.3506,4.3506,0.0,4.3506,4.3506,4.3506,4.3506,4.3506,4.3506,4.3506,4.3506,4.3506,4.3589,4.3718,4.3718,4.3828,4.3954,4.3783,4.3718,4.3758,4.3931,4.3992,4.4067,4.4409,4.4502,4.4603,4.4972,4.5411,4.5757,4.5757,4.6371,4.7013,4.7244,4.7396,4.7545,4.7765,4.7862,4.7894,4.7894,4.7739,4.7471,4.7021,4.6948,4.6948,4.6948,4.5938,4.5232,4.5232,4.4819,4.4552,4.4552,4.4232,4.403,4.403,4.3708,4.3506,4.3506,4.3506,4.3506,4.3506,4.3506,4.3506,4.3506,4.3506,4.3506,4.3506,4.3506,4.3506,3.6607,3.7218,3.7834,3.8524,3.8699,3.8699,3.8699,3.8699,3.8699,3.8699,0.0,3.8699,3.8699,3.8699,3.8964,3.978,0.0,4.1379,4.2194,4.2992,4.3506,4.3506,4.3506,4.3506,4.3506,4.3506,4.3506,4.3506,4.3506,4.3506,4.3506,4.3506,4.3506,4.3506,4.3506,4.3506,4.3506,4.3506,4.3506,4.3506,4.3506,4.3506,4.3506,4.3506,4.3506,4.3506,0.0,0.0,4.3506,4.3506,4.3522,4.3573,4.3573,4.3597,4.3656,4.3656,4.3828,4.4073,4.4073,4.4304,4.454,4.419,4.4073,4.4139,4.4494,4.4668,4.4895,4.5599,4.5883,4.6153,4.6891,4.7181,4.7257,4.7257,4.7866,4.847,4.8526,4.9079,4.9554,4.9504,4.9218,4.8988,4.8988,4.8658,4.8383,4.8383,4.8326,4.8296,4.8296,4.6985,4.6067,4.6067,4.5957,4.5902,4.5902,4.525,4.481,4.4718,4.4048,4.3616,4.3506,4.3506,4.3506,4.3506,4.3506,4.3506,4.3506,4.3506,4.3506,4.3506,4.3506,4.3506,3.7258,3.7915,3.8524,3.8663,3.8699,3.8699,3.8699,3.8699,0.0,0.0,3.8699,3.8699,3.8699,3.8699,3.8964,3.978,0.0,0.0,0.0,0.0,4.3506,0.0,0.0,0.0,0.0,0.0,0.0,0.0,0.0,0.0,4.3506,4.3506,4.3506,4.3506,4.3506,4.3506,4.3506,4.3506,4.3506,4.3506,4.3506,4.3506,4.3506,4.3506,4.3506,4.3506,0.0,0.0,4.3506,4.3506,4.367,4.3901,4.3901,4.4121,4.4406,4.4406,4.4447,4.4494,4.4494,4.454,4.458,4.452,4.4494,4.4514,4.4573,4.5064,4.5612,4.5769,4.633,4.691,4.7068,4.759,4.8093,4.8093,4.8714,4.9381,4.9727,4.9898,4.9904,4.9561,4.9438,4.9393,4.9393,4.9051,4.8805,4.8805,4.8513,4.8296,4.8296,4.7489,4.6902,4.6902,4.6296,4.5902,4.5902,4.5773,4.5406,4.4737,4.4571,4.4195,4.3524,4.3506,4.3506,4.3506,4.3506,4.3506,4.3506,4.3506,4.3506,4.3506,4.3506,4.3506,3.7099,3.7875,3.8699,3.8699,3.8699,3.8699,3.8699,0.0,0.0,0.0,3.8699,3.8732,3.8891,0.0,0.0,0.0,0.0,0.0,0.0,0.0,0.0,0.0,0.0,0.0,0.0,0.0,0.0,0.0,0.0,0.0,4.3506,4.3506,4.3506,4.3506,4.3506,4.3506,4.3506,4.3506,4.3506,4.3506,4.3506,4.3506,4.3506,4.3506,4.3506,4.3506,0.0,0.0,4.3756,4.3756,4.3981,4.4304,4.4304,4.4433,4.4593,4.4593,4.4701,4.4866,4.4866,4.4971,4.5123,4.5123,4.5,4.4972,4.5608,4.6077,4.6554,4.7419,4.7964,4.8409,4.8854,4.9268,4.9549,4.9549,4.9842,5.0177,5.0364,5.0416,5.0353,5.0165,4.9955,4.9807,4.9807,4.9482,4.9139,4.8938,4.8745,4.8541,4.8335,4.7966,4.7728,4.7728,4.7379,4.715,4.715,4.6773,4.637,4.5975,4.5159,4.4535,4.414,4.3726,4.3506,4.3506,4.3506,4.3506,4.3506,4.3506,4.3506,4.3496,4.3687,4.367,3.6945,3.759,3.8302,3.8418,3.8303,3.8193,3.8193,3.8228,0.0,0.0,3.8276,3.845,3.8786,0.0,3.8987,0.0,0.0,0.0,0.0,0.0,0.0,0.0,0.0,0.0,0.0,0.0,0.0,0.0,0.0,0.0,0.0,4.3506,4.3531,4.3587,4.3614,4.3656,4.3736,4.3744,4.3744,4.3744,4.3744,4.3744,4.3744,4.3744,4.3744,4.3744,0.0,0.0,0.0,4.4124,4.4353,4.472,4.472,4.4745,4.4806,4.4806,4.4977,4.5206,4.5206,4.539,4.5594,4.5594,4.5554,4.5668,4.6603,4.7158,4.7716,4.9029,4.9529,4.9841,5.0515,5.0707,5.0707,5.0707,5.0707,5.0707,5.0707,5.0707,5.0707,5.0707,5.0437,5.0237,5.0237,4.9879,4.9518,4.9192,4.9083,4.888,4.8477,4.843,4.8402,4.8306,4.8296,4.8296,4.8296,4.7728,4.7278,4.7113,4.5902,4.514,4.4957,4.4342,4.4002,4.4002,4.4002,4.4002,4.4002,4.4002,4.4054,4.4147,4.4323,4.4363,3.753,3.7339,3.7005,3.7492,3.7063,3.653,3.653,0.0,0.0,3.6577,3.6899,3.7407,3.7921,3.8221,0.0,0.0,0.0,4.0591,0.0,0.0,0.0,0.0,0.0,0.0,0.0,0.0,0.0,0.0,0.0,0.0,0.0,4.3506,4.3637,4.394,4.3955,4.4136,4.4494,4.4494,4.4494,4.4494,4.4494,4.4494,4.4494,4.4494,4.4494,4.4494,0.0,0.0,0.0,4.454,4.4738,4.5058,4.5058,4.5237,4.5508,4.5508,4.5522,4.5559,4.5559,4.5573,4.5594,4.5594,4.6111,4.6766,4.6861,4.7971,4.9202,4.9356,4.9976,5.0592,5.0668,5.0707,5.0707,5.0707,5.0707,5.0707,5.0707,5.0707,5.0707,5.0707,5.0668,5.0634,5.0634,5.0319,5.0037,5.0006,4.9685,4.9303,4.8897,4.8837,4.8692,4.8354,4.8296,4.8296,4.8296,4.8223,4.7874,4.7149,4.6966,4.6553,4.5828,4.5718,4.5681,4.5681,4.5681,4.5681,4.5681,4.5681,4.5876,4.6222,4.5875,4.6108,3.6826,3.6814,3.6756,3.6965,3.6783,3.6542,3.6542,0.0,3.6917,3.6795,3.6939,3.7378,3.8288,3.8536,3.8893,0.0,0.0,0.0,0.0,0.0,0.0,0.0,0.0,0.0,0.0,0.0,0.0,0.0,0.0,0.0,0.0,4.4169,4.4216,4.4364,4.4353,4.4447,4.4612,4.4593,4.4593,4.4593,4.4593,4.4593,4.4593,4.4593,4.4593,4.4593,0.0,0.0,0.0,4.4902,4.5102,4.5405,4.5405,4.5485,4.5594,4.5594,4.5594,4.5594,4.5594,4.5594,4.5594,4.5594,4.6509,4.762,4.762,4.8452,4.951,5.0034,5.0438,5.0707,5.0707,5.0707,5.0707,5.0707,5.0707,5.0707,5.0707,5.0707,5.0707,5.0707,5.0707,5.0707,5.0707,5.0559,5.0388,5.0141,4.9962,4.9719,4.9318,4.9257,4.9195,4.9037,4.8586,4.8296,4.8296,4.8296,4.815,4.7838,4.7369,4.6947,4.6645,4.6159,4.5902,4.5902,4.6148,4.6256,4.6266,4.6488,4.6705,4.6868,4.6902,4.6852,3.6255,3.6254,3.6242,3.6323,3.6236,3.6073,0.0,0.0,3.6501,3.6403,3.6527,3.6924,3.7871,3.8335,3.8842,0.0,0.0,4.0603,4.2024,0.0,0.0,0.0,0.0,0.0,0.0,0.0,0.0,0.0,0.0,0.0,0.0,0.0,4.4861,4.4738,4.4757,4.4806,4.4883,4.4902,4.4902,4.4902,4.4902,4.4902,4.4902,4.4902,4.4902,0.0,0.0,0.0,0.0,4.5243,4.5395,4.5594,4.5594,4.5594,4.5594,4.5594,4.5594,4.5594,4.5594,4.5594,4.5594,4.5594,4.6567,4.7793,4.8024,4.8894,4.9918,5.0534,5.0707,5.0707,5.0707,5.0707,5.0707,5.0707,5.0707,5.0707,5.0707,5.0707,5.0707,5.0707,5.0707,5.0707,5.0707,5.0707,5.0604,5.0325,5.0272,5.0141,4.9733,4.9685,4.9624,4.9511,4.8988,4.8639,4.8639,4.8639,4.8639,4.8639,4.8015,4.7638,4.7638,4.7094,4.6789,4.6789,4.7175,4.7397,4.7389,4.7669,4.7864,4.7996,4.8118,4.7879,3.6169,3.5712,3.5186,3.5447,3.5115,3.4636,0.0,0.0,3.505,3.4787,3.5155,3.569,3.622,3.724,3.8292,3.9161,0.0,0.0,0.0,0.0,0.0,0.0,0.0,0.0,0.0,0.0,0.0,0.0,0.0,0.0,0.0,0.0,4.5434,4.5102,4.5091,4.5248,4.5581,4.5586,4.5586,4.5586,4.5586,4.5586,4.5586,4.5586,0.0,0.0,0.0,0.0,0.0,4.559,4.559,4.5594,4.5594,4.5594,4.5594,4.5594,4.5594,4.5594,4.5594,4.5594,4.5594,4.5594,4.6201,4.7062,4.7851,4.9317,5.0688,5.0707,5.0707,5.0707,5.0707,5.0707,5.0707,5.0707,5.0707,5.0707,5.0707,5.0707,5.0707,5.0707,5.0707,5.0707,5.0707,5.0707,5.0707,5.0688,5.0688,5.0549,5.0153,5.0086,4.9943,4.954,4.9489,4.9482,4.9482,4.9482,4.9482,4.9482,4.9108,4.8878,4.8878,4.8878,4.8878,4.8878,4.925,4.947,4.947,4.947,4.9675,5.0061,4.9654,4.9477,3.5706,3.5437,3.5123,3.5211,3.5102,3.4954,3.4832,0.0,3.5354,3.525,3.538,3.5713,3.6443,3.7352,3.8296,3.9165,3.9899,0.0,0.0,0.0,0.0,0.0,0.0,0.0,0.0,0.0,0.0,0.0,0.0,0.0,0.0,0.0,4.5559,4.5457,4.5438,4.5495,4.559,4.5594,4.5594,4.5594,4.5594,4.5594,4.5594,4.5594,0.0,0.0,0.0,0.0,0.0,4.5696,4.5733,4.5747,4.5789,4.5811,4.5811,4.5811,4.5811,4.5811,4.5811,4.5811,4.5811,4.5811,4.639,4.7141,4.7409,4.857,4.9938,5.0534,5.0707,5.0707,5.0707,5.0707,5.0707,5.0707,5.0707,5.0707,5.0707,5.0707,5.0707,5.0707,5.0707,5.0707,5.0707,5.0707,5.0707,5.0707,5.0707,5.0658,5.0534,5.0504,5.0467,5.0336,5.0325,5.0092,4.9558,4.9496,4.9496,4.9496,4.9378,4.9311,4.9311,4.9311,4.9311,4.9311,4.9712,4.9911,4.9917,5.0183,5.0394,5.0493,5.0092,5.0056,0.0,3.5376,3.5223,3.5122,3.5182,0.0,0.0,3.5304,3.55,3.55,3.55,3.575,3.6542,3.7407,3.8296,3.9165,4.0242,0.0,0.0,0.0,0.0,0.0,0.0,0.0,0.0,0.0,0.0,0.0,0.0,0.0,0.0,0.0,4.5696,4.5712,4.564,4.5594,4.5594,4.5594,4.5637,4.568,4.568,4.5681,4.5712,0.0,0.0,0.0,0.0,0.0,0.0,4.5792,4.5833,4.5842,4.5872,4.5901,4.5901,4.5901,4.5901,4.5901,4.5901,4.5901,4.5901,4.5901,4.648,4.7254,4.7589,4.8522,4.9656,5.0533,5.0744,5.0707,5.0707,5.0707,5.0707,5.0707,5.0707,5.0707,5.0707,5.0707,5.0707,5.0707,5.0707,5.0707,5.0707,5.0707,5.0707,5.0707,5.0707,5.0707,5.0707,5.0707,5.0707,5.0707,5.0707,5.0493,5.0006,4.9949,4.9949,4.9949,4.9807,4.9733,4.9733,4.9733,4.9733,4.9733,5.011,5.033,5.033,5.0589,5.0707,5.0688,5.0437,5.0467,0.0,3.55,0.0,0.0,0.0,0.0,0.0,0.0,0.0,3.55,3.55,3.575,3.6542,3.7407,3.8296,3.9165,0.0,0.0,0.0,0.0,0.0,0.0,0.0,0.0,0.0,0.0,0.0,0.0,0.0,0.0,0.0,0.0,0.0,4.5897,4.5722,4.5622,4.5622,4.5622,4.5685,4.5819,4.5819,4.5839,4.5901,0.0,0.0,0.0,0.0,0.0,0.0,4.591,4.5912,4.5914,4.592,4.5924,4.5924,4.5924,4.5924,4.5924,4.5924,4.5924,4.5924,4.5924,4.6485,4.73,4.8163,4.8988,4.9785,5.0657,5.081,5.0712,5.0693,5.0707,5.0707,5.0707,5.0707,5.0707,5.0707,5.0707,5.0707,5.0707,5.0707,5.0707,5.0707,5.0707,5.0707,5.0707,5.0707,5.0707,5.0707,5.0707,5.0707,5.0707,5.0707,5.0707,5.0707,5.0707,5.0707,5.0707,5.0347,5.0147,5.0147,5.0147,5.0147,5.0147,5.0504,5.0707,5.0707,5.0707,5.0707,5.0707,5.0707,5.0707,3.55,0.0,3.549,3.5428,3.5449,3.549,0.0,0.0,0.0,0.0,0.0,3.575,3.6542,3.7407,3.8296,3.9165,0.0,0.0,0.0,0.0,0.0,0.0,0.0,0.0,0.0,0.0,0.0,0.0,0.0,0.0,0.0,0.0,0.0,4.5899,4.5842,4.5828,4.5828,4.5828,4.5844,4.5877,4.5877,4.5872,4.5901,0.0,0.0,0.0,0.0,0.0,0.0,4.6003,4.6047,4.6053,4.6172,4.6201,4.6201,4.6201,4.6201,4.6201,4.6201,4.6201,4.6201,4.6201,4.6338,4.6669,4.7548,4.8724,4.992,5.0673,5.0875,5.0839,5.0721,5.0707,5.0707,5.0707,5.0707,5.0707,5.0707,5.0707,5.0707,5.0707,5.0707,5.0707,5.0707,5.0707,5.0707,5.0707,5.0707,5.0707,5.0707,5.0707,5.0707,5.0707,5.0707,5.0707,5.0707,5.0707,5.0707,5.0707,5.0609,5.0554,5.0554,5.0554,5.0554,5.0554,5.0658,5.0707,5.0707,5.0707,5.0707,5.0707,5.0707,5.0707,3.55,3.55,3.55,3.55,3.55,3.55,3.55,0.0,0.0,0.0,0.0,3.5865,3.7061,3.768,0.0,0.0,0.0,0.0,0.0,0.0,0.0,0.0,0.0,0.0,0.0,0.0,0.0,0.0,0.0,0.0,0.0,0.0,0.0,0.0,4.6082,4.6011,4.5901,4.5901,4.5926,4.599,4.599,4.6011,4.6082,0.0,0.0,0.0,0.0,0.0,4.6084,4.6151,4.6198,4.62,4.6269,4.6308,4.6308,4.6308,4.6308,4.6308,4.6308,4.6308,4.6308,4.6308,4.6308,4.6465,4.7344,4.8151,4.9025,5.0174,5.0737,5.0953,5.0835,5.0795,5.0769,5.0717,5.0707,5.0707,5.0707,5.0707,5.0707,5.0707,5.0707,5.0707,5.0707,5.0707,5.0707,5.0707,5.0707,5.0707,5.0707,5.0707,5.0707,5.0707,5.0707,5.0707,5.0707,5.0707,5.0707,5.0707,5.0707,5.0707,5.0707,5.0707,5.0707,5.0707,5.0707,5.0707,5.0707,5.0707,5.0707,5.0707,5.0707,5.0707,3.55,3.55,3.55,3.55,3.55,3.55,3.55,0.0,0.0,0.0,0.0,0.0,0.0,3.8125,0.0,0.0,0.0,0.0,0.0,0.0,0.0,0.0,0.0,0.0,0.0,0.0,0.0,0.0,0.0,0.0,0.0,0.0,0.0,0.0,4.6308,4.6198,4.5951,4.5969,4.6027,4.6121,4.6121,4.6198,4.6308,4.6308,0.0,0.0,0.0,0.0,4.6308,4.6308,4.6308,4.6308,4.6308,4.6308,4.6308,4.6308,4.6308,4.6308,4.6308,4.6308,4.6308,4.6308,4.6308,4.6445,4.7187,4.748,4.787,4.9254,5.0264,5.0936,5.094,5.0911,5.0867,5.0757,5.0717,5.0707,5.0707,5.0707,5.0707,5.0707,5.0707,5.0707,5.0707,5.0707,5.0707,5.0707,5.0707,5.0707,5.0707,5.0707,5.0707,5.0707,5.0707,5.0707,5.0707,5.0707,5.0707,5.0707,5.0707,5.0707,5.0707,5.0707,5.0707,5.0707,5.0707,5.0707,5.0707,5.0707,5.0707,5.0707,5.0707,5.0707,3.55,3.55,3.55,3.55,3.55,3.55,3.55,0.0,0.0,0.0,0.0,0.0,0.0,0.0,0.0,0.0,0.0,0.0,0.0,0.0,0.0,0.0,0.0,0.0,0.0,0.0,0.0,0.0,0.0,0.0,0.0,0.0,0.0,0.0,0.0,4.6289,4.6246,4.6246,4.6247,4.6268,4.6268,4.6289,4.6308,4.6308,4.6308,0.0,0.0,0.0,4.6308,4.6308,4.6308,4.6308,4.6308,4.6308,4.6308,4.6308,4.6308,4.6308,4.6308,4.6308,4.6308,4.6308,4.6308,4.6328,4.6465,4.7012,4.7656,4.7909,4.9022,5.0306,5.0902,5.0985,5.0882,5.0871,5.0782,5.0707,5.0707,5.0707,5.0707,5.0707,5.0707,5.0707,5.0707,5.0707,5.0707,5.0707,5.0707,5.0707,5.0707,5.0707,5.0707,5.0707,5.0707,5.0707,5.0707,5.0707,5.0707,5.0707,5.0707,5.0707,5.0707,5.0707,5.0707,5.0707,5.0707,5.0707,5.0707,5.0707,5.0707,5.0707,5.0707,5.0707,3.554,3.5534,3.5528,3.5587,3.5541,3.55,0.0,0.0,0.0,0.0,0.0,0.0,0.0,0.0,0.0,0.0,0.0,0.0,0.0,0.0,0.0,0.0,0.0,0.0,0.0,0.0,0.0,0.0,0.0,0.0,0.0,0.0,0.0,0.0,0.0,0.0,4.6308,4.6308,4.6308,4.6308,4.6308,4.6308,4.6308,4.6308,4.6308,0.0,0.0,4.6308,4.6308,4.6308,4.6308,4.6308,4.6308,4.6308,4.6308,4.6308,4.6308,4.6308,4.6308,4.6308,4.6308,4.6308,4.6308,4.6308,4.6308,4.6582,4.6992,4.7461,4.8474,4.9571,5.0309,5.0466,5.0507,5.0819,5.0855,5.0791,5.0721,5.0707,5.0707,5.0707,5.0707,5.0707,5.0707,5.0707,5.0707,5.0707,5.0707,5.0707,5.0707,5.0707,5.0707,5.0707,5.0707,5.0707,5.0707,5.0707,5.0707,5.0707,5.0707,5.0707,5.0707,5.0707,5.0707,5.0707,5.0707,5.0707,5.0707,5.0707,5.0707,5.0707,5.0707,5.0707,3.5601,3.5599,3.5566,3.5667,3.5608,0.0,0.0,0.0,0.0,0.0,0.0,0.0,0.0,0.0,0.0,0.0,0.0,0.0,0.0,0.0,0.0,0.0,0.0,0.0,0.0,0.0,0.0,0.0,0.0,0.0,0.0,0.0,0.0,0.0,0.0,0.0,4.6308,4.6308,4.6308,4.6308,4.6308,4.6308,4.6308,4.6308,4.6308,4.6308,4.6308,4.6308,4.6308,4.6308,4.6308,4.6308,4.6308,4.6308,4.6308,4.6308,4.6308,4.6308,4.6308,4.6308,4.6308,4.6308,4.6308,4.6308,4.6308,4.6308,4.6445,4.7109,4.7773,4.8515,4.9492,4.9865,5.0118,5.0584,5.0797,5.0867,5.0775,5.0712,5.0707,5.0707,5.0707,5.0707,5.0707,5.0707,5.0707,5.0707,5.0707,5.0707,5.0707,5.0707,5.0707,5.0707,5.0707,5.0707,5.0707,5.0707,5.0707,5.0707,5.0707,5.0707,5.0707,5.0707,5.0707,5.0707,5.0707,5.0707,5.0707,5.0707,5.0707,5.0707,5.0707,5.0707,3.5667,3.5689,3.5688,3.5702,3.5608,0.0,3.5659,3.5644,0.0,3.6783,0.0,0.0,0.0,0.0,0.0,0.0,0.0,0.0,0.0,0.0,0.0,0.0,0.0,0.0,0.0,0.0,0.0,0.0,0.0,0.0,0.0,0.0,0.0,0.0,0.0,0.0,4.6308,4.6308,4.6308,4.6308,4.6308,4.6308,4.6308,4.6308,4.6308,4.6308,4.6308,4.6308,4.6308,4.6308,4.6308,4.6308,4.6308,4.6308,4.6308,4.6308,4.6308,4.6308,4.6308,4.6308,4.6308,4.6308,4.6308,4.6308,4.6308,4.6308,4.6308,4.6387,4.6445,4.6875,4.8554,4.9498,5.0007,5.0057,5.0488,5.0905,5.089,5.0791,5.0707,5.0707,5.0707,5.0707,5.0707,5.0707,5.0707,5.0707,5.0707,5.0707,5.0707,5.0707,5.0707,5.0707,5.0707,5.0707,5.0707,5.0707,5.0707,5.0707,5.0707,5.0707,5.0707,5.0707,5.0707,5.0707,5.0707,5.0707,5.0707,5.0707,5.0707,5.0707,5.0707,5.0707,3.5783,3.5764,3.5731,3.5868,3.6165,0.0,0.0,3.6481,3.6874,3.8316,3.891,0.0,0.0,0.0,0.0,0.0,0.0,0.0,0.0,0.0,0.0,0.0,0.0,0.0,0.0,0.0,0.0,0.0,0.0,0.0,0.0,0.0,0.0,0.0,0.0,0.0,0.0,4.6308,4.6308,4.6308,4.6308,4.6308,4.6308,4.6308,4.6308,4.6308,4.6308,4.6308,4.6308,4.6308,4.6308,4.6308,4.6308,4.6308,4.6308,4.6308,4.6308,4.6308,4.6308,4.6308,4.6308,4.6308,4.6308,4.6308,4.6308,4.6308,4.6308,4.6308,4.6308,4.6582,4.7773,4.8299,4.8758,4.9765,5.0109,5.0334,5.0798,5.0784,5.0707,5.0707,5.0707,5.0707,5.0707,5.0707,5.0707,5.0707,5.0707,5.0707,5.0707,5.0707,5.0707,5.0707,5.0707,5.0707,5.0707,5.0707,5.0707,5.0707,5.0707,5.0707,5.0707,5.0707,5.0707,5.0707,5.0707,5.0707,5.0707,5.0707,5.0707,5.0707,5.0707,5.0707,3.5884,3.5862,3.5835,3.5975,0.0,0.0,3.744,3.7464,3.7862,3.9386,0.0,0.0,0.0,0.0,0.0,0.0,0.0,0.0,0.0,0.0,0.0,0.0,0.0,0.0,0.0,0.0,0.0,0.0,0.0,0.0,0.0,0.0,0.0,0.0,0.0,0.0,0.0,4.6308,4.6308,4.6308,4.6308,4.6308,4.6308,4.6308,4.6308,4.6308,4.6308,4.6308,4.6308,4.6308,4.6308,4.6308,4.6308,4.6308,4.6308,4.6308,4.6308,4.6308,4.6308,4.6308,4.6308,4.6308,4.6308,4.6308,4.6308,4.6308,4.6308,4.6308,4.6308,4.6445,4.7031,4.7383,4.787,4.8988,4.9556,4.9982,5.0442,5.0666,5.0743,5.0707,5.0707,5.0707,5.0707,5.0707,5.0707,5.0707,5.0707,5.0707,5.0707,5.0707,5.0707,5.0707,5.0707,5.0707,5.0707,5.0707,5.0707,5.0707,5.0707,5.0707,5.0707,5.0707,5.0707,5.0707,5.0707,5.0707,5.0707,5.0707,5.0707,5.0707,5.0707,5.0707,3.5975,3.5996,3.5996,0.0,0.0,0.0,3.8418,3.8507,3.8709,3.9726,0.0,0.0,0.0,0.0,0.0,0.0,0.0,0.0,0.0,0.0,0.0,0.0,0.0,0.0,0.0,0.0,0.0,0.0,0.0,0.0,0.0,0.0,0.0,0.0,0.0,0.0,0.0,4.6308,4.6308,4.6308,4.6308,4.6308,4.6308,4.6308,4.6308,4.6308,4.6308,4.6308,4.6308,4.6308,4.6308,4.6308,4.6308,4.6308,4.6308,4.6308,4.6308,4.6308,4.6308,4.6308,4.6308,4.6308,4.6308,4.6308,4.6308,4.6308,4.6308,4.6308,4.6308,4.6308,4.6308,4.6933,4.7598,4.7598,4.8815,4.9931,4.9828,5.0367,5.0852,5.0721,5.0693,5.0707,5.0707,5.0707,5.0707,5.0707,5.0707,5.0707,5.0707,5.0707,5.0707,5.0707,5.0707,5.0707,5.0707,5.0707,5.0707,5.0707,5.0707,5.0707,5.0707,5.0707,5.0707,5.0707,5.0707,5.0707,5.0707,5.0707,5.0707,5.0707,5.0707,5.0707,3.5975,3.5996,0.0,3.6758,0.0,0.0,0.0,3.9472,0.0,0.0,0.0,0.0,0.0,0.0,0.0,0.0,0.0,0.0,0.0,0.0,0.0,0.0,0.0,0.0,0.0,0.0,0.0,0.0,0.0,0.0,0.0,0.0,0.0,0.0,0.0,0.0,0.0,0.0,4.6247,4.615,4.615,4.6202,4.6308,4.6308,4.6308,4.6308,4.6308,4.6308,4.6308,4.6308,4.6308,4.6308,4.6308,4.6308,4.6308,4.6308,4.6308,4.6308,4.6308,4.6308,4.6308,4.6308,4.6308,4.6308,4.6308,4.6308,4.6308,4.6308,4.6308,4.6308,4.6308,4.6484,4.6836,4.7441,4.7897,4.8499,4.9687,4.9956,5.0162,5.0731,5.077,5.0707,5.0707,5.0707,5.0707,5.0707,5.0707,5.0707,5.0707,5.0707,5.0707,5.0707,5.0707,5.0707,5.0707,5.0707,5.0707,5.0707,5.0707,5.0707,5.0707,5.0707,5.0707,5.0707,5.0707,5.0707,5.0707,5.0707,5.0707,5.0707,5.0707,5.0707,3.5996,3.5996,0.0,3.707,3.7969,3.8926,4.0137,0.0,0.0,0.0,0.0,0.0,0.0,0.0,0.0,0.0,0.0,0.0,0.0,0.0,0.0,0.0,0.0,0.0,0.0,0.0,0.0,0.0,0.0,0.0,0.0,0.0,0.0,0.0,0.0,0.0,0.0,0.0,0.0,4.6108,4.6043,4.6053,4.6145,4.6199,4.6223,4.6224,4.6288,4.6308,4.6308,4.6308,4.6308,4.6308,4.6308,4.6308,4.6308,4.6308,4.6308,4.6308,4.6308,4.6308,4.6308,4.6308,4.6308,4.6308,4.6308,4.6308,4.6308,4.6308,4.6308,4.6308,4.6308,4.6308,4.6426,4.6953,4.728,4.775,4.8745,4.9105,4.9468,5.0248,5.0317,5.0352,5.0649,5.0707,5.0707,5.0707,5.0707,5.0707,5.0707,5.0707,5.0707,5.0707,5.0707,5.0707,5.0707,5.0707,5.0707,5.0707,5.0707,5.0707,5.0707,5.0707,5.0707,5.0707,5.0707,5.0707,5.0707,5.0707,5.0707,5.0707,5.0707,5.0707,3.5996,0.0,0.0,3.7207,3.8125,0.0,4.0937,0.0,0.0,0.0,0.0,0.0,0.0,0.0,0.0,0.0,0.0,0.0,0.0,0.0,0.0,0.0,0.0,0.0,0.0,0.0,0.0,0.0,0.0,0.0,0.0,0.0,0.0,0.0,0.0,0.0,0.0,0.0,0.0,0.0,4.5957,4.5879,4.5872,4.6026,4.6081,4.6084,4.6246,4.6289,4.6289,4.6289,4.6308,4.6308,4.6308,4.6308,4.6308,4.6308,4.6308,4.6308,4.6308,4.6308,4.6308,4.6308,4.6308,4.6308,4.6308,4.6308,4.6308,4.6308,4.6308,4.6308,4.6308,4.6308,4.6308,4.6308,4.6914,4.7479,4.743,4.8021,4.8774,4.9391,4.9498,4.973,5.0465,5.0587,5.0611,5.0688,5.0707,5.0707,5.0707,5.0707,5.0707,5.0707,5.0707,5.0707,5.0707,5.0707,5.0707,5.0707,5.0707,5.0707,5.0707,5.0707,5.0707,5.0707,5.0707,5.0707,5.0707,5.0707,5.0707,5.0707,5.0707,5.0707,3.5996,3.6504,0.0,0.0,3.9492,4.0898,0.0,0.0,0.0,0.0,0.0,0.0,0.0,0.0,0.0,0.0,0.0,0.0,0.0,0.0,0.0,0.0,0.0,0.0,0.0,0.0,0.0,0.0,0.0,0.0,0.0,0.0,0.0,0.0,0.0,0.0,4.6308,4.6172,4.6043,0.0,4.5869,4.5764,4.5669,4.5857,4.5936,4.5965,4.6199,4.6246,4.6148,4.6267,4.6308,4.6308,4.6308,4.6308,4.6308,4.6308,4.6308,4.6308,4.6308,4.6308,4.6308,4.6308,4.6308,4.6308,4.6308,4.6308,4.6308,4.6308,4.6308,4.6308,4.6308,4.6308,4.6308,4.6308,4.6445,4.6758,4.742,4.7617,4.7929,4.8734,4.873,4.8843,4.9691,4.9744,4.9918,5.0592,5.0707,5.0707,5.0707,5.0707,5.0707,5.0707,5.0707,5.0707,5.0707,5.0707,5.0707,5.0707,5.0707,5.0707,5.0707,5.0707,5.0707,5.0707,5.0707,5.0707,5.0707,5.0707,5.0707,5.0707,5.0707,5.0707,3.5996,0.0,0.0,3.8906,0.0,0.0,0.0,0.0,0.0,0.0,0.0,0.0,0.0,0.0,0.0,0.0,0.0,0.0,0.0,0.0,0.0,0.0,0.0,0.0,0.0,0.0,0.0,0.0,0.0,0.0,0.0,0.0,0.0,0.0,0.0,0.0,4.6201,4.6076,4.595,4.5845,4.5756,4.5665,4.5603,4.5774,4.5896,4.5997,4.6078,4.6145,4.6199,4.62,4.6246,4.6308,4.6308,4.6308,4.6308,4.6308,4.6308,4.6308,4.6308,4.6308,4.6308,4.6308,4.6308,4.6308,4.6308,4.6308,4.6308,4.6308,4.6308,4.6308,4.6308,4.6308,4.6308,4.6308,4.6308,4.6426,4.6875,4.6929,4.7109,4.7924,4.7965,4.8111,4.8847,4.9215,4.9548,5.0014,5.0438,5.0707,5.0707,5.0707,5.0707,5.0707,5.0707,5.0707,5.0707,5.0707,5.0707,5.0707,5.0707,5.0707,5.0707,5.0766,5.0804,5.0804,5.0804,5.0835,5.0897,5.0897,5.0897,5.0897,5.0897,5.0897,3.5996,0.0,3.7949,3.9687,4.0664,0.0,0.0,0.0,0.0,0.0,0.0,0.0,0.0,0.0,0.0,0.0,0.0,0.0,0.0,0.0,0.0,0.0,0.0,0.0,0.0,0.0,0.0,0.0,0.0,0.0,0.0,0.0,0.0,0.0,0.0,4.6245,4.6109,4.5972,4.5876,4.5799,4.5661,4.5594,4.5599,4.57,4.5867,4.6011,4.5924,4.6024,4.6218,4.6139,4.6172,4.6268,4.6289,4.6308,4.6308,4.6308,4.6308,4.6308,4.6308,4.6308,4.6308,4.6308,4.6308,4.6308,4.6308,4.6308,4.6308,4.6308,4.6308,4.6308,4.6308,4.6308,4.6308,4.6308,4.6308,4.6308,4.6308,4.6308,4.6483,4.7082,4.7301,4.7535,4.8008,4.8704,4.9248,4.9384,5.0014,5.0534,5.0668,5.0707,5.0707,5.0707,5.0572,5.0476,5.0476,5.0341,5.0245,5.0245,5.0245,5.0322,5.0476,5.057,5.0735,5.0935,5.0939,5.0988,5.1091,5.1091,5.1091,5.1091,5.1091,5.1091,0.0,0.0,3.8848,0.0,4.1113,4.1601,0.0,0.0,0.0,0.0,0.0,0.0,0.0,0.0,0.0,0.0,0.0,0.0,0.0,0.0,0.0,0.0,0.0,0.0,0.0,0.0,0.0,0.0,0.0,0.0,0.0,0.0,4.6308,4.6308,4.6308,0.0,4.6109,4.5972,4.5876,4.5799,4.5661,4.5594,4.5594,4.5625,4.5632,4.5685,4.5828,4.5898,4.5878,4.6042,4.6114,4.6144,4.6248,4.6308,4.6308,4.6308,4.6308,4.6308,4.6308,4.6308,4.6308,4.6308,4.6308,4.6308,4.6308,4.6308,4.6308,4.6308,4.6308,4.6308,4.6308,4.6308,4.6308,4.6308,4.6308,4.6308,4.6308,4.6308,4.6328,4.6425,4.6954,4.7341,4.7198,4.7887,4.8667,4.9292,4.949,4.9861,5.0592,5.0707,5.0707,5.0707,5.0014,4.9567,4.9567,4.8875,4.8452,4.8452,4.8452,4.8798,4.9529,4.9581,5.0058,5.1041,5.1063,5.1074,5.1091,5.1091,5.1091,5.1091,5.1091,5.1091,3.6601,3.7637,3.8906,0.0,4.084,4.1504,0.0,0.0,0.0,0.0,0.0,0.0,0.0,0.0,0.0,0.0,0.0,0.0,0.0,0.0,0.0,0.0,0.0,0.0,0.0,0.0,0.0,0.0,0.0,0.0,0.0,4.6308,4.6308,4.6308,4.6308,0.0,4.599,4.5924,4.5836,4.5696,4.5622,4.5594,4.5594,4.5594,4.5643,4.5719,4.5722,4.5776,4.5863,4.5952,4.6035,4.6112,4.6152,4.6198,4.6198,4.6198,4.6198,4.62,4.6269,4.6308,4.6308,4.6308,4.6308,4.6308,4.6308,4.6308,4.6308,4.6308,4.6308,4.6308,4.6308,4.6308,4.6308,4.6308,4.6308,4.6308,4.6308,4.6308,4.6308,4.6308,4.6509,4.6634,4.6514,4.7087,4.7842,4.8666,4.915,4.9707,5.0592,5.0707,5.0515,5.0014,4.963,4.9202,4.8702,4.8312,4.8101,4.8101,4.8101,4.849,4.9356,4.9468,5.0005,5.1089,5.1091,5.1158,5.127,5.127,5.127,5.127,5.127,5.127,0.0,0.0,3.8809,3.9687,4.0566,4.1406,0.0,0.0,0.0,0.0,0.0,0.0,0.0,0.0,0.0,0.0,0.0,0.0,0.0,0.0,0.0,0.0,0.0,0.0,0.0,0.0,0.0,0.0,0.0,0.0,4.6308,4.6308,4.6308,4.6308,4.6308,4.6173,4.5903,4.5857,4.5757,4.5594,4.5594,4.5594,4.5594,4.5594,4.5644,4.5743,4.5647,4.57,4.5822,4.5859,4.5927,4.6036,4.6038,4.6076,4.6109,4.6109,4.6118,4.6171,4.6268,4.6308,4.6308,4.6308,4.6308,4.6308,4.6308,4.6308,4.6308,4.6308,4.6308,4.6308,4.6308,4.6308,4.6308,4.6308,4.6308,4.6308,4.6308,4.6308,4.6308,4.6308,4.6223,4.6144,4.6112,4.6467,4.7122,4.8155,4.8774,4.9502,5.0563,5.0707,5.0361,4.949,4.9202,4.8721,4.787,4.7586,4.7451,4.7451,4.7451,4.7952,4.9029,4.9163,4.9808,5.1089,5.1091,5.12,5.1406,5.1406,5.1406,5.1406,5.1406,5.1406,0.0,3.7949,0.0,3.9687,0.0,0.0,0.0,0.0,0.0,0.0,0.0,0.0,0.0,0.0,0.0,0.0,0.0,0.0,0.0,0.0,0.0,0.0,0.0,0.0,0.0,0.0,0.0,0.0,0.0,0.0,4.6308,4.6308,4.6308,4.6308,4.6308,4.6173,4.5903,4.5708,4.5616,4.5594,4.5594,4.5594,4.5594,4.5594,4.5599,4.5612,4.5599,4.5607,4.5627,4.5742,4.5819,4.5821,4.5884,4.5988,4.6109,4.6109,4.6176,4.6289,4.6308,4.6308,4.6308,4.6308,4.6308,4.6308,4.6308,4.6308,4.6308,4.6308,4.6308,4.6308,4.6308,4.6308,4.6308,4.6308,4.6308,4.6308,4.6308,4.6308,4.6308,4.6308,4.6289,4.6247,4.6118,4.6123,4.6649,4.8076,4.8324,4.891,5.0505,5.0707,5.0361,4.949,4.8663,4.7832,4.7024,4.6201,4.5725,4.5725,4.5725,4.6456,4.8101,4.8172,4.9107,5.1067,5.1091,5.12,5.1406,5.1406,5.1406,5.1406,5.1406,5.1406,0.0,0.0,0.0,3.8848,3.9726,0.0,0.0,0.0,0.0,0.0,0.0,0.0,0.0,0.0,0.0,0.0,0.0,0.0,0.0,0.0,0.0,0.0,0.0,0.0,0.0,0.0,0.0,0.0,0.0,0.0,4.6308,4.6308,4.6308,4.6308,4.6308,4.6173,4.5903,4.571,4.5594,4.5594,4.5594,4.5594,4.5594,4.5594,4.5594,4.5594,4.5594,4.5594,4.5612,4.5743,4.5799,4.5806,4.5826,4.5861,4.5915,4.5954,4.5997,4.6075,4.6246,4.6308,4.6308,4.6308,4.6308,4.6308,4.6308,4.6308,4.6308,4.6308,4.6308,4.6308,4.6308,4.6308,4.6308,4.6308,4.6308,4.6308,4.6308,4.6308,4.6308,4.6308,4.6308,4.6289,4.6246,4.6169,4.6639,4.8191,4.8367,4.8883,5.0486,5.0707,5.0149,4.8721,4.8293,4.7548,4.6182,4.5782,4.5594,4.5594,4.5594,4.636,4.8024,4.8101,4.9057,5.1067,5.1091,5.12,5.1406,5.1406,5.1406,5.1406,5.1406,5.1406,3.5996,0.0,0.0,0.0,0.0,0.0,0.0,0.0,0.0,0.0,0.0,0.0,0.0,0.0,0.0,0.0,0.0,0.0,0.0,0.0,0.0,0.0,0.0,0.0,0.0,0.0,0.0,0.0,0.0,0.0,4.6308,4.6308,4.6308,4.6308,4.6202,4.6081,4.5901,4.571,4.5594,4.5594,4.5594,4.5594,4.5594,4.5594,4.5594,4.5594,4.5594,4.5594,4.5603,4.5692,4.5725,4.5725,4.5725,4.5765,4.5803,4.5874,4.5901,4.5926,4.6169,4.6225,4.6225,4.6225,4.6268,4.6308,4.6308,4.6308,4.6308,4.6308,4.6308,4.6308,4.6308,4.6308,4.6308,4.6308,4.6308,4.6308,4.6308,4.6308,4.6308,4.6308,4.6308,4.6308,4.6308,4.6225,4.6694,4.8258,4.8427,4.8935,5.0495,5.0707,5.0034,4.8293,4.8101,4.7413,4.5744,4.5594,4.5594,4.5594,4.5594,4.636,4.8024,4.8101,4.9025,5.0997,5.1088,5.1185,5.1323,5.1386,5.1406,5.1406,5.1406,5.1406,0.0,0.0,0.0,0.0,0.0,0.0,0.0,0.0,0.0,0.0,0.0,0.0,0.0,0.0,0.0,0.0,0.0,0.0,0.0,0.0,0.0,0.0,0.0,0.0,0.0,0.0,0.0,0.0,0.0,4.6308,4.6308,4.6308,4.6308,4.6308,4.6039,4.5901,4.5901,4.571,4.5594,4.5594,4.5594,4.5594,4.5594,4.5594,4.5594,4.5594,4.5594,4.5594,4.5594,4.5594,4.5594,4.5594,4.5594,4.5684,4.5793,4.5872,4.5899,4.5912,4.6046,4.6107,4.6087,4.6108,4.6198,4.6289,4.6308,4.6308,4.6308,4.6308,4.6308,4.6308,4.6308,4.6308,4.6308,4.6308,4.6308,4.6308,4.6308,4.6308,4.6308,4.6308,4.6308,4.6308,4.6308,4.6328,4.6824,4.8286,4.8519,4.9054,5.0514,5.0707,5.0034,4.8312,4.812,4.7432,4.5782,4.5614,4.5594,4.5594,4.5594,4.636,4.8024,4.811,4.8981,5.0873,5.1045,5.1139,5.1206,5.1343,5.1406,5.1406,5.1406,5.1406,3.5996,0.0,0.0,0.0,0.0,0.0,3.9766,4.0742,0.0,0.0,0.0,0.0,0.0,0.0,0.0,0.0,0.0,0.0,0.0,0.0,0.0,0.0,0.0,0.0,0.0,0.0,0.0,0.0,0.0,4.6308,4.6308,4.6308,4.6308,4.6308,4.6039,4.5901,4.5901,4.571,4.5594,4.5594,4.5594,4.5594,4.5594,4.5594,4.5594,4.5594,4.5594,4.5594,4.5594,4.5594,4.5594,4.5594,4.5594,4.5614,4.5673,4.5839,4.5862,4.5847,4.6048,4.6038,4.5976,4.6075,4.6139,4.6174,4.6268,4.6308,4.6308,4.6308,4.6308,4.6308,4.6308,4.6308,4.6308,4.6308,4.6308,4.6308,4.6308,4.6308,4.6308,4.6308,4.6308,4.6308,4.6308,4.6749,4.7427,4.8353,4.894,4.9636,5.0572,5.0707,5.0265,4.9163,4.849,4.7678,4.6624,4.5956,4.5594,4.5594,4.5594,4.636,4.8024,4.8194,4.9125,5.1011,5.1123,5.1227,5.1344,5.1386,5.1406,5.1406,5.1406,5.1406,0.0,0.0,0.0,0.0,0.0,0.0,3.916,4.0039,0.0,0.0,0.0,0.0,0.0,0.0,0.0,0.0,0.0,0.0,0.0,0.0,0.0,0.0,0.0,0.0,0.0,0.0,0.0,0.0,4.6308,4.6308,4.6308,4.6308,4.6308,4.6308,4.6039,4.5901,4.5901,4.571,4.5594,4.5594,4.5594,4.5594,4.5594,4.5594,4.5594,4.5594,4.5594,4.5594,4.5594,4.5594,4.5594,4.5594,4.5594,4.5594,4.5618,4.5789,4.5802,4.5747,4.5903,4.5935,4.5912,4.599,4.6085,4.62,4.6288,4.6308,4.6308,4.6308,4.6308,4.6308,4.6308,4.6308,4.6308,4.6308,4.6308,4.6308,4.6308,4.6308,4.6308,4.6308,4.6308,4.6426,4.6777,4.7152,4.7774,4.8876,4.9352,4.9869,5.0606,5.0707,5.0361,4.949,4.8952,4.8163,4.7005,4.6432,4.5994,4.5614,4.5594,4.636,4.8024,4.818,4.9102,5.098,5.1118,5.1245,5.1406,5.1406,5.1406,5.1406,5.1406,5.1406,0.0,0.0,0.0,0.0,0.0,0.0,3.8398,3.9277,4.0156,0.0,0.0,0.0,0.0,0.0,0.0,0.0,0.0,0.0,0.0,0.0,0.0,0.0,0.0,0.0,0.0,0.0,0.0,4.6308,4.6308,4.6308,4.6308,4.6308,4.6308,4.6308,4.6039,4.5901,4.5901,4.571,4.5594,4.5594,4.5594,4.5594,4.5594,4.5594,4.5594,4.5594,4.5594,4.5594,4.5594,4.5594,4.5594,4.5594,4.5594,4.5594,4.562,4.5751,4.5719,4.5625,4.5758,4.5825,4.5864,4.5892,4.6051,4.6268,4.6289,4.6308,4.6308,4.6308,4.6308,4.6308,4.6308,4.6308,4.6308,4.6308,4.6308,4.6308,4.6308,4.6308,4.6328,4.6406,4.6426,4.6699,4.7461,4.7636,4.8154,4.9581,4.977,4.9961,5.062,5.0707,5.0399,4.963,4.9452,4.8798,4.7293,4.7081,4.6663,4.5802,4.5744,4.6456,4.8024,4.8109,4.9011,5.0898,5.1061,5.1219,5.1406,5.1406,5.1406,5.1406,5.1406,5.1406,0.0,0.0,0.0,0.0,0.0,0.0,3.8398,3.9277,4.0156,0.0,0.0,0.0,0.0,0.0,0.0,0.0,0.0,0.0,0.0,0.0,0.0,0.0,0.0,0.0,0.0,0.0,4.6308,4.6308,4.6308,4.6308,4.6308,4.6308,4.6308,4.6308,4.6039,4.5901,4.5901,4.571,4.5594,4.5594,4.5594,4.5594,4.5594,4.5594,4.5594,4.5594,4.5594,4.5594,4.5594,4.5594,4.5594,4.5594,4.5594,4.5594,4.562,4.5751,4.5719,4.5625,4.5758,4.5747,4.57,4.5854,4.595,4.6027,4.6226,4.6308,4.6308,4.6308,4.6308,4.6308,4.6308,4.6308,4.6308,4.6308,4.6308,4.6308,4.6308,4.6308,4.6483,4.7065,4.7278,4.7402,4.7578,4.8561,4.9434,4.9742,5.0189,5.0548,5.0678,5.0707,5.063,5.0457,4.9822,4.926,4.8933,4.8279,4.7524,4.6697,4.6639,4.7081,4.8062,4.8191,4.9145,5.1031,5.1258,5.1364,5.1406,5.1406,5.1406,5.1406,5.1406,5.1406,0.0,0.0,0.0,3.5996,0.0,0.0,0.0,3.8945,3.9629,4.0937,0.0,0.0,0.0,0.0,0.0,0.0,0.0,0.0,0.0,0.0,0.0,0.0,0.0,0.0,0.0,0.0,4.6308,4.6308,4.6308,4.6308,4.6308,4.6308,4.6308,4.6308,4.6039,4.5901,4.5901,4.571,4.5594,4.5594,4.5594,4.5594,4.5594,4.5594,4.5594,4.5594,4.5594,4.5594,4.5594,4.5594,4.5594,4.5594,4.5594,4.5594,4.5607,4.568,4.5653,4.5607,4.568,4.5696,4.5711,4.5813,4.5912,4.6011,4.615,4.6247,4.6308,4.6308,4.6308,4.6308,4.6308,4.6308,4.6308,4.6308,4.6308,4.6308,4.6308,4.6308,4.6521,4.7266,4.7805,4.8262,4.8625,4.9242,4.9843,5.0276,5.0545,5.0707,5.0707,5.0707,5.0707,5.0707,5.0303,4.988,4.9433,4.899,4.8394,4.7543,4.712,4.7466,4.8702,4.8394,4.9104,5.1067,5.1239,5.1297,5.1297,5.1366,5.1406,5.1406,5.1406,5.1406,0.0,0.0,0.0,0.0,0.0,3.6914,0.0,0.0,0.0,4.0879,0.0,0.0,0.0,0.0,0.0,0.0,0.0,0.0,0.0,0.0,0.0,0.0,0.0,0.0,0.0,0.0,4.6113,4.6289,4.6308,4.6308,4.6308,4.6308,4.6308,4.6308,4.6039,4.5901,4.5901,4.571,4.5594,4.5594,4.5594,4.5594,4.5594,4.5594,4.5594,4.5594,4.5594,4.5594,4.5594,4.5594,4.5594,4.5594,4.5594,4.5594,4.5594,4.5594,4.5594,4.5594,4.5594,4.5673,4.5775,4.579,4.5925,4.6076,4.6119,4.6199,4.6268,4.6289,4.6308,4.6308,4.6308,4.6308,4.6308,4.6308,4.6308,4.6308,4.6308,4.6406,4.673,4.7461,4.8293,4.9063,4.9693,4.9828,5.008,5.0792,5.0786,5.0707,5.0707,5.0707,5.0707,5.0707,5.0707,5.0418,4.9707,4.9649,4.9279,4.8413,4.7735,4.799,4.9336,4.8927,4.945,5.1067,5.1163,5.1202,5.1202,5.1318,5.1365,5.1365,5.1386,5.1406,0.0,0.0,0.0,0.0,3.8301,0.0,0.0,0.0,4.0039,4.0996,0.0,0.0,0.0,0.0,0.0,0.0,0.0,0.0,0.0,0.0,0.0,0.0,0.0,0.0,0.0,0.0,0.0,4.623,4.6308,4.6308,4.6308,4.6308,4.6308,4.6308,4.6039,4.5901,4.5901,4.571,4.5594,4.5594,4.5594,4.5594,4.5594,4.5594,4.5594,4.5594,4.5594,4.5594,4.5594,4.5594,4.5594,4.5594,4.5594,4.5594,4.5594,4.5594,4.5594,4.5594,4.5594,4.5612,4.5643,4.5768,4.5861,4.5972,4.6201,4.6201,4.6146,4.6268,4.6308,4.6308,4.6308,4.6308,4.6308,4.6308,4.6308,4.6308,4.6308,4.6805,4.7497,4.8239,4.8974,4.956,4.978,5.0338,5.0792,5.0889,5.0786,5.0707,5.0707,5.0707,5.0707,5.0707,5.0707,5.0649,5.0553,5.0553,5.0188,4.9317,4.9163,4.9202,4.9394,5.0273,5.0866,5.1091,5.1163,5.1202,5.1202,5.1229,5.1213,5.1233,5.1344,5.1406,0.0,0.0,0.0,0.0,0.0,0.0,0.0,0.0,4.0156,0.0,0.0,0.0,0.0,0.0,0.0,0.0,0.0,0.0,0.0,0.0,0.0,0.0,0.0,0.0,0.0,0.0,0.0,0.0,0.0,4.5762,4.6269,4.6308,4.6308,4.6308,4.6116,4.5981,4.5901,4.5774,4.568,4.5594,4.5594,4.5594,4.5594,4.5594,4.5594,4.5594,4.5594,4.5594,4.5594,4.5594,4.5594,4.5594,4.5594,4.5594,4.5594,4.5594,4.5594,4.5594,4.5594,4.5594,4.561,4.5761,4.5828,4.5876,4.611,4.6145,4.612,4.6268,4.6308,4.6308,4.6308,4.6308,4.6308,4.6308,4.6308,4.6445,4.6953,4.7302,4.7862,4.9032,4.9493,4.9844,5.0255,5.059,5.0782,5.0782,5.074,5.0707,5.0707,5.0707,5.0707,5.0707,5.0707,5.0707,5.0707,5.0707,5.0534,5.0188,5.0149,4.9938,4.9413,5.0342,5.0896,5.0982,5.1011,5.1062,5.1148,5.1183,5.1202,5.1205,5.1343,5.1406,3.9316,0.0,0.0,0.0,0.0,0.0,0.0,0.0,0.0,0.0,0.0,0.0,0.0,0.0,0.0,0.0,0.0,0.0,0.0,0.0,0.0,0.0,0.0,0.0,0.0,0.0,0.0,0.0,4.4863,0.0,4.5918,4.6172,4.6308,4.6308,4.6173,4.6038,4.5901,4.5825,4.5725,4.5594,4.5594,4.5594,4.5594,4.5594,4.5594,4.5594,4.5594,4.5594,4.5594,4.5594,4.5594,4.5594,4.5594,4.5594,4.5594,4.5594,4.5594,4.5594,4.5594,4.5594,4.561,4.5761,4.5785,4.5773,4.5971,4.6027,4.6051,4.6199,4.6247,4.6248,4.6289,4.6308,4.6308,4.6308,4.6308,4.6543,4.7402,4.7753,4.8281,4.9547,4.9961,5.0238,5.0624,5.0707,5.0707,5.0707,5.0707,5.0707,5.0707,5.0707,5.0707,5.0707,5.0707,5.0707,5.0707,5.0707,5.0707,5.0707,5.0707,5.0418,4.9784,5.0408,5.0793,5.0905,5.0908,5.0979,5.1091,5.1158,5.1183,5.1205,5.1343,5.1406,0.0,0.0,0.0,4.1113,0.0,0.0,0.0,0.0,4.1172,0.0,0.0,0.0,0.0,0.0,0.0,0.0,0.0,0.0,0.0,0.0,0.0,0.0,0.0,0.0,0.0,0.0,0.0,0.0,4.4512,0.0,4.5039,4.584,4.6308,4.6308,4.6173,4.6038,4.5901,4.5825,4.5725,4.5594,4.5594,4.5594,4.5594,4.5594,4.5594,4.5594,4.5594,4.5594,4.5594,4.5594,4.5594,4.5594,4.5594,4.5594,4.5594,4.5594,4.5594,4.5594,4.5594,4.5594,4.561,4.5761,4.5715,4.5648,4.5849,4.5858,4.5844,4.6054,4.6112,4.6143,4.6268,4.6308,4.6308,4.6308,4.6308,4.6543,4.7402,4.8151,4.8896,4.9648,5.0386,5.0832,5.0716,5.0707,5.0707,5.0707,5.0707,5.0707,5.0707,5.0707,5.0707,5.0707,5.0707,5.0707,5.0707,5.0707,5.0707,5.0707,5.0707,5.0688,5.0649,5.0811,5.0901,5.0908,5.0908,5.0979,5.1091,5.1096,5.1139,5.1205,5.1343,5.1406,0.0,0.0,4.1191,4.1191,0.0,0.0,0.0,0.0,0.0,0.0,0.0,0.0,0.0,0.0,0.0,0.0,0.0,0.0,0.0,0.0,0.0,0.0,0.0,0.0,0.0,0.0,0.0,4.2773,4.3105,4.3789,0.0,4.5273,4.5662,4.6154,4.6119,4.6011,4.5847,4.5809,4.5725,4.5594,4.5594,4.5594,4.5594,4.5594,4.5594,4.5594,4.5594,4.5594,4.5594,4.5594,4.5594,4.5594,4.5594,4.5594,4.5594,4.5594,4.5594,4.5594,4.5594,4.5594,4.5607,4.5644,4.5635,4.5631,4.5796,4.5825,4.5829,4.603,4.6109,4.6121,4.6268,4.6308,4.6308,4.6308,4.6308,4.6699,4.8144,4.8651,4.9204,5.0475,5.0922,5.1031,5.0867,5.0823,5.0797,5.0717,5.0707,5.0707,5.0707,5.0707,5.0707,5.0707,5.0707,5.0707,5.0707,5.0707,5.0707,5.0707,5.0707,5.0707,5.0707,5.073,5.0505,4.9926,5.0466,5.0588,5.0245,5.0821,5.1188,5.1323,5.1386,5.1406,4.1621,4.1426,0.0,0.0,4.1191,0.0,4.1191,0.0,0.0,0.0,0.0,0.0,0.0,0.0,0.0,0.0,0.0,0.0,0.0,3.9082,0.0,0.0,0.0,0.0,0.0,0.0,4.1406,4.1933,4.2246,4.2891,0.0,0.0,4.5213,4.5685,4.5962,4.6011,4.583,4.5812,4.5725,4.5594,4.5594,4.5594,4.5594,4.5594,4.5594,4.5594,4.5594,4.5594,4.5594,4.5594,4.5594,4.5594,4.5594,4.5594,4.5594,4.5594,4.5594,4.5594,4.5594,4.5594,4.5594,4.5594,4.5594,4.562,4.57,4.5722,4.5766,4.5936,4.6009,4.605,4.6199,4.6268,4.6308,4.6308,4.6543,4.7148,4.8594,4.9141,4.9725,5.096,5.1202,5.1143,5.0993,5.0966,5.0903,5.0721,5.0707,5.0707,5.0707,5.0707,5.0707,5.0707,5.0707,5.0707,5.0707,5.0707,5.0707,5.0707,5.0707,5.0707,5.0707,5.0707,5.0438,4.988,5.0111,5.0248,5.0264,5.0515,5.0894,5.1406,5.1406,5.1406]}]]